Darstellungsparameter: Aktuell verwendete Einstellungen:
Skalierung der Graphiken ... ?
xyx+y,   Skalierungsfaktor:      Skalierung: Modus: x, Faktor: 1
Darstellungszeitraum ... ?
Vom - - bis: - -   Zeitraum: 26.03.2020 - 23.04.2020
Min/Max/Avg-Anzeige ... ?
Zeige MMA aktuell
Zeige MMA Monat
Zeige MMA alles
Zeige --A aktuell
Zeige --A Monat
Zeige --A alles
Keine MMA-Anzeige
MMA:
Keine MMA-Graphiken
MMA-Basis: 26.03.2020 - 23.04.2020
Quicknavigation für Darstellung... ?
Tage:      1T, 2T, 3T, 5T -1T -2T -3T -5T +1T +2T +3T +5T
Wochen: 1W, 2W, 3W -1W -2W -3W +1W +2W +3W
Monate: 1M, 3M, 6M -1M -3M -6M +1M +3M +6M
Jahre:    1J, 3J, 5J, 10J -1J -3J -5J -10J +1J +3J +5J +10J
Nutze für die Darstellung ... ?
Originaldaten oder Mittelwerte auf ...
Stundenbasis Tagesbasis Wochenbasis
Monatsbasis Jahresbasis      Datenbasis: Original-Daten
Darstellen als:
Statistik (Auto) Statistik J:M      Darstellung:
Zur Graphik,    zurück zur Übersicht aller Sensoren.
 
Tabellarische Datenbersicht: ?
 
Sensor: Nr:Datum:Temp:Feuchte:
Aussen-T/F 1 26-03-2020 00:00:18 1.4 C 21 %
2 26-03-2020 00:10:18 1.2 C 21 %
3 26-03-2020 00:20:18 1.3 C 21 %
4 26-03-2020 00:30:18 0.9 C 23 %
5 26-03-2020 00:40:18 0.9 C 25 %
6 26-03-2020 00:50:18 1 C 23 %
7 26-03-2020 01:00:18 0.7 C 25 %
8 26-03-2020 01:10:18 0.4 C 25 %
9 26-03-2020 01:20:17 0.5 C 25 %
10 26-03-2020 01:30:17 0.7 C 25 %
11 26-03-2020 01:40:17 0.7 C 23 %
12 26-03-2020 01:50:17 0.7 C 21 %
13 26-03-2020 02:00:17 0.6 C 23 %
14 26-03-2020 02:10:17 0.7 C 21 %
15 26-03-2020 02:20:17 0.7 C 21 %
16 26-03-2020 02:30:17 0.6 C 21 %
17 26-03-2020 02:40:18 0.4 C 21 %
18 26-03-2020 02:50:17 0.3 C 23 %
19 26-03-2020 03:00:17 0 C 23 %
20 26-03-2020 03:10:18 0.1 C 23 %
21 26-03-2020 03:20:18 0 C 23 %
22 26-03-2020 03:30:18 -0.3 C 25 %
23 26-03-2020 03:40:18 -0.3 C 27 %
24 26-03-2020 03:50:17 -0.4 C 27 %
25 26-03-2020 04:00:17 -0.1 C 26 %
Sensor: Nr:Datum:Temp:Feuchte:
Aussen-T/F 26 26-03-2020 04:10:17 -0.3 C 25 %
27 26-03-2020 04:20:17 -0.3 C 26 %
28 26-03-2020 04:30:18 -0.4 C 26 %
29 26-03-2020 04:40:18 -0.4 C 26 %
30 26-03-2020 04:50:17 -0.5 C 26 %
31 26-03-2020 05:00:18 -0.5 C 27 %
32 26-03-2020 05:10:18 -0.6 C 27 %
33 26-03-2020 05:20:17 -0.6 C 28 %
34 26-03-2020 05:30:17 -0.7 C 28 %
35 26-03-2020 05:40:18 -0.5 C 28 %
36 26-03-2020 05:50:17 -0.6 C 28 %
37 26-03-2020 06:00:18 -0.7 C 29 %
38 26-03-2020 06:10:18 -0.8 C 28 %
39 26-03-2020 06:20:18 -0.9 C 28 %
40 26-03-2020 06:30:18 -1 C 28 %
41 26-03-2020 06:40:18 -0.9 C 30 %
42 26-03-2020 06:50:18 -1.1 C 30 %
43 26-03-2020 07:00:18 -0.8 C 30 %
44 26-03-2020 07:10:18 -1.1 C 30 %
45 26-03-2020 07:20:18 -0.6 C 30 %
46 26-03-2020 07:30:18 -0.4 C 30 %
47 26-03-2020 07:40:18 0.2 C 27 %
48 26-03-2020 07:50:17 0.5 C 25 %
49 26-03-2020 08:00:18 0.3 C 28 %
50 26-03-2020 08:10:18 0.4 C 28 %
Sensor: Nr:Datum:Temp:Feuchte:
Aussen-T/F 51 26-03-2020 08:20:18 0.7 C 26 %
52 26-03-2020 08:30:18 1.4 C 21 %
53 26-03-2020 08:40:18 1.7 C 21 %
54 26-03-2020 08:50:17 2.2 C 20 %
55 26-03-2020 09:00:18 2.3 C 20 %
56 26-03-2020 09:10:18 2.3 C 20 %
57 26-03-2020 09:20:18 2.7 C 20 %
58 26-03-2020 09:30:18 3.2 C 20 %
59 26-03-2020 09:40:18 3.5 C 20 %
60 26-03-2020 09:50:18 4.1 C 20 %
61 26-03-2020 10:00:18 4.4 C 20 %
62 26-03-2020 10:10:18 4.9 C 20 %
63 26-03-2020 10:20:18 5 C 20 %
64 26-03-2020 10:30:18 5.4 C 20 %
65 26-03-2020 10:40:18 5.9 C 20 %
66 26-03-2020 10:50:17 6 C 20 %
67 26-03-2020 11:00:18 6.6 C 20 %
68 26-03-2020 11:10:18 6.9 C 20 %
69 26-03-2020 11:20:18 7.3 C 20 %
70 26-03-2020 11:30:18 8.5 C 20 %
71 26-03-2020 11:40:18 8.3 C 20 %
72 26-03-2020 11:50:18 7.3 C 20 %
73 26-03-2020 12:00:18 8 C 20 %
74 26-03-2020 12:10:18 9.1 C 20 %
75 26-03-2020 12:20:17 9.6 C 20 %
Sensor: Nr:Datum:Temp:Feuchte:
Aussen-T/F 76 26-03-2020 12:30:17 9.6 C 20 %
77 26-03-2020 12:40:17 9.6 C 20 %
78 26-03-2020 12:50:17 9.7 C 20 %
79 26-03-2020 13:00:17 10.4 C 20 %
80 26-03-2020 13:10:17 10.8 C 20 %
81 26-03-2020 13:20:18 11.5 C 20 %
82 26-03-2020 13:30:18 11.5 C 20 %
83 26-03-2020 13:40:18 12.1 C 20 %
84 26-03-2020 13:50:18 13 C 20 %
85 26-03-2020 14:00:18 12 C 20 %
86 26-03-2020 14:10:18 12.2 C 20 %
87 26-03-2020 14:20:18 11.9 C 20 %
88 26-03-2020 14:30:18 14.3 C 20 %
89 26-03-2020 14:40:18 14.2 C 20 %
90 26-03-2020 14:50:17 14 C 20 %
91 26-03-2020 15:00:17 15.3 C 20 %
92 26-03-2020 15:10:18 14.2 C 20 %
93 26-03-2020 15:20:18 14 C 20 %
94 26-03-2020 15:30:18 15.6 C 20 %
95 26-03-2020 15:40:18 15.6 C 20 %
96 26-03-2020 15:50:18 16.5 C 20 %
97 26-03-2020 16:00:18 15.6 C 20 %
98 26-03-2020 16:10:18 15.3 C 20 %
99 26-03-2020 16:20:18 12.5 C 20 %
100 26-03-2020 16:30:18 12.3 C 20 %
Sensor: Nr:Datum:Temp:Feuchte:
Aussen-T/F 101 26-03-2020 16:40:18 13.9 C 20 %
102 26-03-2020 16:50:18 12.8 C 20 %
103 26-03-2020 17:00:18 11.4 C 20 %
104 26-03-2020 17:10:18 11 C 20 %
105 26-03-2020 17:20:17 10.9 C 20 %
106 26-03-2020 17:30:17 11 C 20 %
107 26-03-2020 17:40:17 11.1 C 20 %
108 26-03-2020 17:50:17 10.7 C 20 %
109 26-03-2020 18:00:17 10.5 C 20 %
110 26-03-2020 18:10:17 10.3 C 20 %
111 26-03-2020 18:20:18 10.1 C 20 %
112 26-03-2020 18:30:18 9.8 C 20 %
113 26-03-2020 18:40:18 9.4 C 20 %
114 26-03-2020 18:50:17 8.6 C 20 %
115 26-03-2020 19:00:17 8 C 20 %
116 26-03-2020 19:10:17 7.4 C 20 %
117 26-03-2020 19:20:17 6.9 C 21 %
118 26-03-2020 19:30:17 6.7 C 21 %
119 26-03-2020 19:40:17 6.4 C 21 %
120 26-03-2020 19:50:17 6.5 C 21 %
121 26-03-2020 20:00:17 6.2 C 23 %
122 26-03-2020 20:10:18 6 C 23 %
123 26-03-2020 20:20:18 5.7 C 25 %
124 26-03-2020 20:30:17 5.4 C 26 %
125 26-03-2020 20:40:17 4.9 C 28 %
Sensor: Nr:Datum:Temp:Feuchte:
Aussen-T/F 126 26-03-2020 20:50:17 4.9 C 28 %
127 26-03-2020 21:00:17 4.7 C 29 %
128 26-03-2020 21:10:17 4.5 C 29 %
129 26-03-2020 21:20:17 4.5 C 30 %
130 26-03-2020 21:30:18 4.1 C 30 %
131 26-03-2020 21:40:18 4.6 C 30 %
132 26-03-2020 21:50:18 4.6 C 30 %
133 26-03-2020 22:00:18 4.6 C 30 %
134 26-03-2020 22:10:18 4.6 C 30 %
135 26-03-2020 22:20:17 4.5 C 30 %
136 26-03-2020 22:30:17 4.5 C 30 %
137 26-03-2020 22:40:17 4.5 C 30 %
138 26-03-2020 22:50:17 4.4 C 30 %
139 26-03-2020 23:00:18 4.5 C 30 %
140 26-03-2020 23:10:18 4.2 C 30 %
141 26-03-2020 23:20:17 4.2 C 30 %
142 26-03-2020 23:30:18 3.9 C 31 %
143 26-03-2020 23:40:18 4 C 30 %
144 26-03-2020 23:50:18 3.9 C 31 %
145 27-03-2020 00:00:18 4 C 30 %
146 27-03-2020 00:10:18 3.9 C 31 %
147 27-03-2020 00:20:17 4 C 30 %
148 27-03-2020 00:30:17 4 C 30 %
149 27-03-2020 00:40:17 3.7 C 32 %
150 27-03-2020 00:50:18 3.6 C 32 %
Sensor: Nr:Datum:Temp:Feuchte:
Aussen-T/F 151 27-03-2020 01:00:18 2.7 C 35 %
152 27-03-2020 01:10:18 2.5 C 36 %
153 27-03-2020 01:20:17 3 C 35 %
154 27-03-2020 01:30:18 3.1 C 35 %
155 27-03-2020 01:40:18 2.7 C 36 %
156 27-03-2020 01:50:18 3 C 35 %
157 27-03-2020 02:00:18 2.9 C 35 %
158 27-03-2020 02:10:18 2.8 C 35 %
159 27-03-2020 02:20:17 2.7 C 35 %
160 27-03-2020 02:30:17 2.5 C 36 %
161 27-03-2020 02:40:17 2.5 C 36 %
162 27-03-2020 02:50:17 2.6 C 35 %
163 27-03-2020 03:00:17 2.6 C 35 %
164 27-03-2020 03:10:17 2.2 C 36 %
165 27-03-2020 03:20:17 2.5 C 35 %
166 27-03-2020 03:30:17 2.4 C 35 %
167 27-03-2020 03:40:17 2.6 C 35 %
168 27-03-2020 03:50:17 2.4 C 36 %
169 27-03-2020 04:00:18 2.4 C 35 %
170 27-03-2020 04:10:18 2.4 C 35 %
171 27-03-2020 04:20:18 1.4 C 38 %
172 27-03-2020 04:30:18 1.3 C 38 %
173 27-03-2020 04:40:18 1.6 C 38 %
174 27-03-2020 04:50:17 1.8 C 37 %
175 27-03-2020 05:00:18 1.5 C 38 %
Sensor: Nr:Datum:Temp:Feuchte:
Aussen-T/F 176 27-03-2020 05:10:18 0.7 C 40 %
177 27-03-2020 05:20:18 0.4 C 40 %
178 27-03-2020 05:30:18 0 C 41 %
179 27-03-2020 05:40:18 0 C 42 %
180 27-03-2020 05:50:18 -0.1 C 42 %
181 27-03-2020 06:00:18 -0.5 C 42 %
182 27-03-2020 06:10:18 -0.6 C 43 %
183 27-03-2020 06:20:18 -0.4 C 43 %
184 27-03-2020 06:30:18 -0.4 C 43 %
185 27-03-2020 06:40:18 -0.3 C 43 %
186 27-03-2020 06:50:17 -0.3 C 43 %
187 27-03-2020 07:00:18 -0.2 C 43 %
188 27-03-2020 07:10:18 -0.1 C 43 %
189 27-03-2020 07:20:18 0.1 C 43 %
190 27-03-2020 07:30:18 0.3 C 43 %
191 27-03-2020 07:40:18 0.8 C 43 %
192 27-03-2020 07:50:17 1.2 C 41 %
193 27-03-2020 08:00:17 1.1 C 41 %
194 27-03-2020 08:10:18 1.9 C 40 %
195 27-03-2020 08:20:18 1.7 C 40 %
196 27-03-2020 08:30:18 1.6 C 41 %
197 27-03-2020 08:40:18 1.9 C 41 %
198 27-03-2020 08:50:17 2.6 C 39 %
199 27-03-2020 09:00:18 3 C 38 %
200 27-03-2020 09:10:18 3.3 C 37 %
Sensor: Nr:Datum:Temp:Feuchte:
Aussen-T/F 201 27-03-2020 09:20:17 3.6 C 37 %
202 27-03-2020 09:30:18 4.1 C 36 %
203 27-03-2020 09:40:18 4.5 C 35 %
204 27-03-2020 09:50:18 5.3 C 35 %
205 27-03-2020 10:00:18 5.8 C 34 %
206 27-03-2020 10:10:18 6.5 C 32 %
207 27-03-2020 10:20:17 7.6 C 30 %
208 27-03-2020 10:30:17 8.1 C 28 %
209 27-03-2020 10:40:17 9.1 C 25 %
210 27-03-2020 10:50:17 9.3 C 25 %
211 27-03-2020 11:00:17 10.2 C 20 %
212 27-03-2020 11:10:17 11 C 20 %
213 27-03-2020 11:20:17 12.4 C 20 %
214 27-03-2020 11:30:17 14.5 C 20 %
215 27-03-2020 11:40:17 14.2 C 20 %
216 27-03-2020 11:50:17 12.5 C 20 %
217 27-03-2020 12:00:17 13.4 C 20 %
218 27-03-2020 12:10:17 13.7 C 20 %
219 27-03-2020 12:20:17 14.4 C 20 %
220 27-03-2020 12:30:17 14.1 C 20 %
221 27-03-2020 12:40:18 14.2 C 20 %
222 27-03-2020 12:50:18 14.6 C 20 %
223 27-03-2020 13:00:18 16.6 C 20 %
224 27-03-2020 13:10:18 15.8 C 20 %
225 27-03-2020 13:20:17 17.6 C 20 %
Sensor: Nr:Datum:Temp:Feuchte:
Aussen-T/F 226 27-03-2020 13:30:18 18.8 C 20 %
227 27-03-2020 13:40:18 16.8 C 20 %
228 27-03-2020 13:50:18 17.3 C 20 %
229 27-03-2020 14:00:18 16.9 C 20 %
230 27-03-2020 14:10:18 17.6 C 20 %
231 27-03-2020 14:20:18 17.7 C 20 %
232 27-03-2020 14:30:17 20.4 C 20 %
233 27-03-2020 14:40:17 18.1 C 20 %
234 27-03-2020 14:50:17 18.4 C 20 %
235 27-03-2020 15:00:17 18.5 C 20 %
236 27-03-2020 15:10:17 18.7 C 20 %
237 27-03-2020 15:20:17 18.9 C 20 %
238 27-03-2020 15:30:18 19.4 C 20 %
239 27-03-2020 15:40:18 18.3 C 20 %
240 27-03-2020 15:50:17 19.5 C 20 %
241 27-03-2020 16:00:17 18.5 C 20 %
242 27-03-2020 16:10:17 18.2 C 20 %
243 27-03-2020 16:20:17 19.2 C 20 %
244 27-03-2020 16:30:17 18.3 C 20 %
245 27-03-2020 16:40:17 18 C 20 %
246 27-03-2020 16:50:17 17 C 20 %
247 27-03-2020 17:00:18 16.4 C 20 %
248 27-03-2020 17:10:18 16.3 C 20 %
249 27-03-2020 17:20:18 16.1 C 20 %
250 27-03-2020 17:30:18 16 C 20 %
Sensor: Nr:Datum:Temp:Feuchte:
Aussen-T/F 251 27-03-2020 17:40:18 15.8 C 20 %
252 27-03-2020 17:50:18 15.7 C 20 %
253 27-03-2020 18:00:17 15.4 C 20 %
254 27-03-2020 18:10:17 15 C 20 %
255 27-03-2020 18:20:17 14.1 C 20 %
256 27-03-2020 18:30:18 13.5 C 20 %
257 27-03-2020 18:40:18 12.9 C 20 %
258 27-03-2020 18:50:18 12.3 C 20 %
259 27-03-2020 19:00:18 11.8 C 20 %
260 27-03-2020 19:10:18 11.5 C 20 %
261 27-03-2020 19:20:17 11.4 C 20 %
262 27-03-2020 19:30:17 10.7 C 20 %
263 27-03-2020 19:40:17 10.7 C 21 %
264 27-03-2020 19:50:17 10.4 C 23 %
265 27-03-2020 20:00:18 10.4 C 22 %
266 27-03-2020 20:10:18 9.2 C 26 %
267 27-03-2020 20:20:17 8.9 C 28 %
268 27-03-2020 20:30:17 8.4 C 30 %
269 27-03-2020 20:40:17 8.1 C 30 %
270 27-03-2020 20:50:18 7.8 C 31 %
271 27-03-2020 21:00:17 7.4 C 31 %
272 27-03-2020 21:10:17 7.3 C 32 %
273 27-03-2020 21:20:17 7.1 C 32 %
274 27-03-2020 21:30:17 7 C 32 %
275 27-03-2020 21:40:17 6.6 C 33 %
Sensor: Nr:Datum:Temp:Feuchte:
Aussen-T/F 276 27-03-2020 21:50:17 6.6 C 34 %
277 27-03-2020 22:00:17 6.4 C 34 %
278 27-03-2020 22:10:17 6.3 C 34 %
279 27-03-2020 22:20:17 6 C 35 %
280 27-03-2020 22:30:18 5.8 C 35 %
281 27-03-2020 22:40:18 5.6 C 35 %
282 27-03-2020 22:50:18 5.5 C 36 %
283 27-03-2020 23:00:18 5.6 C 36 %
284 27-03-2020 23:10:18 5.6 C 36 %
285 27-03-2020 23:20:17 5.3 C 36 %
286 27-03-2020 23:30:17 5.2 C 36 %
287 27-03-2020 23:40:17 5.1 C 36 %
288 27-03-2020 23:50:17 4.8 C 37 %
289 28-03-2020 00:00:17 4.8 C 38 %
290 28-03-2020 00:10:17 4.8 C 39 %
291 28-03-2020 00:20:17 5 C 37 %
292 28-03-2020 00:30:18 4.9 C 38 %
293 28-03-2020 00:40:18 4.7 C 38 %
294 28-03-2020 00:50:17 4.7 C 38 %
295 28-03-2020 01:00:17 4.6 C 38 %
296 28-03-2020 01:10:17 4.4 C 39 %
297 28-03-2020 01:20:17 4.3 C 39 %
298 28-03-2020 01:30:17 4.1 C 39 %
299 28-03-2020 01:40:18 3.9 C 40 %
300 28-03-2020 01:50:17 3.7 C 41 %
Sensor: Nr:Datum:Temp:Feuchte:
Aussen-T/F 301 28-03-2020 02:00:18 3.6 C 41 %
302 28-03-2020 02:10:18 3.3 C 41 %
303 28-03-2020 02:20:18 3.1 C 41 %
304 28-03-2020 02:30:17 3.7 C 42 %
305 28-03-2020 02:40:17 3.7 C 41 %
306 28-03-2020 02:50:18 3.4 C 41 %
307 28-03-2020 03:00:18 3.1 C 41 %
308 28-03-2020 03:10:18 2.9 C 42 %
309 28-03-2020 03:20:17 2.8 C 43 %
310 28-03-2020 03:30:18 2.6 C 43 %
311 28-03-2020 03:40:18 2.1 C 43 %
312 28-03-2020 03:50:17 2.1 C 44 %
313 28-03-2020 04:00:18 2.2 C 44 %
314 28-03-2020 04:10:18 2.1 C 44 %
315 28-03-2020 04:20:18 1.9 C 45 %
316 28-03-2020 04:30:18 1.7 C 45 %
317 28-03-2020 04:40:18 1.8 C 46 %
318 28-03-2020 04:50:17 1.8 C 46 %
319 28-03-2020 05:00:18 1.7 C 45 %
320 28-03-2020 05:10:18 1.6 C 45 %
321 28-03-2020 05:20:17 1.5 C 45 %
322 28-03-2020 05:30:18 1.3 C 46 %
323 28-03-2020 05:40:18 1.2 C 46 %
324 28-03-2020 05:50:18 1.2 C 46 %
325 28-03-2020 06:00:18 1.2 C 46 %
Sensor: Nr:Datum:Temp:Feuchte:
Aussen-T/F 326 28-03-2020 06:10:18 1.3 C 46 %
327 28-03-2020 06:20:17 1.1 C 46 %
328 28-03-2020 06:30:17 1.1 C 46 %
329 28-03-2020 06:40:17 1 C 46 %
330 28-03-2020 06:50:17 1.2 C 47 %
331 28-03-2020 07:00:17 1.5 C 47 %
332 28-03-2020 07:10:17 1.7 C 47 %
333 28-03-2020 07:20:17 1.9 C 47 %
334 28-03-2020 07:30:18 1.9 C 46 %
335 28-03-2020 07:40:18 1.9 C 46 %
336 28-03-2020 07:50:17 2 C 45 %
337 28-03-2020 08:00:17 2.2 C 45 %
338 28-03-2020 08:10:18 2.5 C 45 %
339 28-03-2020 08:20:18 2.8 C 46 %
340 28-03-2020 08:30:17 3.2 C 45 %
341 28-03-2020 08:40:17 3.7 C 44 %
342 28-03-2020 08:50:18 4 C 43 %
343 28-03-2020 09:00:18 4.6 C 43 %
344 28-03-2020 09:10:18 5.1 C 41 %
345 28-03-2020 09:20:17 5.7 C 41 %
346 28-03-2020 09:30:18 6.3 C 40 %
347 28-03-2020 09:40:18 6.9 C 40 %
348 28-03-2020 09:50:18 7.8 C 38 %
349 28-03-2020 10:00:18 8.4 C 37 %
350 28-03-2020 10:10:18 9.5 C 35 %
Sensor: Nr:Datum:Temp:Feuchte:
Aussen-T/F 351 28-03-2020 10:20:17 10.2 C 32 %
352 28-03-2020 10:30:17 10.9 C 31 %
353 28-03-2020 10:40:17 11.6 C 30 %
354 28-03-2020 10:50:18 12.2 C 29 %
355 28-03-2020 11:00:18 13.4 C 26 %
356 28-03-2020 11:10:18 13.6 C 25 %
357 28-03-2020 11:20:17 15.8 C 20 %
358 28-03-2020 11:30:17 16.7 C 20 %
359 28-03-2020 11:40:17 16.4 C 20 %
360 28-03-2020 11:50:18 15.9 C 20 %
361 28-03-2020 12:00:17 16.6 C 20 %
362 28-03-2020 12:10:17 17 C 20 %
363 28-03-2020 12:20:17 17.7 C 20 %
364 28-03-2020 12:30:17 17.8 C 20 %
365 28-03-2020 12:40:17 18.1 C 20 %
366 28-03-2020 12:50:18 18 C 20 %
367 28-03-2020 13:00:18 18.6 C 20 %
368 28-03-2020 13:10:18 19.6 C 20 %
369 28-03-2020 13:20:18 21.7 C 20 %
370 28-03-2020 13:30:17 21.1 C 20 %
371 28-03-2020 13:40:17 20.7 C 20 %
372 28-03-2020 13:50:18 20.6 C 20 %
373 28-03-2020 14:00:17 21.1 C 20 %
374 28-03-2020 14:10:17 21.3 C 20 %
375 28-03-2020 14:20:17 21.9 C 20 %
Sensor: Nr:Datum:Temp:Feuchte:
Aussen-T/F 376 28-03-2020 14:30:17 23.7 C 20 %
377 28-03-2020 14:40:17 24.3 C 20 %
378 28-03-2020 14:50:17 23.2 C 20 %
379 28-03-2020 15:00:18 22.4 C 20 %
380 28-03-2020 15:10:18 19.9 C 20 %
381 28-03-2020 15:20:18 18.6 C 20 %
382 28-03-2020 15:30:18 19.6 C 20 %
383 28-03-2020 15:40:18 22.1 C 20 %
384 28-03-2020 15:50:18 20.5 C 20 %
385 28-03-2020 16:00:18 21.1 C 20 %
386 28-03-2020 16:10:18 21.1 C 20 %
387 28-03-2020 16:20:18 19.9 C 20 %
388 28-03-2020 16:30:18 19.6 C 20 %
389 28-03-2020 16:40:18 19.6 C 20 %
390 28-03-2020 16:50:18 18.5 C 20 %
391 28-03-2020 17:00:18 17.9 C 20 %
392 28-03-2020 17:10:18 17 C 20 %
393 28-03-2020 17:20:18 16.6 C 20 %
394 28-03-2020 17:30:18 16.2 C 20 %
395 28-03-2020 17:40:18 16.2 C 20 %
396 28-03-2020 17:50:17 15.4 C 20 %
397 28-03-2020 18:00:18 14.9 C 20 %
398 28-03-2020 18:10:18 14.6 C 20 %
399 28-03-2020 18:20:17 14 C 20 %
400 28-03-2020 18:30:17 13.5 C 20 %
Sensor: Nr:Datum:Temp:Feuchte:
Aussen-T/F 401 28-03-2020 18:40:17 13.1 C 20 %
402 28-03-2020 18:50:18 12.6 C 20 %
403 28-03-2020 19:00:18 12.3 C 20 %
404 28-03-2020 19:10:18 11.7 C 20 %
405 28-03-2020 19:20:18 11.7 C 20 %
406 28-03-2020 19:30:18 11.4 C 20 %
407 28-03-2020 19:40:18 11.2 C 20 %
408 28-03-2020 19:50:17 10.8 C 20 %
409 28-03-2020 20:00:18 10.3 C 20 %
410 28-03-2020 20:10:18 10.7 C 20 %
411 28-03-2020 20:20:17 10.5 C 20 %
412 28-03-2020 20:30:18 10 C 20 %
413 28-03-2020 20:40:18 9.2 C 20 %
414 28-03-2020 20:50:17 8.7 C 20 %
415 28-03-2020 21:00:17 8.8 C 20 %
416 28-03-2020 21:10:17 9.2 C 20 %
417 28-03-2020 21:20:17 8.7 C 23 %
418 28-03-2020 21:30:17 8.1 C 25 %
419 28-03-2020 21:40:17 8.4 C 23 %
420 28-03-2020 21:50:17 7.6 C 25 %
421 28-03-2020 22:00:17 8.3 C 25 %
422 28-03-2020 22:10:17 8.5 C 21 %
423 28-03-2020 22:20:17 8.4 C 25 %
424 28-03-2020 22:30:17 8.3 C 26 %
425 28-03-2020 22:40:17 7.9 C 26 %
Sensor: Nr:Datum:Temp:Feuchte:
Aussen-T/F 426 28-03-2020 22:50:17 7.4 C 28 %
427 28-03-2020 23:00:17 7.3 C 30 %
428 28-03-2020 23:10:17 7.2 C 30 %
429 28-03-2020 23:20:18 7.1 C 30 %
430 28-03-2020 23:30:18 7.1 C 31 %
431 28-03-2020 23:40:18 6.8 C 32 %
432 28-03-2020 23:50:17 6.7 C 33 %
433 29-03-2020 00:00:18 6.5 C 33 %
434 29-03-2020 00:10:18 6.4 C 33 %
435 29-03-2020 00:20:17 6.2 C 33 %
436 29-03-2020 00:30:17 6.5 C 33 %
437 29-03-2020 00:40:17 6.6 C 33 %
438 29-03-2020 00:50:18 6.5 C 32 %
439 29-03-2020 01:00:18 6.3 C 32 %
440 29-03-2020 01:10:18 6.3 C 32 %
441 29-03-2020 01:20:17 6.2 C 32 %
442 29-03-2020 01:30:17 6.1 C 32 %
443 29-03-2020 01:40:17 6 C 31 %
444 29-03-2020 01:50:17 6 C 31 %
445 29-03-2020 02:00:17 5.8 C 31 %
446 29-03-2020 02:10:17 5.7 C 31 %
447 29-03-2020 02:20:18 5.4 C 31 %
448 29-03-2020 02:30:18 5 C 31 %
449 29-03-2020 02:40:18 4.7 C 32 %
450 29-03-2020 02:50:18 4.7 C 32 %
Sensor: Nr:Datum:Temp:Feuchte:
Aussen-T/F 451 29-03-2020 04:00:18 4.6 C 31 %
452 29-03-2020 04:10:18 4.2 C 32 %
453 29-03-2020 04:20:17 4.1 C 31 %
454 29-03-2020 04:30:17 4.3 C 31 %
455 29-03-2020 04:40:17 4.4 C 31 %
456 29-03-2020 04:50:18 4.3 C 31 %
457 29-03-2020 05:00:17 4.4 C 32 %
458 29-03-2020 05:10:17 4.3 C 32 %
459 29-03-2020 05:20:17 4.2 C 31 %
460 29-03-2020 05:30:17 4 C 31 %
461 29-03-2020 05:40:17 3.8 C 32 %
462 29-03-2020 05:50:18 3.5 C 32 %
463 29-03-2020 06:00:18 3.1 C 32 %
464 29-03-2020 06:10:18 2.8 C 33 %
465 29-03-2020 06:20:17 2.5 C 33 %
466 29-03-2020 06:30:18 2.9 C 33 %
467 29-03-2020 06:40:18 3.2 C 32 %
468 29-03-2020 06:50:17 3.3 C 33 %
469 29-03-2020 07:00:18 3.4 C 33 %
470 29-03-2020 07:10:18 3.5 C 34 %
471 29-03-2020 07:20:17 3.5 C 35 %
472 29-03-2020 07:30:17 3.6 C 35 %
473 29-03-2020 07:40:17 3.7 C 35 %
474 29-03-2020 07:50:17 3.7 C 35 %
475 29-03-2020 08:00:18 3.8 C 35 %
Sensor: Nr:Datum:Temp:Feuchte:
Aussen-T/F 476 29-03-2020 08:10:18 3.8 C 35 %
477 29-03-2020 08:20:17 4.1 C 33 %
478 29-03-2020 08:30:17 4.1 C 33 %
479 29-03-2020 08:40:17 4.3 C 33 %
480 29-03-2020 08:50:17 4 C 33 %
481 29-03-2020 09:00:17 4.3 C 33 %
482 29-03-2020 09:10:17 4.2 C 32 %
483 29-03-2020 09:20:17 4.1 C 33 %
484 29-03-2020 09:30:17 4.2 C 33 %
485 29-03-2020 09:40:17 4.5 C 32 %
486 29-03-2020 09:50:17 4.8 C 32 %
487 29-03-2020 10:00:17 5 C 31 %
488 29-03-2020 10:10:17 5.3 C 31 %
489 29-03-2020 10:20:17 5.8 C 30 %
490 29-03-2020 10:30:18 5.6 C 30 %
491 29-03-2020 10:40:18 6.2 C 30 %
492 29-03-2020 10:50:17 6.2 C 28 %
493 29-03-2020 11:00:18 6.5 C 25 %
494 29-03-2020 11:10:18 6.5 C 25 %
495 29-03-2020 11:20:18 6 C 25 %
496 29-03-2020 11:30:18 6.1 C 25 %
497 29-03-2020 11:40:18 6.2 C 25 %
498 29-03-2020 11:50:17 6.3 C 25 %
499 29-03-2020 12:00:17 6.2 C 25 %
500 29-03-2020 12:10:17 5.6 C 27 %
Sensor: Nr:Datum:Temp:Feuchte:
Aussen-T/F 501 29-03-2020 12:20:17 5.5 C 27 %
502 29-03-2020 12:30:17 5.7 C 27 %
503 29-03-2020 12:40:17 5.8 C 26 %
504 29-03-2020 12:50:18 6.4 C 26 %
505 29-03-2020 13:00:18 6.3 C 25 %
506 29-03-2020 13:10:18 6.1 C 25 %
507 29-03-2020 13:20:17 6.6 C 23 %
508 29-03-2020 13:30:17 6.8 C 20 %
509 29-03-2020 13:40:18 8.1 C 20 %
510 29-03-2020 13:50:17 8.4 C 20 %
511 29-03-2020 14:00:18 7.6 C 20 %
512 29-03-2020 14:10:18 7.5 C 20 %
513 29-03-2020 14:20:17 7 C 20 %
514 29-03-2020 14:30:17 6.7 C 20 %
515 29-03-2020 14:40:17 6.5 C 20 %
516 29-03-2020 14:50:17 6.7 C 20 %
517 29-03-2020 15:00:17 7.2 C 20 %
518 29-03-2020 15:10:17 7.4 C 20 %
519 29-03-2020 15:20:17 7.4 C 20 %
520 29-03-2020 15:30:18 7.6 C 20 %
521 29-03-2020 15:40:18 7.6 C 20 %
522 29-03-2020 15:50:17 8 C 20 %
523 29-03-2020 16:00:18 7.4 C 20 %
524 29-03-2020 16:10:18 7 C 20 %
525 29-03-2020 16:20:17 6.7 C 20 %
Sensor: Nr:Datum:Temp:Feuchte:
Aussen-T/F 526 29-03-2020 16:30:18 6.5 C 20 %
527 29-03-2020 16:40:18 6.6 C 20 %
528 29-03-2020 16:50:18 6.8 C 20 %
529 29-03-2020 17:00:18 7 C 20 %
530 29-03-2020 17:10:18 6.8 C 20 %
531 29-03-2020 17:20:17 7.4 C 20 %
532 29-03-2020 17:30:17 7 C 20 %
533 29-03-2020 17:40:17 7 C 20 %
534 29-03-2020 17:50:18 6.8 C 25 %
535 29-03-2020 18:00:18 7.1 C 23 %
536 29-03-2020 18:10:18 6.5 C 25 %
537 29-03-2020 18:20:18 6.2 C 25 %
538 29-03-2020 18:30:18 5.3 C 29 %
539 29-03-2020 18:40:18 4.4 C 35 %
540 29-03-2020 18:50:18 4.1 C 36 %
541 29-03-2020 19:00:18 4 C 36 %
542 29-03-2020 19:10:18 3.6 C 39 %
543 29-03-2020 19:20:17 3.6 C 40 %
544 29-03-2020 19:30:17 3.4 C 40 %
545 29-03-2020 19:40:17 3.2 C 41 %
546 29-03-2020 19:50:17 3.1 C 41 %
547 29-03-2020 20:00:17 3 C 41 %
548 29-03-2020 20:10:17 3 C 41 %
549 29-03-2020 20:20:18 2.9 C 42 %
550 29-03-2020 20:30:18 3 C 41 %
Sensor: Nr:Datum:Temp:Feuchte:
Aussen-T/F 551 29-03-2020 20:40:18 3.3 C 40 %
552 29-03-2020 20:50:18 3.5 C 40 %
553 29-03-2020 21:00:18 3.6 C 39 %
554 29-03-2020 21:10:18 3.7 C 39 %
555 29-03-2020 21:20:18 3.7 C 38 %
556 29-03-2020 21:30:17 3.7 C 37 %
557 29-03-2020 21:40:17 3.8 C 37 %
558 29-03-2020 21:50:17 3.8 C 37 %
559 29-03-2020 22:00:17 3.7 C 37 %
560 29-03-2020 22:10:17 3.7 C 36 %
561 29-03-2020 22:20:18 3.7 C 36 %
562 29-03-2020 22:30:18 3.6 C 36 %
563 29-03-2020 22:40:18 3.6 C 36 %
564 29-03-2020 22:50:18 3.6 C 35 %
565 29-03-2020 23:00:18 3.6 C 35 %
566 29-03-2020 23:10:18 3.5 C 35 %
567 29-03-2020 23:20:17 3.4 C 34 %
568 29-03-2020 23:30:17 3.3 C 33 %
569 29-03-2020 23:40:17 3.1 C 33 %
570 29-03-2020 23:50:17 2.9 C 33 %
571 30-03-2020 00:00:18 2.5 C 34 %
572 30-03-2020 00:10:18 2.4 C 33 %
573 30-03-2020 00:20:17 2.4 C 33 %
574 30-03-2020 00:30:17 1.7 C 35 %
575 30-03-2020 00:40:17 1 C 36 %
Sensor: Nr:Datum:Temp:Feuchte:
Aussen-T/F 576 30-03-2020 00:50:17 0.3 C 38 %
577 30-03-2020 01:00:18 0.2 C 38 %
578 30-03-2020 01:10:18 0.3 C 38 %
579 30-03-2020 01:20:17 0.3 C 37 %
580 30-03-2020 01:30:18 0.5 C 36 %
581 30-03-2020 01:40:18 -0.1 C 37 %
582 30-03-2020 01:50:17 -0.3 C 37 %
583 30-03-2020 02:00:17 -0.8 C 38 %
584 30-03-2020 02:10:17 -0.9 C 38 %
585 30-03-2020 02:20:17 -1.5 C 39 %
586 30-03-2020 02:30:18 -1.7 C 39 %
587 30-03-2020 02:40:18 -1.6 C 40 %
588 30-03-2020 02:50:17 -1.6 C 39 %
589 30-03-2020 03:00:18 -1.7 C 39 %
590 30-03-2020 03:10:18 -1.3 C 38 %
591 30-03-2020 03:20:18 -1.7 C 39 %
592 30-03-2020 03:30:18 -2.2 C 40 %
593 30-03-2020 03:40:18 -2.1 C 40 %
594 30-03-2020 03:50:17 -2.1 C 40 %
595 30-03-2020 04:00:18 -1.9 C 39 %
596 30-03-2020 04:10:18 -2.2 C 39 %
597 30-03-2020 04:20:17 -2 C 39 %
598 30-03-2020 04:30:17 -2.4 C 39 %
599 30-03-2020 04:40:17 -2.6 C 39 %
600 30-03-2020 04:50:17 -2.4 C 39 %
Sensor: Nr:Datum:Temp:Feuchte:
Aussen-T/F 601 30-03-2020 05:00:17 -2.4 C 38 %
602 30-03-2020 05:10:17 -2.5 C 38 %
603 30-03-2020 05:20:17 -2.7 C 38 %
604 30-03-2020 05:30:18 -3 C 39 %
605 30-03-2020 05:40:18 -3 C 38 %
606 30-03-2020 05:50:17 -3 C 38 %
607 30-03-2020 06:00:18 -3 C 38 %
608 30-03-2020 06:10:18 -3.4 C 38 %
609 30-03-2020 06:20:17 -3.7 C 39 %
610 30-03-2020 06:30:17 -3.9 C 40 %
611 30-03-2020 06:40:17 -4.1 C 40 %
612 30-03-2020 06:50:17 -3.3 C 39 %
613 30-03-2020 07:00:17 -3.7 C 40 %
614 30-03-2020 07:10:17 -3.2 C 39 %
615 30-03-2020 07:20:17 -3.8 C 39 %
616 30-03-2020 07:30:18 -4.3 C 40 %
617 30-03-2020 07:40:18 -4.5 C 40 %
618 30-03-2020 07:50:17 -4.5 C 40 %
619 30-03-2020 08:00:18 -3.8 C 40 %
620 30-03-2020 08:10:18 -3.9 C 40 %
621 30-03-2020 08:20:18 -4.1 C 40 %
622 30-03-2020 08:30:18 -3.7 C 39 %
623 30-03-2020 08:40:18 -3.3 C 39 %
624 30-03-2020 08:50:17 -3.2 C 38 %
625 30-03-2020 09:00:18 -3.1 C 38 %
Sensor: Nr:Datum:Temp:Feuchte:
Aussen-T/F 626 30-03-2020 09:10:18 -2.7 C 37 %
627 30-03-2020 09:20:18 -2.6 C 37 %
628 30-03-2020 09:30:18 -2.5 C 37 %
629 30-03-2020 09:40:18 -2.1 C 37 %
630 30-03-2020 09:50:18 -2.1 C 37 %
631 30-03-2020 10:00:18 -1.6 C 36 %
632 30-03-2020 10:10:18 -1.7 C 37 %
633 30-03-2020 10:20:17 -1.5 C 37 %
634 30-03-2020 10:30:17 -1.3 C 36 %
635 30-03-2020 10:40:17 0.1 C 31 %
636 30-03-2020 10:50:17 1 C 21 %
637 30-03-2020 11:00:17 1.1 C 23 %
638 30-03-2020 11:10:18 2 C 20 %
639 30-03-2020 11:20:18 2.4 C 20 %
640 30-03-2020 11:30:18 2.8 C 20 %
641 30-03-2020 11:40:18 2.9 C 20 %
642 30-03-2020 11:50:18 3.2 C 20 %
643 30-03-2020 12:00:18 3.7 C 20 %
644 30-03-2020 12:10:18 4 C 20 %
645 30-03-2020 12:20:18 6.4 C 20 %
646 30-03-2020 12:30:18 7.6 C 20 %
647 30-03-2020 12:40:18 6.3 C 20 %
648 30-03-2020 12:50:18 5.1 C 20 %
649 30-03-2020 13:00:18 6.6 C 20 %
650 30-03-2020 13:10:18 6.5 C 20 %
Sensor: Nr:Datum:Temp:Feuchte:
Aussen-T/F 651 30-03-2020 13:20:18 5.6 C 20 %
652 30-03-2020 13:30:17 5.9 C 20 %
653 30-03-2020 13:40:17 7 C 20 %
654 30-03-2020 13:50:17 6.4 C 20 %
655 30-03-2020 14:00:17 7.1 C 20 %
656 30-03-2020 14:10:17 8.4 C 20 %
657 30-03-2020 14:20:18 8.9 C 20 %
658 30-03-2020 14:30:18 9.5 C 20 %
659 30-03-2020 14:40:18 9.7 C 20 %
660 30-03-2020 14:50:18 10.8 C 20 %
661 30-03-2020 15:00:18 11.3 C 20 %
662 30-03-2020 15:10:18 11.7 C 20 %
663 30-03-2020 15:20:17 11.6 C 20 %
664 30-03-2020 15:30:18 13.5 C 20 %
665 30-03-2020 15:40:18 13.6 C 20 %
666 30-03-2020 15:50:18 11.9 C 20 %
667 30-03-2020 16:00:18 12.9 C 20 %
668 30-03-2020 16:10:18 13.6 C 20 %
669 30-03-2020 16:20:17 15.2 C 20 %
670 30-03-2020 16:30:18 9.9 C 20 %
671 30-03-2020 16:40:18 13.9 C 20 %
672 30-03-2020 16:50:18 13.6 C 20 %
673 30-03-2020 17:00:17 10.1 C 20 %
674 30-03-2020 17:10:17 13.4 C 20 %
675 30-03-2020 17:20:18 12.5 C 20 %
Sensor: Nr:Datum:Temp:Feuchte:
Aussen-T/F 676 30-03-2020 17:30:18 12.6 C 20 %
677 30-03-2020 17:40:18 11.6 C 20 %
678 30-03-2020 17:50:18 10.2 C 20 %
679 30-03-2020 18:00:18 8.7 C 20 %
680 30-03-2020 18:10:18 7.6 C 20 %
681 30-03-2020 18:20:18 7.9 C 20 %
682 30-03-2020 18:30:18 8.2 C 20 %
683 30-03-2020 18:40:18 7.7 C 20 %
684 30-03-2020 18:50:18 7.8 C 20 %
685 30-03-2020 19:00:18 7.3 C 20 %
686 30-03-2020 19:10:18 7.1 C 20 %
687 30-03-2020 19:20:17 6.5 C 20 %
688 30-03-2020 19:30:18 6.3 C 20 %
689 30-03-2020 19:40:18 5.8 C 20 %
690 30-03-2020 19:50:17 5 C 20 %
691 30-03-2020 20:00:18 3.8 C 27 %
692 30-03-2020 20:10:18 3 C 30 %
693 30-03-2020 20:20:17 2.8 C 30 %
694 30-03-2020 20:30:18 3.3 C 31 %
695 30-03-2020 20:40:18 3.2 C 30 %
696 30-03-2020 20:50:18 3.3 C 31 %
697 30-03-2020 21:00:18 4 C 29 %
698 30-03-2020 21:10:18 4.1 C 29 %
699 30-03-2020 21:20:18 4.2 C 30 %
700 30-03-2020 21:30:18 4.3 C 30 %
Sensor: Nr:Datum:Temp:Feuchte:
Aussen-T/F 701 30-03-2020 21:40:18 4.2 C 30 %
702 30-03-2020 21:50:18 4.1 C 30 %
703 30-03-2020 22:00:18 3.7 C 32 %
704 30-03-2020 22:10:18 3.7 C 33 %
705 30-03-2020 22:20:17 3.9 C 32 %
706 30-03-2020 22:30:18 4 C 31 %
707 30-03-2020 22:40:18 4.1 C 31 %
708 30-03-2020 22:50:18 4.2 C 31 %
709 30-03-2020 23:00:18 4.1 C 31 %
710 30-03-2020 23:10:18 4.2 C 30 %
711 30-03-2020 23:20:18 4.2 C 31 %
712 30-03-2020 23:30:18 4.1 C 31 %
713 30-03-2020 23:40:18 4.2 C 31 %
714 30-03-2020 23:50:17 4.2 C 31 %
715 31-03-2020 00:00:18 4.3 C 30 %
716 31-03-2020 00:10:18 4.3 C 30 %
717 31-03-2020 00:20:18 4.2 C 31 %
718 31-03-2020 00:30:18 4.2 C 31 %
719 31-03-2020 00:40:18 4.2 C 31 %
720 31-03-2020 00:50:18 4.3 C 31 %
721 31-03-2020 01:00:18 4.4 C 32 %
722 31-03-2020 01:10:18 4 C 34 %
723 31-03-2020 01:20:18 3.8 C 36 %
724 31-03-2020 01:30:18 3.8 C 36 %
725 31-03-2020 01:40:18 3.7 C 37 %
Sensor: Nr:Datum:Temp:Feuchte:
Aussen-T/F 726 31-03-2020 01:50:18 4 C 37 %
727 31-03-2020 02:00:18 3.9 C 38 %
728 31-03-2020 02:10:18 3.4 C 39 %
729 31-03-2020 02:20:17 3.5 C 39 %
730 31-03-2020 02:30:18 3.7 C 39 %
731 31-03-2020 02:40:18 3.3 C 40 %
732 31-03-2020 02:50:18 2.8 C 41 %
733 31-03-2020 03:00:18 2.5 C 41 %
734 31-03-2020 03:10:18 2.2 C 42 %
735 31-03-2020 03:20:17 2.4 C 42 %
736 31-03-2020 03:30:18 2.3 C 42 %
737 31-03-2020 03:40:18 2.3 C 43 %
738 31-03-2020 03:50:18 2.7 C 43 %
739 31-03-2020 04:00:18 2.9 C 42 %
740 31-03-2020 04:10:18 3 C 42 %
741 31-03-2020 04:20:18 3.1 C 42 %
742 31-03-2020 04:30:17 3.2 C 42 %
743 31-03-2020 04:40:18 3.2 C 41 %
744 31-03-2020 04:50:17 3.5 C 41 %
745 31-03-2020 05:00:18 3.4 C 41 %
746 31-03-2020 05:10:18 3 C 41 %
747 31-03-2020 05:20:17 2.8 C 43 %
748 31-03-2020 05:30:18 2.5 C 43 %
749 31-03-2020 05:40:18 2.3 C 43 %
750 31-03-2020 05:50:18 1.9 C 44 %
Sensor: Nr:Datum:Temp:Feuchte:
Aussen-T/F 751 31-03-2020 06:00:18 1.7 C 44 %
752 31-03-2020 06:10:18 1.6 C 45 %
753 31-03-2020 06:20:18 1.5 C 45 %
754 31-03-2020 06:30:18 1.7 C 45 %
755 31-03-2020 06:40:18 2 C 45 %
756 31-03-2020 06:50:18 2.1 C 45 %
757 31-03-2020 07:00:18 2.2 C 45 %
758 31-03-2020 07:10:18 2.3 C 45 %
759 31-03-2020 07:20:18 2.2 C 44 %
760 31-03-2020 07:30:18 2.1 C 44 %
761 31-03-2020 07:40:18 1.7 C 45 %
762 31-03-2020 07:50:17 2 C 45 %
763 31-03-2020 08:00:18 2.5 C 45 %
764 31-03-2020 08:10:18 3.1 C 43 %
765 31-03-2020 08:20:18 3.3 C 42 %
766 31-03-2020 08:30:18 3.5 C 41 %
767 31-03-2020 08:40:18 3.7 C 40 %
768 31-03-2020 08:50:17 4 C 38 %
769 31-03-2020 09:00:18 3.9 C 38 %
770 31-03-2020 09:10:18 3.9 C 37 %
771 31-03-2020 09:20:18 4 C 36 %
772 31-03-2020 09:30:17 4 C 36 %
773 31-03-2020 09:40:17 4.1 C 35 %
774 31-03-2020 09:50:18 4.3 C 35 %
775 31-03-2020 10:00:18 4.8 C 34 %
Sensor: Nr:Datum:Temp:Feuchte:
Aussen-T/F 776 31-03-2020 10:10:18 4.7 C 34 %
777 31-03-2020 10:20:18 4.5 C 34 %
778 31-03-2020 10:30:18 4.4 C 34 %
779 31-03-2020 10:40:18 4.3 C 34 %
780 31-03-2020 10:50:17 4.3 C 33 %
781 31-03-2020 11:00:17 4.3 C 33 %
782 31-03-2020 11:10:17 4.4 C 32 %
783 31-03-2020 11:20:18 4.7 C 31 %
784 31-03-2020 11:30:18 5.4 C 30 %
785 31-03-2020 11:40:18 5.3 C 30 %
786 31-03-2020 11:50:17 5.3 C 29 %
787 31-03-2020 12:00:18 5.6 C 27 %
788 31-03-2020 12:10:18 6.3 C 25 %
789 31-03-2020 12:20:17 6.4 C 20 %
790 31-03-2020 12:30:18 9.2 C 20 %
791 31-03-2020 12:40:18 8.4 C 20 %
792 31-03-2020 12:50:18 7 C 20 %
793 31-03-2020 13:00:17 7.5 C 20 %
794 31-03-2020 13:10:17 7.1 C 20 %
795 31-03-2020 13:20:17 7.3 C 20 %
796 31-03-2020 13:30:17 7 C 20 %
797 31-03-2020 13:40:17 8.1 C 20 %
798 31-03-2020 13:51:17 8.4 C 20 %
799 31-03-2020 14:00:17 8.5 C 20 %
800 31-03-2020 14:10:17 9.7 C 20 %
Sensor: Nr:Datum:Temp:Feuchte:
Aussen-T/F 801 31-03-2020 14:20:17 11.2 C 20 %
802 31-03-2020 14:30:17 12.6 C 20 %
803 31-03-2020 14:40:17 11.7 C 20 %
804 31-03-2020 14:51:17 12 C 20 %
805 31-03-2020 15:00:17 12 C 20 %
806 31-03-2020 15:10:18 13.1 C 20 %
807 31-03-2020 15:20:17 13.2 C 20 %
808 31-03-2020 15:30:17 13.5 C 20 %
809 31-03-2020 15:40:17 14.6 C 20 %
810 31-03-2020 15:50:18 13.9 C 20 %
811 31-03-2020 16:00:17 16.8 C 20 %
812 31-03-2020 16:10:17 14.8 C 20 %
813 31-03-2020 16:20:17 15.8 C 20 %
814 31-03-2020 16:31:17 15.1 C 20 %
815 31-03-2020 16:40:17 14 C 20 %
816 31-03-2020 16:50:17 13.3 C 20 %
817 31-03-2020 17:00:17 14.4 C 20 %
818 31-03-2020 17:10:17 16.2 C 20 %
819 31-03-2020 17:21:17 15.3 C 20 %
820 31-03-2020 17:31:17 14.7 C 20 %
821 31-03-2020 17:40:17 15.5 C 20 %
822 31-03-2020 17:51:17 10.6 C 20 %
823 31-03-2020 18:01:17 10.5 C 20 %
824 31-03-2020 18:11:17 10.2 C 20 %
825 31-03-2020 18:21:17 9.8 C 20 %
Sensor: Nr:Datum:Temp:Feuchte:
Aussen-T/F 826 31-03-2020 18:31:17 9.6 C 20 %
827 31-03-2020 18:40:17 9.4 C 20 %
828 31-03-2020 18:51:17 9.1 C 20 %
829 31-03-2020 19:00:17 9.1 C 20 %
830 31-03-2020 19:10:17 8.8 C 20 %
831 31-03-2020 19:20:17 8.7 C 20 %
832 31-03-2020 19:31:17 8.2 C 20 %
833 31-03-2020 19:41:17 7.7 C 20 %
834 31-03-2020 19:50:17 6.6 C 20 %
835 31-03-2020 20:01:17 5.6 C 20 %
836 31-03-2020 20:11:17 5.5 C 20 %
837 31-03-2020 20:21:17 5.3 C 20 %
838 31-03-2020 20:31:17 4.7 C 20 %
839 31-03-2020 20:41:17 4.4 C 20 %
840 31-03-2020 20:51:17 4 C 20 %
841 31-03-2020 21:00:17 3.7 C 20 %
842 31-03-2020 21:10:18 3.9 C 20 %
843 31-03-2020 21:21:17 3.7 C 20 %
844 31-03-2020 21:31:17 3.5 C 20 %
845 31-03-2020 21:41:17 3.2 C 23 %
846 31-03-2020 21:51:17 3.2 C 23 %
847 31-03-2020 22:00:18 3 C 23 %
848 31-03-2020 22:10:18 2.7 C 25 %
849 31-03-2020 22:21:17 2.7 C 25 %
850 31-03-2020 22:31:17 2.6 C 25 %
Sensor: Nr:Datum:Temp:Feuchte:
Aussen-T/F 851 31-03-2020 22:41:17 1.8 C 30 %
852 31-03-2020 22:50:18 1.6 C 30 %
853 31-03-2020 23:01:17 1.6 C 30 %
854 31-03-2020 23:11:17 1.7 C 30 %
855 31-03-2020 23:21:17 1.4 C 31 %
856 31-03-2020 23:30:17 1.3 C 31 %
857 31-03-2020 23:40:18 1.6 C 31 %
858 31-03-2020 23:51:17 0.9 C 32 %
859 01-04-2020 00:01:17 1.2 C 31 %
860 01-04-2020 00:11:17 0 C 35 %
861 01-04-2020 00:21:17 0.8 C 33 %
862 01-04-2020 00:31:17 0.6 C 32 %
863 01-04-2020 00:41:17 0.5 C 33 %
864 01-04-2020 00:51:17 -0.3 C 35 %
865 01-04-2020 01:01:17 -0.1 C 36 %
866 01-04-2020 01:11:17 -0.3 C 35 %
867 01-04-2020 01:21:17 -1 C 37 %
868 01-04-2020 01:30:18 -1.4 C 38 %
869 01-04-2020 01:40:18 -1.7 C 38 %
870 01-04-2020 01:51:17 -1.9 C 38 %
871 01-04-2020 02:01:17 -1.9 C 38 %
872 01-04-2020 02:11:17 -2 C 38 %
873 01-04-2020 02:21:17 -2.1 C 38 %
874 01-04-2020 02:31:17 -2.3 C 39 %
875 01-04-2020 02:41:17 -2.4 C 38 %
Sensor: Nr:Datum:Temp:Feuchte:
Aussen-T/F 876 01-04-2020 02:50:18 -2.4 C 39 %
877 01-04-2020 03:01:17 -2.5 C 38 %
878 01-04-2020 03:11:17 -2.6 C 38 %
879 01-04-2020 03:21:17 -2.8 C 39 %
880 01-04-2020 03:31:17 -2.7 C 38 %
881 01-04-2020 03:41:18 -3 C 38 %
882 01-04-2020 03:51:17 -3 C 39 %
883 01-04-2020 04:01:17 -2.8 C 39 %
884 01-04-2020 04:11:17 -3.1 C 38 %
885 01-04-2020 04:21:17 -3.2 C 39 %
886 01-04-2020 04:31:18 -3.5 C 38 %
887 01-04-2020 04:41:19 -3.4 C 39 %
888 01-04-2020 04:51:17 -3.5 C 39 %
889 01-04-2020 05:01:18 -3.6 C 39 %
890 01-04-2020 05:11:19 -3.8 C 40 %
891 01-04-2020 05:21:17 -3.8 C 40 %
892 01-04-2020 05:31:18 -3.8 C 40 %
893 01-04-2020 05:41:18 -4 C 40 %
894 01-04-2020 05:51:17 -4.2 C 40 %
895 01-04-2020 06:01:18 -4.2 C 40 %
896 01-04-2020 06:11:18 -4 C 40 %
897 01-04-2020 06:21:17 -4.2 C 40 %
898 01-04-2020 06:31:17 -4.2 C 41 %
899 01-04-2020 06:41:17 -4.3 C 41 %
900 01-04-2020 06:51:17 -4.5 C 41 %
Sensor: Nr:Datum:Temp:Feuchte:
Aussen-T/F 901 01-04-2020 07:01:18 -4.6 C 41 %
902 01-04-2020 07:11:19 -4.7 C 41 %
903 01-04-2020 07:21:17 -4.5 C 41 %
904 01-04-2020 07:31:18 -4.4 C 41 %
905 01-04-2020 07:41:18 -4.5 C 41 %
906 01-04-2020 07:51:17 -4.3 C 41 %
907 01-04-2020 08:01:17 -4.2 C 41 %
908 01-04-2020 08:11:17 -4.2 C 41 %
909 01-04-2020 08:21:17 -3.7 C 41 %
910 01-04-2020 08:31:17 -3.8 C 41 %
911 01-04-2020 08:41:17 -3.7 C 41 %
912 01-04-2020 08:51:17 -3.4 C 40 %
913 01-04-2020 09:01:17 -3.4 C 40 %
914 01-04-2020 09:11:17 -2.7 C 40 %
915 01-04-2020 09:21:17 -2.6 C 40 %
916 01-04-2020 09:31:17 -2.5 C 40 %
917 01-04-2020 09:41:17 -2.1 C 40 %
918 01-04-2020 09:51:17 -1.5 C 39 %
919 01-04-2020 10:01:17 -1 C 39 %
920 01-04-2020 10:11:17 -0.9 C 40 %
921 01-04-2020 10:21:17 -0.4 C 40 %
922 01-04-2020 10:31:18 0.5 C 39 %
923 01-04-2020 10:41:18 1 C 37 %
924 01-04-2020 10:51:17 1.6 C 36 %
925 01-04-2020 11:01:17 2.4 C 35 %
Sensor: Nr:Datum:Temp:Feuchte:
Aussen-T/F 926 01-04-2020 11:11:17 3.2 C 33 %
927 01-04-2020 11:21:17 4.2 C 29 %
928 01-04-2020 11:31:17 4.8 C 20 %
929 01-04-2020 11:41:17 5.3 C 20 %
930 01-04-2020 11:51:17 6 C 20 %
931 01-04-2020 12:01:17 6.6 C 20 %
932 01-04-2020 12:11:18 7.1 C 20 %
933 01-04-2020 12:21:17 8.9 C 20 %
934 01-04-2020 12:31:17 10.3 C 20 %
935 01-04-2020 12:41:17 9.2 C 20 %
936 01-04-2020 12:51:17 8 C 20 %
937 01-04-2020 13:01:17 9.3 C 20 %
938 01-04-2020 13:11:17 9.3 C 20 %
939 01-04-2020 13:21:16 8.6 C 20 %
940 01-04-2020 13:31:17 9.2 C 20 %
941 01-04-2020 13:41:17 9.6 C 20 %
942 01-04-2020 13:51:17 10 C 20 %
943 01-04-2020 14:01:17 10.3 C 20 %
944 01-04-2020 14:11:17 10.7 C 20 %
945 01-04-2020 14:21:17 13.2 C 20 %
946 01-04-2020 14:31:16 15.9 C 20 %
947 01-04-2020 14:41:16 16.3 C 20 %
948 01-04-2020 14:51:17 13.7 C 20 %
949 01-04-2020 15:01:17 14.2 C 20 %
950 01-04-2020 15:11:17 17.2 C 20 %
Sensor: Nr:Datum:Temp:Feuchte:
Aussen-T/F 951 01-04-2020 15:21:17 16.8 C 20 %
952 01-04-2020 15:31:16 16.3 C 20 %
953 01-04-2020 15:41:16 18.2 C 20 %
954 01-04-2020 15:51:17 19.5 C 20 %
955 01-04-2020 16:01:16 18.7 C 20 %
956 01-04-2020 16:11:16 18.7 C 20 %
957 01-04-2020 16:21:16 19.7 C 20 %
958 01-04-2020 16:31:17 21.3 C 20 %
959 01-04-2020 16:41:17 15.5 C 20 %
960 01-04-2020 16:51:16 18.4 C 20 %
961 01-04-2020 17:01:16 17.2 C 20 %
962 01-04-2020 17:11:16 17.4 C 20 %
963 01-04-2020 17:21:17 17.7 C 20 %
964 01-04-2020 17:31:17 18.5 C 20 %
965 01-04-2020 17:41:17 16.8 C 20 %
966 01-04-2020 17:51:17 15.8 C 20 %
967 01-04-2020 18:01:17 12.6 C 20 %
968 01-04-2020 18:11:17 12 C 20 %
969 01-04-2020 18:21:16 12.1 C 20 %
970 01-04-2020 18:31:17 11.7 C 20 %
971 01-04-2020 18:41:17 11.8 C 20 %
972 01-04-2020 18:51:16 11.6 C 20 %
973 01-04-2020 19:01:17 11 C 20 %
974 01-04-2020 19:11:17 10.7 C 20 %
975 01-04-2020 19:21:17 10.4 C 20 %
Sensor: Nr:Datum:Temp:Feuchte:
Aussen-T/F 976 01-04-2020 19:31:17 9.9 C 20 %
977 01-04-2020 19:41:17 9.6 C 20 %
978 01-04-2020 19:51:16 8.9 C 20 %
979 01-04-2020 20:01:17 8.1 C 20 %
980 01-04-2020 20:11:17 7.8 C 20 %
981 01-04-2020 20:21:16 8.1 C 20 %
982 01-04-2020 20:31:16 7.1 C 20 %
983 01-04-2020 20:41:16 6.2 C 20 %
984 01-04-2020 20:51:16 5.9 C 20 %
985 01-04-2020 21:01:16 6 C 20 %
986 01-04-2020 21:11:16 6 C 20 %
987 01-04-2020 21:21:16 5.7 C 20 %
988 01-04-2020 21:31:16 5.7 C 20 %
989 01-04-2020 21:41:16 5.4 C 20 %
990 01-04-2020 21:51:16 4 C 21 %
991 01-04-2020 22:01:16 4.2 C 21 %
992 01-04-2020 22:11:16 3.7 C 26 %
993 01-04-2020 22:21:16 3.2 C 26 %
994 01-04-2020 22:31:16 2.5 C 29 %
995 01-04-2020 22:41:16 2.6 C 28 %
996 01-04-2020 22:51:16 2 C 30 %
997 01-04-2020 23:01:17 1.7 C 33 %
998 01-04-2020 23:11:17 1.7 C 32 %
999 01-04-2020 23:21:16 1.4 C 34 %
1000 01-04-2020 23:31:16 1.2 C 34 %
Sensor: Nr:Datum:Temp:Feuchte:
Aussen-T/F 1001 01-04-2020 23:41:16 1 C 35 %
1002 01-04-2020 23:51:16 1.1 C 34 %
1003 02-04-2020 00:01:17 1 C 35 %
1004 02-04-2020 00:11:17 0.4 C 36 %
1005 02-04-2020 00:21:16 0.4 C 36 %
1006 02-04-2020 00:31:17 0.2 C 36 %
1007 02-04-2020 00:41:17 0.3 C 37 %
1008 02-04-2020 00:51:16 0.3 C 36 %
1009 02-04-2020 01:01:17 0 C 37 %
1010 02-04-2020 01:11:17 -0.4 C 38 %
1011 02-04-2020 01:21:16 -0.6 C 38 %
1012 02-04-2020 01:31:17 -0.7 C 38 %
1013 02-04-2020 01:41:17 -0.7 C 38 %
1014 02-04-2020 01:51:16 -0.9 C 39 %
1015 02-04-2020 02:01:16 -1 C 39 %
1016 02-04-2020 02:11:16 -1 C 39 %
1017 02-04-2020 02:21:16 -1.2 C 39 %
1018 02-04-2020 02:31:17 -1.3 C 40 %
1019 02-04-2020 02:41:17 -1.6 C 40 %
1020 02-04-2020 02:51:17 -1.5 C 40 %
1021 02-04-2020 03:01:17 -1.5 C 40 %
1022 02-04-2020 03:11:17 -1.5 C 40 %
1023 02-04-2020 03:21:17 -1.3 C 40 %
1024 02-04-2020 03:31:17 -1.4 C 40 %
1025 02-04-2020 03:41:17 -1.6 C 40 %
Sensor: Nr:Datum:Temp:Feuchte:
Aussen-T/F 1026 02-04-2020 03:51:18 -1.7 C 40 %
1027 02-04-2020 04:01:18 -2.1 C 40 %
1028 02-04-2020 04:11:18 -1.7 C 41 %
1029 02-04-2020 04:21:18 -1.6 C 40 %
1030 02-04-2020 04:31:17 -2 C 40 %
1031 02-04-2020 04:41:17 -2.4 C 41 %
1032 02-04-2020 04:51:17 -2.7 C 41 %
1033 02-04-2020 05:01:18 -2.6 C 41 %
1034 02-04-2020 05:11:18 -2.6 C 41 %
1035 02-04-2020 05:21:17 -2.6 C 41 %
1036 02-04-2020 05:31:18 -2.7 C 41 %
1037 02-04-2020 05:41:18 -2.6 C 41 %
1038 02-04-2020 05:51:17 -2.5 C 41 %
1039 02-04-2020 06:01:17 -2.6 C 41 %
1040 02-04-2020 06:11:17 -3 C 41 %
1041 02-04-2020 06:21:17 -3 C 42 %
1042 02-04-2020 06:31:17 -2.6 C 43 %
1043 02-04-2020 06:41:17 -3.1 C 42 %
1044 02-04-2020 06:51:17 -2.9 C 42 %
1045 02-04-2020 07:01:17 -3.3 C 42 %
1046 02-04-2020 07:11:17 -3 C 42 %
1047 02-04-2020 07:21:17 -3.1 C 42 %
1048 02-04-2020 07:31:17 -3 C 43 %
1049 02-04-2020 07:41:18 -2.9 C 42 %
1050 02-04-2020 07:51:17 -3 C 43 %
Sensor: Nr:Datum:Temp:Feuchte:
Aussen-T/F 1051 02-04-2020 08:01:17 -2.7 C 43 %
1052 02-04-2020 08:11:18 -2.5 C 43 %
1053 02-04-2020 08:21:17 -2.2 C 42 %
1054 02-04-2020 08:31:17 -2.2 C 42 %
1055 02-04-2020 08:41:17 -2 C 42 %
1056 02-04-2020 08:51:17 -1.8 C 42 %
1057 02-04-2020 09:01:17 -1.7 C 42 %
1058 02-04-2020 09:11:17 -1.5 C 41 %
1059 02-04-2020 09:21:17 -1.3 C 41 %
1060 02-04-2020 09:31:17 -1 C 41 %
1061 02-04-2020 09:41:17 -0.6 C 41 %
1062 02-04-2020 09:51:18 -0.3 C 41 %
1063 02-04-2020 10:01:18 0.1 C 41 %
1064 02-04-2020 10:11:18 0.6 C 41 %
1065 02-04-2020 10:21:17 0.8 C 41 %
1066 02-04-2020 10:31:17 1.7 C 40 %
1067 02-04-2020 10:41:17 2.2 C 39 %
1068 02-04-2020 10:51:17 3.1 C 37 %
1069 02-04-2020 11:01:17 3.6 C 37 %
1070 02-04-2020 11:11:17 4.6 C 35 %
1071 02-04-2020 11:21:17 5.7 C 30 %
1072 02-04-2020 11:31:18 6.5 C 30 %
1073 02-04-2020 11:41:18 6.9 C 29 %
1074 02-04-2020 11:51:17 7.4 C 27 %
1075 02-04-2020 12:01:17 8.1 C 27 %
Sensor: Nr:Datum:Temp:Feuchte:
Aussen-T/F 1076 02-04-2020 12:11:17 8.5 C 25 %
1077 02-04-2020 12:21:17 10.5 C 20 %
1078 02-04-2020 12:31:18 12.2 C 20 %
1079 02-04-2020 12:41:18 10.8 C 20 %
1080 02-04-2020 12:51:17 10.3 C 20 %
1081 02-04-2020 13:01:17 11 C 20 %
1082 02-04-2020 13:11:18 11.5 C 20 %
1083 02-04-2020 13:21:17 11.6 C 20 %
1084 02-04-2020 13:31:17 11.4 C 20 %
1085 02-04-2020 13:41:17 12.3 C 20 %
1086 02-04-2020 13:51:17 12.5 C 20 %
1087 02-04-2020 14:01:17 11.8 C 20 %
1088 02-04-2020 14:11:17 12.6 C 20 %
1089 02-04-2020 14:21:17 15.5 C 20 %
1090 02-04-2020 14:31:18 18.1 C 20 %
1091 02-04-2020 14:41:18 18.3 C 20 %
1092 02-04-2020 14:51:17 18.3 C 20 %
1093 02-04-2020 15:01:18 19.7 C 20 %
1094 02-04-2020 15:11:18 17.5 C 20 %
1095 02-04-2020 15:21:17 19.2 C 20 %
1096 02-04-2020 15:31:18 19.8 C 20 %
1097 02-04-2020 15:41:18 19.3 C 20 %
1098 02-04-2020 15:51:17 19.4 C 20 %
1099 02-04-2020 16:01:17 21.3 C 20 %
1100 02-04-2020 16:11:17 19.9 C 20 %
Sensor: Nr:Datum:Temp:Feuchte:
Aussen-T/F 1101 02-04-2020 16:21:17 16.6 C 20 %
1102 02-04-2020 16:31:18 18 C 20 %
1103 02-04-2020 16:41:18 17.6 C 20 %
1104 02-04-2020 16:51:17 17.8 C 20 %
1105 02-04-2020 17:01:17 17.3 C 20 %
1106 02-04-2020 17:11:17 16.6 C 20 %
1107 02-04-2020 17:21:17 15.8 C 20 %
1108 02-04-2020 17:31:18 15.5 C 20 %
1109 02-04-2020 17:41:18 14.7 C 20 %
1110 02-04-2020 17:51:17 14.8 C 20 %
1111 02-04-2020 18:01:17 12.8 C 20 %
1112 02-04-2020 18:11:17 12.2 C 20 %
1113 02-04-2020 18:21:17 12.3 C 20 %
1114 02-04-2020 18:31:17 11.8 C 20 %
1115 02-04-2020 18:41:17 11.3 C 20 %
1116 02-04-2020 18:51:17 11.1 C 20 %
1117 02-04-2020 19:01:17 10.7 C 20 %
1118 02-04-2020 19:11:17 10.2 C 20 %
1119 02-04-2020 19:21:17 10 C 20 %
1120 02-04-2020 19:31:17 9.6 C 20 %
1121 02-04-2020 19:41:17 9.5 C 20 %
1122 02-04-2020 19:51:17 8.7 C 20 %
1123 02-04-2020 20:01:17 8.5 C 20 %
1124 02-04-2020 20:11:17 8.5 C 20 %
1125 02-04-2020 20:21:17 7.9 C 20 %
Sensor: Nr:Datum:Temp:Feuchte:
Aussen-T/F 1126 02-04-2020 20:31:17 7.8 C 20 %
1127 02-04-2020 20:41:17 7.2 C 21 %
1128 02-04-2020 20:51:17 6.9 C 25 %
1129 02-04-2020 21:01:17 6.4 C 26 %
1130 02-04-2020 21:11:17 6.3 C 27 %
1131 02-04-2020 21:21:17 5.9 C 28 %
1132 02-04-2020 21:31:18 5.7 C 29 %
1133 02-04-2020 21:41:18 5.6 C 30 %
1134 02-04-2020 21:51:17 5.3 C 30 %
1135 02-04-2020 22:01:17 5.2 C 30 %
1136 02-04-2020 22:11:17 5.5 C 30 %
1137 02-04-2020 22:21:17 5 C 30 %
1138 02-04-2020 22:31:18 5.3 C 31 %
1139 02-04-2020 22:41:18 5.2 C 31 %
1140 02-04-2020 22:51:17 5.1 C 31 %
1141 02-04-2020 23:01:17 4.8 C 32 %
1142 02-04-2020 23:11:17 5 C 31 %
1143 02-04-2020 23:21:17 5 C 31 %
1144 02-04-2020 23:31:18 4.7 C 33 %
1145 02-04-2020 23:41:18 3.9 C 35 %
1146 02-04-2020 23:51:17 3.1 C 36 %
1147 03-04-2020 00:01:18 2.7 C 38 %
1148 03-04-2020 00:11:18 2.3 C 39 %
1149 03-04-2020 00:21:17 2.6 C 40 %
1150 03-04-2020 00:31:17 2.6 C 39 %
Sensor: Nr:Datum:Temp:Feuchte:
Aussen-T/F 1151 03-04-2020 00:41:17 3.2 C 38 %
1152 03-04-2020 00:51:17 2.4 C 39 %
1153 03-04-2020 01:01:18 2.4 C 39 %
1154 03-04-2020 01:11:18 2.4 C 39 %
1155 03-04-2020 01:21:17 2.6 C 39 %
1156 03-04-2020 01:31:18 2.7 C 39 %
1157 03-04-2020 01:41:18 2.5 C 39 %
1158 03-04-2020 01:51:17 2.3 C 39 %
1159 03-04-2020 02:01:18 2.2 C 39 %
1160 03-04-2020 02:11:18 2.3 C 39 %
1161 03-04-2020 02:21:18 3.1 C 38 %
1162 03-04-2020 02:31:18 3.2 C 38 %
1163 03-04-2020 02:41:18 2.6 C 39 %
1164 03-04-2020 02:51:17 2.8 C 39 %
1165 03-04-2020 03:01:18 3 C 38 %
1166 03-04-2020 03:11:18 3.6 C 38 %
1167 03-04-2020 03:21:17 3.9 C 38 %
1168 03-04-2020 03:31:17 4.4 C 36 %
1169 03-04-2020 03:41:17 4.7 C 36 %
1170 03-04-2020 03:51:17 4.6 C 36 %
1171 03-04-2020 04:01:17 5 C 35 %
1172 03-04-2020 04:11:17 5.6 C 35 %
1173 03-04-2020 04:21:17 4.9 C 35 %
1174 03-04-2020 04:31:18 4.7 C 36 %
1175 03-04-2020 04:41:18 4.6 C 36 %
Sensor: Nr:Datum:Temp:Feuchte:
Aussen-T/F 1176 03-04-2020 04:51:18 4.4 C 36 %
1177 03-04-2020 05:01:18 4.3 C 36 %
1178 03-04-2020 05:11:18 4.5 C 36 %
1179 03-04-2020 05:21:17 4.8 C 36 %
1180 03-04-2020 05:31:17 4.8 C 36 %
1181 03-04-2020 05:41:17 5.2 C 35 %
1182 03-04-2020 05:51:17 5.3 C 35 %
1183 03-04-2020 06:01:18 5.4 C 35 %
1184 03-04-2020 06:11:18 5.4 C 35 %
1185 03-04-2020 06:21:17 5.1 C 35 %
1186 03-04-2020 06:31:17 5.1 C 36 %
1187 03-04-2020 06:41:17 5.1 C 35 %
1188 03-04-2020 06:51:17 5.2 C 35 %
1189 03-04-2020 07:01:17 5.7 C 35 %
1190 03-04-2020 07:11:17 5.6 C 35 %
1191 03-04-2020 07:21:18 5.5 C 35 %
1192 03-04-2020 07:31:17 5.7 C 35 %
1193 03-04-2020 07:41:17 5.6 C 35 %
1194 03-04-2020 07:51:17 5.6 C 35 %
1195 03-04-2020 08:01:17 5.7 C 35 %
1196 03-04-2020 08:11:17 5.9 C 35 %
1197 03-04-2020 08:21:18 5.9 C 35 %
1198 03-04-2020 08:31:17 5.9 C 35 %
1199 03-04-2020 08:41:17 6.1 C 35 %
1200 03-04-2020 08:51:18 6.6 C 35 %
Sensor: Nr:Datum:Temp:Feuchte:
Aussen-T/F 1201 03-04-2020 09:01:17 7 C 34 %
1202 03-04-2020 09:11:17 7.1 C 34 %
1203 03-04-2020 09:21:18 7.6 C 34 %
1204 03-04-2020 09:31:18 7.7 C 34 %
1205 03-04-2020 09:41:18 8 C 33 %
1206 03-04-2020 09:51:17 8.4 C 33 %
1207 03-04-2020 10:01:18 8.6 C 32 %
1208 03-04-2020 10:11:18 8.6 C 32 %
1209 03-04-2020 10:21:17 9 C 32 %
1210 03-04-2020 10:31:18 9.4 C 32 %
1211 03-04-2020 10:41:18 9.2 C 32 %
1212 03-04-2020 10:51:17 9.6 C 32 %
1213 03-04-2020 11:01:17 10.6 C 31 %
1214 03-04-2020 11:11:17 11.2 C 29 %
1215 03-04-2020 11:21:17 10.9 C 29 %
1216 03-04-2020 11:31:17 11.1 C 28 %
1217 03-04-2020 11:41:17 11.5 C 26 %
1218 03-04-2020 11:51:17 11.4 C 26 %
1219 03-04-2020 12:01:17 11.1 C 26 %
1220 03-04-2020 12:11:17 11.2 C 26 %
1221 03-04-2020 12:21:17 11.4 C 26 %
1222 03-04-2020 12:31:17 11.6 C 25 %
1223 03-04-2020 12:41:18 11.1 C 25 %
1224 03-04-2020 12:51:17 11.1 C 25 %
1225 03-04-2020 13:01:18 11.2 C 25 %
Sensor: Nr:Datum:Temp:Feuchte:
Aussen-T/F 1226 03-04-2020 13:11:18 11.7 C 25 %
1227 03-04-2020 13:21:17 12.2 C 22 %
1228 03-04-2020 13:31:17 11.8 C 22 %
1229 03-04-2020 13:41:17 11.8 C 23 %
1230 03-04-2020 13:51:17 12.2 C 22 %
1231 03-04-2020 14:01:18 12.3 C 20 %
1232 03-04-2020 14:11:18 11.6 C 21 %
1233 03-04-2020 14:21:17 11.7 C 21 %
1234 03-04-2020 14:31:17 11.6 C 21 %
1235 03-04-2020 14:41:18 11.4 C 23 %
1236 03-04-2020 14:51:17 11.7 C 21 %
1237 03-04-2020 15:01:17 11.8 C 20 %
1238 03-04-2020 15:11:17 11.7 C 20 %
1239 03-04-2020 15:21:18 11.8 C 20 %
1240 03-04-2020 15:31:17 12.1 C 20 %
1241 03-04-2020 15:41:17 12.5 C 20 %
1242 03-04-2020 15:51:17 13.1 C 20 %
1243 03-04-2020 16:01:17 12.6 C 20 %
1244 03-04-2020 16:11:17 12.4 C 20 %
1245 03-04-2020 16:21:17 12.4 C 20 %
1246 03-04-2020 16:31:17 12.3 C 20 %
1247 03-04-2020 16:41:17 12.4 C 20 %
1248 03-04-2020 16:51:17 12.4 C 20 %
1249 03-04-2020 17:01:17 12.2 C 20 %
1250 03-04-2020 17:11:17 12.2 C 20 %
Sensor: Nr:Datum:Temp:Feuchte:
Aussen-T/F 1251 03-04-2020 17:21:17 12.2 C 20 %
1252 03-04-2020 17:31:17 12.2 C 20 %
1253 03-04-2020 17:41:17 12.4 C 20 %
1254 03-04-2020 17:51:17 11.9 C 20 %
1255 03-04-2020 18:01:17 11.5 C 20 %
1256 03-04-2020 18:11:17 11.7 C 20 %
1257 03-04-2020 18:21:17 11.5 C 20 %
1258 03-04-2020 18:31:18 11.4 C 20 %
1259 03-04-2020 18:41:18 11 C 20 %
1260 03-04-2020 18:51:17 11 C 20 %
1261 03-04-2020 19:01:18 10.8 C 20 %
1262 03-04-2020 19:11:18 10.7 C 20 %
1263 03-04-2020 19:21:17 10.5 C 20 %
1264 03-04-2020 19:31:17 10.2 C 20 %
1265 03-04-2020 19:41:17 10.3 C 20 %
1266 03-04-2020 19:51:17 9.9 C 20 %
1267 03-04-2020 20:01:17 9.8 C 20 %
1268 03-04-2020 20:11:17 9.5 C 20 %
1269 03-04-2020 20:21:17 9.1 C 20 %
1270 03-04-2020 20:31:18 9.5 C 20 %
1271 03-04-2020 20:41:18 9.2 C 20 %
1272 03-04-2020 20:51:18 9.1 C 20 %
1273 03-04-2020 21:01:17 9.2 C 20 %
1274 03-04-2020 21:11:17 9.1 C 20 %
1275 03-04-2020 21:21:17 8.9 C 20 %
Sensor: Nr:Datum:Temp:Feuchte:
Aussen-T/F 1276 03-04-2020 21:31:17 8.7 C 20 %
1277 03-04-2020 21:41:17 8.6 C 20 %
1278 03-04-2020 21:51:17 8.3 C 20 %
1279 03-04-2020 22:01:17 8.1 C 20 %
1280 03-04-2020 22:11:17 7.9 C 20 %
1281 03-04-2020 22:21:17 7.2 C 23 %
1282 03-04-2020 22:31:18 6.8 C 25 %
1283 03-04-2020 22:41:18 6.5 C 26 %
1284 03-04-2020 22:51:17 6.3 C 26 %
1285 03-04-2020 23:01:17 6.4 C 26 %
1286 03-04-2020 23:11:18 6.4 C 25 %
1287 03-04-2020 23:21:18 6.2 C 26 %
1288 03-04-2020 23:31:17 5.2 C 28 %
1289 03-04-2020 23:41:18 5 C 29 %
1290 03-04-2020 23:51:17 4.7 C 30 %
1291 04-04-2020 00:01:17 4.8 C 30 %
1292 04-04-2020 00:11:18 4.8 C 30 %
1293 04-04-2020 00:21:17 4.7 C 30 %
1294 04-04-2020 00:31:17 5.2 C 28 %
1295 04-04-2020 00:41:17 4.5 C 29 %
1296 04-04-2020 00:51:17 4 C 30 %
1297 04-04-2020 01:01:17 4.6 C 30 %
1298 04-04-2020 01:11:17 4.3 C 30 %
1299 04-04-2020 01:21:18 3.9 C 31 %
1300 04-04-2020 01:31:17 4 C 32 %
Sensor: Nr:Datum:Temp:Feuchte:
Aussen-T/F 1301 04-04-2020 01:41:17 3.1 C 35 %
1302 04-04-2020 01:51:17 2.2 C 37 %
1303 04-04-2020 02:01:18 1.7 C 39 %
1304 04-04-2020 02:11:18 1.4 C 40 %
1305 04-04-2020 02:21:17 1.2 C 40 %
1306 04-04-2020 02:31:17 0.9 C 41 %
1307 04-04-2020 02:41:17 0.8 C 41 %
1308 04-04-2020 02:51:17 0.8 C 42 %
1309 04-04-2020 03:01:18 0.6 C 42 %
1310 04-04-2020 03:11:18 0.4 C 42 %
1311 04-04-2020 03:21:17 0.3 C 43 %
1312 04-04-2020 03:31:18 0.6 C 43 %
1313 04-04-2020 03:41:18 0.5 C 42 %
1314 04-04-2020 03:51:17 -0.1 C 43 %
1315 04-04-2020 04:01:17 -0.4 C 43 %
1316 04-04-2020 04:11:17 -0.6 C 43 %
1317 04-04-2020 04:21:17 -0.7 C 44 %
1318 04-04-2020 04:31:17 -0.6 C 44 %
1319 04-04-2020 04:41:17 -0.9 C 44 %
1320 04-04-2020 04:51:17 -0.9 C 45 %
1321 04-04-2020 05:01:18 -0.9 C 45 %
1322 04-04-2020 05:11:18 -1.2 C 45 %
1323 04-04-2020 05:21:18 -1.2 C 45 %
1324 04-04-2020 05:31:17 -1 C 45 %
1325 04-04-2020 05:41:17 -1.2 C 45 %
Sensor: Nr:Datum:Temp:Feuchte:
Aussen-T/F 1326 04-04-2020 05:51:17 -1.2 C 45 %
1327 04-04-2020 06:01:18 -1.5 C 45 %
1328 04-04-2020 06:11:18 -1.5 C 45 %
1329 04-04-2020 06:21:17 -1.5 C 45 %
1330 04-04-2020 06:31:17 -1.8 C 45 %
1331 04-04-2020 06:41:17 -1.4 C 46 %
1332 04-04-2020 06:51:17 -1.5 C 45 %
1333 04-04-2020 07:01:18 -1.6 C 45 %
1334 04-04-2020 07:11:18 -1.8 C 45 %
1335 04-04-2020 07:21:17 -1.5 C 46 %
1336 04-04-2020 07:31:18 -1.8 C 45 %
1337 04-04-2020 07:41:18 -1.7 C 46 %
1338 04-04-2020 07:51:17 -1.8 C 45 %
1339 04-04-2020 08:01:17 -1.8 C 46 %
1340 04-04-2020 08:11:18 -1.7 C 46 %
1341 04-04-2020 08:21:17 -1.5 C 46 %
1342 04-04-2020 08:31:17 -1.1 C 46 %
1343 04-04-2020 08:41:18 -1 C 46 %
1344 04-04-2020 08:51:17 -0.7 C 45 %
1345 04-04-2020 09:01:17 -0.3 C 45 %
1346 04-04-2020 09:11:17 0 C 45 %
1347 04-04-2020 09:21:17 -0.2 C 45 %
1348 04-04-2020 09:31:18 0.2 C 45 %
1349 04-04-2020 09:41:18 0.8 C 44 %
1350 04-04-2020 09:51:17 1.1 C 43 %
Sensor: Nr:Datum:Temp:Feuchte:
Aussen-T/F 1351 04-04-2020 10:01:17 1.5 C 43 %
1352 04-04-2020 10:11:18 1.8 C 43 %
1353 04-04-2020 10:21:17 2.2 C 41 %
1354 04-04-2020 10:31:17 2.9 C 41 %
1355 04-04-2020 10:41:17 3.5 C 40 %
1356 04-04-2020 10:51:17 4.5 C 37 %
1357 04-04-2020 11:01:17 5.3 C 36 %
1358 04-04-2020 11:11:17 6.4 C 35 %
1359 04-04-2020 11:21:18 7.1 C 32 %
1360 04-04-2020 11:31:18 7.9 C 32 %
1361 04-04-2020 11:41:18 8.4 C 29 %
1362 04-04-2020 11:51:18 8.7 C 29 %
1363 04-04-2020 12:01:18 9.7 C 26 %
1364 04-04-2020 12:11:18 9.7 C 26 %
1365 04-04-2020 12:21:17 10.6 C 22 %
1366 04-04-2020 12:31:17 10.9 C 20 %
1367 04-04-2020 12:41:17 11.4 C 20 %
1368 04-04-2020 12:51:17 10.8 C 20 %
1369 04-04-2020 13:01:17 11.1 C 20 %
1370 04-04-2020 13:11:17 12.1 C 20 %
1371 04-04-2020 13:21:17 11.6 C 20 %
1372 04-04-2020 13:31:17 11.4 C 20 %
1373 04-04-2020 13:41:17 12.2 C 20 %
1374 04-04-2020 13:51:18 12.5 C 20 %
1375 04-04-2020 14:01:17 12.1 C 20 %
Sensor: Nr:Datum:Temp:Feuchte:
Aussen-T/F 1376 04-04-2020 14:11:17 13.7 C 20 %
1377 04-04-2020 14:21:17 14.6 C 20 %
1378 04-04-2020 14:31:17 16.6 C 20 %
1379 04-04-2020 14:41:17 17 C 20 %
1380 04-04-2020 14:51:17 16.3 C 20 %
1381 04-04-2020 15:01:18 18.1 C 20 %
1382 04-04-2020 15:11:18 18.9 C 20 %
1383 04-04-2020 15:21:17 16.9 C 20 %
1384 04-04-2020 15:31:17 19.1 C 20 %
1385 04-04-2020 15:41:17 19.8 C 20 %
1386 04-04-2020 15:51:17 17.4 C 20 %
1387 04-04-2020 16:01:17 19.9 C 20 %
1388 04-04-2020 16:11:17 19.3 C 20 %
1389 04-04-2020 16:21:17 18.7 C 20 %
1390 04-04-2020 16:31:17 19.3 C 20 %
1391 04-04-2020 16:41:17 20.5 C 20 %
1392 04-04-2020 16:51:17 20.4 C 20 %
1393 04-04-2020 17:01:17 20.3 C 20 %
1394 04-04-2020 17:11:17 20.1 C 20 %
1395 04-04-2020 17:21:17 20.5 C 20 %
1396 04-04-2020 17:31:17 19.2 C 20 %
1397 04-04-2020 17:41:17 18.7 C 20 %
1398 04-04-2020 17:51:18 17.8 C 20 %
1399 04-04-2020 18:01:17 16.8 C 20 %
1400 04-04-2020 18:11:17 16.2 C 20 %
Sensor: Nr:Datum:Temp:Feuchte:
Aussen-T/F 1401 04-04-2020 18:21:17 15.4 C 20 %
1402 04-04-2020 18:31:17 15.4 C 20 %
1403 04-04-2020 18:41:17 15.6 C 20 %
1404 04-04-2020 18:51:17 15.1 C 20 %
1405 04-04-2020 19:01:17 14.9 C 20 %
1406 04-04-2020 19:11:17 14.4 C 20 %
1407 04-04-2020 19:21:17 14 C 20 %
1408 04-04-2020 19:31:17 13.9 C 20 %
1409 04-04-2020 19:41:17 12.6 C 20 %
1410 04-04-2020 19:51:17 11.5 C 20 %
1411 04-04-2020 20:01:17 11.3 C 20 %
1412 04-04-2020 20:11:17 10.7 C 20 %
1413 04-04-2020 20:21:17 10.3 C 21 %
1414 04-04-2020 20:31:17 9.8 C 25 %
1415 04-04-2020 20:41:17 9.5 C 23 %
1416 04-04-2020 20:51:17 9.2 C 25 %
1417 04-04-2020 21:01:17 9.2 C 21 %
1418 04-04-2020 21:11:17 8.7 C 25 %
1419 04-04-2020 21:21:17 8.8 C 25 %
1420 04-04-2020 21:31:17 8.5 C 25 %
1421 04-04-2020 21:41:17 8.2 C 25 %
1422 04-04-2020 21:51:17 7.1 C 28 %
1423 04-04-2020 22:01:18 5.8 C 31 %
1424 04-04-2020 22:11:18 5.5 C 32 %
1425 04-04-2020 22:21:18 5.1 C 32 %
Sensor: Nr:Datum:Temp:Feuchte:
Aussen-T/F 1426 04-04-2020 22:31:17 4.8 C 35 %
1427 04-04-2020 22:41:17 4.7 C 34 %
1428 04-04-2020 22:51:17 4.6 C 34 %
1429 04-04-2020 23:01:17 4.4 C 34 %
1430 04-04-2020 23:11:17 4.1 C 34 %
1431 04-04-2020 23:21:17 3.9 C 35 %
1432 04-04-2020 23:31:17 3.6 C 36 %
1433 04-04-2020 23:41:17 3.5 C 36 %
1434 04-04-2020 23:51:17 3.4 C 37 %
1435 05-04-2020 00:01:17 3 C 37 %
1436 05-04-2020 00:11:17 2.9 C 38 %
1437 05-04-2020 00:21:17 2.8 C 39 %
1438 05-04-2020 00:31:17 2.5 C 39 %
1439 05-04-2020 00:41:17 2.5 C 40 %
1440 05-04-2020 00:51:18 2.4 C 40 %
1441 05-04-2020 01:01:18 2.3 C 40 %
1442 05-04-2020 01:11:18 2.3 C 40 %
1443 05-04-2020 01:21:17 2.2 C 40 %
1444 05-04-2020 01:31:18 2.1 C 41 %
1445 05-04-2020 01:41:18 1.9 C 42 %
1446 05-04-2020 01:51:17 1.8 C 42 %
1447 05-04-2020 02:01:18 1.6 C 42 %
1448 05-04-2020 02:11:18 1.3 C 42 %
1449 05-04-2020 02:21:17 1.4 C 43 %
1450 05-04-2020 02:31:18 1.4 C 43 %
Sensor: Nr:Datum:Temp:Feuchte:
Aussen-T/F 1451 05-04-2020 02:41:18 1.1 C 43 %
1452 05-04-2020 02:51:17 1.1 C 43 %
1453 05-04-2020 03:01:18 1.3 C 43 %
1454 05-04-2020 03:11:18 1.1 C 43 %
1455 05-04-2020 03:21:17 1 C 43 %
1456 05-04-2020 03:31:17 0.7 C 45 %
1457 05-04-2020 03:41:17 0.5 C 45 %
1458 05-04-2020 03:51:17 0.7 C 45 %
1459 05-04-2020 04:01:17 0.6 C 45 %
1460 05-04-2020 04:11:17 0.4 C 45 %
1461 05-04-2020 04:21:17 0.4 C 46 %
1462 05-04-2020 04:31:17 0.2 C 46 %
1463 05-04-2020 04:41:17 0.2 C 46 %
1464 05-04-2020 04:51:17 0.2 C 46 %
1465 05-04-2020 05:01:17 0 C 46 %
1466 05-04-2020 05:11:17 -0.3 C 46 %
1467 05-04-2020 05:21:17 -0.2 C 47 %
1468 05-04-2020 05:31:17 -0.3 C 46 %
1469 05-04-2020 05:41:17 -0.4 C 47 %
1470 05-04-2020 05:51:17 -0.5 C 47 %
1471 05-04-2020 06:01:17 -0.4 C 47 %
1472 05-04-2020 06:11:17 -0.5 C 47 %
1473 05-04-2020 06:21:17 -0.6 C 47 %
1474 05-04-2020 06:31:18 -0.8 C 48 %
1475 05-04-2020 06:41:18 -0.8 C 47 %
Sensor: Nr:Datum:Temp:Feuchte:
Aussen-T/F 1476 05-04-2020 06:51:17 -0.8 C 47 %
1477 05-04-2020 07:01:18 -0.9 C 47 %
1478 05-04-2020 07:11:18 -0.7 C 48 %
1479 05-04-2020 07:21:18 -0.6 C 48 %
1480 05-04-2020 07:31:17 -0.5 C 48 %
1481 05-04-2020 07:41:17 -0.5 C 48 %
1482 05-04-2020 07:51:17 -0.4 C 48 %
1483 05-04-2020 08:01:17 -0.3 C 48 %
1484 05-04-2020 08:11:17 0 C 49 %
1485 05-04-2020 08:21:17 0.1 C 48 %
1486 05-04-2020 08:31:17 0.4 C 48 %
1487 05-04-2020 08:41:17 0.5 C 49 %
1488 05-04-2020 08:51:18 0.8 C 49 %
1489 05-04-2020 09:01:17 1.1 C 47 %
1490 05-04-2020 09:11:17 1.4 C 47 %
1491 05-04-2020 09:21:17 1.8 C 47 %
1492 05-04-2020 09:31:17 2.4 C 46 %
1493 05-04-2020 09:41:17 2.8 C 46 %
1494 05-04-2020 09:51:18 3.4 C 44 %
1495 05-04-2020 10:01:18 3.9 C 43 %
1496 05-04-2020 10:11:18 4.5 C 41 %
1497 05-04-2020 10:21:17 5.4 C 40 %
1498 05-04-2020 10:31:17 5.9 C 40 %
1499 05-04-2020 10:41:17 7 C 38 %
1500 05-04-2020 10:51:17 7.9 C 37 %
Sensor: Nr:Datum:Temp:Feuchte:
Aussen-T/F 1501 05-04-2020 11:01:17 8.6 C 36 %
1502 05-04-2020 11:11:17 10.7 C 32 %
1503 05-04-2020 11:21:17 11.2 C 30 %
1504 05-04-2020 11:31:17 13.1 C 21 %
1505 05-04-2020 11:41:17 13.9 C 20 %
1506 05-04-2020 11:51:17 14.8 C 20 %
1507 05-04-2020 12:01:17 15.6 C 20 %
1508 05-04-2020 12:11:17 15.9 C 20 %
1509 05-04-2020 12:21:17 16.7 C 20 %
1510 05-04-2020 12:31:18 17.6 C 20 %
1511 05-04-2020 12:41:18 17.4 C 20 %
1512 05-04-2020 12:51:17 17.4 C 20 %
1513 05-04-2020 13:01:17 17.2 C 20 %
1514 05-04-2020 13:11:17 18.4 C 20 %
1515 05-04-2020 13:21:17 17.5 C 20 %
1516 05-04-2020 13:31:17 17.1 C 20 %
1517 05-04-2020 13:41:17 17.9 C 20 %
1518 05-04-2020 13:51:17 17.7 C 20 %
1519 05-04-2020 14:01:17 17.9 C 20 %
1520 05-04-2020 14:11:17 19 C 20 %
1521 05-04-2020 14:21:17 19.8 C 20 %
1522 05-04-2020 14:31:18 21.7 C 20 %
1523 05-04-2020 14:41:18 23.4 C 20 %
1524 05-04-2020 14:51:18 23.3 C 20 %
1525 05-04-2020 15:01:17 24.7 C 20 %
Sensor: Nr:Datum:Temp:Feuchte:
Aussen-T/F 1526 05-04-2020 15:11:18 26.9 C 20 %
1527 05-04-2020 15:21:17 24.5 C 20 %
1528 05-04-2020 15:31:17 24.8 C 20 %
1529 05-04-2020 15:41:17 25.1 C 20 %
1530 05-04-2020 15:51:18 26.6 C 20 %
1531 05-04-2020 16:01:17 25 C 20 %
1532 05-04-2020 16:11:17 23.3 C 20 %
1533 05-04-2020 16:21:17 25.5 C 20 %
1534 05-04-2020 16:31:17 24.8 C 20 %
1535 05-04-2020 16:41:17 23.1 C 20 %
1536 05-04-2020 16:51:17 23.4 C 20 %
1537 05-04-2020 17:01:17 23.5 C 20 %
1538 05-04-2020 17:11:17 26.4 C 20 %
1539 05-04-2020 17:21:17 25.9 C 20 %
1540 05-04-2020 17:31:17 24.4 C 20 %
1541 05-04-2020 17:41:17 24.2 C 20 %
1542 05-04-2020 17:51:17 23.6 C 20 %
1543 05-04-2020 18:01:17 20.8 C 20 %
1544 05-04-2020 18:11:17 19.7 C 20 %
1545 05-04-2020 18:21:17 20 C 20 %
1546 05-04-2020 18:31:17 19.7 C 20 %
1547 05-04-2020 18:41:17 19.4 C 20 %
1548 05-04-2020 18:51:17 18.9 C 20 %
1549 05-04-2020 19:01:17 18.8 C 20 %
1550 05-04-2020 19:11:17 18.4 C 20 %
Sensor: Nr:Datum:Temp:Feuchte:
Aussen-T/F 1551 05-04-2020 19:21:17 18 C 20 %
1552 05-04-2020 19:31:18 17.5 C 20 %
1553 05-04-2020 19:41:18 16.3 C 20 %
1554 05-04-2020 19:51:17 15 C 20 %
1555 05-04-2020 20:01:18 14.3 C 20 %
1556 05-04-2020 20:11:18 14.1 C 20 %
1557 05-04-2020 20:21:17 13.5 C 20 %
1558 05-04-2020 20:31:17 13.3 C 20 %
1559 05-04-2020 20:41:17 13 C 20 %
1560 05-04-2020 20:51:17 12.7 C 20 %
1561 05-04-2020 21:01:18 12.3 C 20 %
1562 05-04-2020 21:11:18 12 C 20 %
1563 05-04-2020 21:21:17 12.1 C 20 %
1564 05-04-2020 21:31:17 11.7 C 20 %
1565 05-04-2020 21:41:17 11.5 C 20 %
1566 05-04-2020 21:51:17 10.3 C 20 %
1567 05-04-2020 22:01:17 10.5 C 20 %
1568 05-04-2020 22:11:17 9.2 C 25 %
1569 05-04-2020 22:21:17 8.9 C 26 %
1570 05-04-2020 22:31:17 8.8 C 26 %
1571 05-04-2020 22:41:17 8.4 C 27 %
1572 05-04-2020 22:51:17 8.2 C 27 %
1573 05-04-2020 23:01:17 8 C 28 %
1574 05-04-2020 23:11:17 7.4 C 30 %
1575 05-04-2020 23:21:17 7.4 C 29 %
Sensor: Nr:Datum:Temp:Feuchte:
Aussen-T/F 1576 05-04-2020 23:31:17 7 C 30 %
1577 05-04-2020 23:41:17 6.7 C 31 %
1578 05-04-2020 23:51:17 6.3 C 31 %
1579 06-04-2020 00:01:17 6.2 C 32 %
1580 06-04-2020 00:11:17 6.3 C 32 %
1581 06-04-2020 00:21:17 6.3 C 32 %
1582 06-04-2020 00:31:18 6 C 32 %
1583 06-04-2020 00:41:18 5.6 C 33 %
1584 06-04-2020 00:51:17 5.6 C 34 %
1585 06-04-2020 01:01:18 5.4 C 35 %
1586 06-04-2020 01:11:18 5.3 C 35 %
1587 06-04-2020 01:21:17 5.1 C 35 %
1588 06-04-2020 01:31:17 4.8 C 36 %
1589 06-04-2020 01:41:17 4.7 C 36 %
1590 06-04-2020 01:51:17 4.6 C 36 %
1591 06-04-2020 02:01:17 4.5 C 37 %
1592 06-04-2020 02:11:17 4.1 C 37 %
1593 06-04-2020 02:21:17 4.2 C 37 %
1594 06-04-2020 02:31:17 4 C 37 %
1595 06-04-2020 02:41:17 4.1 C 37 %
1596 06-04-2020 02:51:17 3.8 C 38 %
1597 06-04-2020 03:01:17 3.9 C 39 %
1598 06-04-2020 03:11:17 3.6 C 39 %
1599 06-04-2020 03:21:17 3.3 C 39 %
1600 06-04-2020 03:31:18 3.3 C 40 %
Sensor: Nr:Datum:Temp:Feuchte:
Aussen-T/F 1601 06-04-2020 03:41:18 3.2 C 40 %
1602 06-04-2020 03:51:17 3.3 C 40 %
1603 06-04-2020 04:01:17 3.2 C 40 %
1604 06-04-2020 04:11:17 3.3 C 40 %
1605 06-04-2020 04:21:17 3.1 C 40 %
1606 06-04-2020 04:31:17 2.8 C 40 %
1607 06-04-2020 04:41:17 2.6 C 41 %
1608 06-04-2020 04:51:17 2.5 C 41 %
1609 06-04-2020 05:01:17 2.4 C 41 %
1610 06-04-2020 05:11:17 2.3 C 41 %
1611 06-04-2020 05:21:18 2.2 C 41 %
1612 06-04-2020 05:31:17 1.9 C 42 %
1613 06-04-2020 05:41:17 1.8 C 43 %
1614 06-04-2020 05:51:17 1.7 C 43 %
1615 06-04-2020 06:01:17 1.6 C 44 %
1616 06-04-2020 06:11:17 1.5 C 44 %
1617 06-04-2020 06:21:18 1.3 C 45 %
1618 06-04-2020 06:31:17 1.2 C 45 %
1619 06-04-2020 06:41:18 1.3 C 45 %
1620 06-04-2020 06:51:17 1.3 C 45 %
1621 06-04-2020 07:01:17 1.4 C 45 %
1622 06-04-2020 07:11:17 1.5 C 45 %
1623 06-04-2020 07:21:17 1.6 C 45 %
1624 06-04-2020 07:31:18 1.5 C 45 %
1625 06-04-2020 07:41:18 1.6 C 45 %
Sensor: Nr:Datum:Temp:Feuchte:
Aussen-T/F 1626 06-04-2020 07:51:17 2 C 45 %
1627 06-04-2020 08:01:17 1.9 C 45 %
1628 06-04-2020 08:11:17 2.2 C 44 %
1629 06-04-2020 08:21:17 2.5 C 44 %
1630 06-04-2020 08:31:17 3 C 42 %
1631 06-04-2020 08:41:17 3.2 C 42 %
1632 06-04-2020 08:51:17 3.4 C 41 %
1633 06-04-2020 09:01:18 3.5 C 41 %
1634 06-04-2020 09:11:18 3.4 C 41 %
1635 06-04-2020 09:21:17 3.9 C 41 %
1636 06-04-2020 09:31:17 4.3 C 40 %
1637 06-04-2020 09:41:17 4.8 C 40 %
1638 06-04-2020 09:51:18 5.2 C 40 %
1639 06-04-2020 10:01:18 6 C 38 %
1640 06-04-2020 10:11:18 6.5 C 37 %
1641 06-04-2020 10:21:17 7.2 C 36 %
1642 06-04-2020 10:31:17 7.9 C 36 %
1643 06-04-2020 10:41:17 8.8 C 35 %
1644 06-04-2020 10:51:17 9.8 C 34 %
1645 06-04-2020 11:01:17 11.1 C 31 %
1646 06-04-2020 11:11:18 12.2 C 29 %
1647 06-04-2020 11:21:17 13.3 C 26 %
1648 06-04-2020 11:31:17 16 C 20 %
1649 06-04-2020 11:41:17 17.1 C 20 %
1650 06-04-2020 11:51:18 17.6 C 20 %
Sensor: Nr:Datum:Temp:Feuchte:
Aussen-T/F 1651 06-04-2020 12:01:18 18.1 C 20 %
1652 06-04-2020 12:11:18 18.6 C 20 %
1653 06-04-2020 12:21:17 20.3 C 20 %
1654 06-04-2020 12:31:17 21 C 20 %
1655 06-04-2020 12:41:17 19.4 C 20 %
1656 06-04-2020 12:51:17 20.2 C 20 %
1657 06-04-2020 13:01:17 20.6 C 20 %
1658 06-04-2020 13:11:17 20.8 C 20 %
1659 06-04-2020 13:21:17 20.4 C 20 %
1660 06-04-2020 13:31:18 20.3 C 20 %
1661 06-04-2020 13:41:18 21.2 C 20 %
1662 06-04-2020 13:51:17 21.3 C 20 %
1663 06-04-2020 14:01:18 22.3 C 20 %
1664 06-04-2020 14:11:18 22.3 C 20 %
1665 06-04-2020 14:21:17 23.7 C 20 %
1666 06-04-2020 14:31:17 26.8 C 20 %
1667 06-04-2020 14:41:17 27.4 C 20 %
1668 06-04-2020 14:51:18 28.3 C 20 %
1669 06-04-2020 15:01:17 28 C 20 %
1670 06-04-2020 15:11:17 26.6 C 20 %
1671 06-04-2020 15:21:17 27.1 C 20 %
1672 06-04-2020 15:31:17 25.8 C 20 %
1673 06-04-2020 15:41:17 26.9 C 20 %
1674 06-04-2020 15:51:17 27.9 C 20 %
1675 06-04-2020 16:01:17 29.7 C 20 %
Sensor: Nr:Datum:Temp:Feuchte:
Aussen-T/F 1676 06-04-2020 16:11:17 27.4 C 20 %
1677 06-04-2020 16:21:18 27.4 C 20 %
1678 06-04-2020 16:31:18 28.3 C 20 %
1679 06-04-2020 16:41:18 28.5 C 20 %
1680 06-04-2020 16:51:17 27.1 C 20 %
1681 06-04-2020 17:01:17 27.6 C 20 %
1682 06-04-2020 17:11:17 26 C 20 %
1683 06-04-2020 17:21:17 26.7 C 20 %
1684 06-04-2020 17:31:17 25.7 C 20 %
1685 06-04-2020 17:41:17 25.5 C 20 %
1686 06-04-2020 17:51:17 24.2 C 20 %
1687 06-04-2020 18:01:17 23.3 C 20 %
1688 06-04-2020 18:11:17 23.1 C 20 %
1689 06-04-2020 18:21:17 22.6 C 20 %
1690 06-04-2020 18:31:18 22.6 C 20 %
1691 06-04-2020 18:41:18 22.3 C 20 %
1692 06-04-2020 18:51:17 22 C 20 %
1693 06-04-2020 19:01:17 21.7 C 20 %
1694 06-04-2020 19:11:17 21.1 C 20 %
1695 06-04-2020 19:21:17 20.5 C 20 %
1696 06-04-2020 19:31:17 20.2 C 20 %
1697 06-04-2020 19:41:17 19.1 C 20 %
1698 06-04-2020 19:51:17 18.3 C 20 %
1699 06-04-2020 20:01:18 16.4 C 20 %
1700 06-04-2020 20:11:18 16.3 C 20 %
Sensor: Nr:Datum:Temp:Feuchte:
Aussen-T/F 1701 06-04-2020 20:21:17 15.8 C 20 %
1702 06-04-2020 20:31:17 15.3 C 20 %
1703 06-04-2020 20:41:18 15.1 C 20 %
1704 06-04-2020 20:51:17 13.7 C 20 %
1705 06-04-2020 21:01:18 13.2 C 20 %
1706 06-04-2020 21:11:18 12.9 C 20 %
1707 06-04-2020 21:21:17 12 C 20 %
1708 06-04-2020 21:31:18 11.8 C 22 %
1709 06-04-2020 21:41:18 11.6 C 22 %
1710 06-04-2020 21:51:17 11.1 C 22 %
1711 06-04-2020 22:01:17 10.8 C 25 %
1712 06-04-2020 22:11:17 10.6 C 25 %
1713 06-04-2020 22:21:17 10.2 C 25 %
1714 06-04-2020 22:31:17 10 C 26 %
1715 06-04-2020 22:41:17 10 C 26 %
1716 06-04-2020 22:51:17 9.9 C 26 %
1717 06-04-2020 23:01:18 9.8 C 26 %
1718 06-04-2020 23:11:18 9.6 C 26 %
1719 06-04-2020 23:21:17 9.5 C 27 %
1720 06-04-2020 23:31:17 9.4 C 27 %
1721 06-04-2020 23:41:17 9.2 C 27 %
1722 06-04-2020 23:51:17 9.5 C 29 %
1723 07-04-2020 00:01:17 10.2 C 26 %
1724 07-04-2020 00:11:17 9.1 C 29 %
1725 07-04-2020 00:21:18 8.7 C 30 %
Sensor: Nr:Datum:Temp:Feuchte:
Aussen-T/F 1726 07-04-2020 00:31:17 8.8 C 30 %
1727 07-04-2020 00:41:17 9 C 30 %
1728 07-04-2020 00:51:17 8.6 C 30 %
1729 07-04-2020 01:01:17 8.7 C 30 %
1730 07-04-2020 01:11:17 9.1 C 30 %
1731 07-04-2020 01:21:17 9.4 C 30 %
1732 07-04-2020 01:31:17 9.8 C 30 %
1733 07-04-2020 01:41:17 10.1 C 30 %
1734 07-04-2020 01:51:18 10 C 29 %
1735 07-04-2020 02:01:18 9.2 C 30 %
1736 07-04-2020 02:11:18 8.8 C 31 %
1737 07-04-2020 02:21:17 8.2 C 33 %
1738 07-04-2020 02:31:17 7.9 C 34 %
1739 07-04-2020 02:41:17 7.5 C 34 %
1740 07-04-2020 02:51:17 7.2 C 35 %
1741 07-04-2020 03:01:17 7.3 C 35 %
1742 07-04-2020 03:11:17 7.6 C 35 %
1743 07-04-2020 03:21:17 7.9 C 35 %
1744 07-04-2020 03:31:17 8 C 35 %
1745 07-04-2020 03:41:17 7.7 C 36 %
1746 07-04-2020 03:51:17 7.8 C 35 %
1747 07-04-2020 04:01:17 7.8 C 36 %
1748 07-04-2020 04:11:17 7.6 C 36 %
1749 07-04-2020 04:21:17 7.4 C 36 %
1750 07-04-2020 04:31:17 7.2 C 36 %
Sensor: Nr:Datum:Temp:Feuchte:
Aussen-T/F 1751 07-04-2020 04:41:18 6.9 C 37 %
1752 07-04-2020 04:51:17 6.8 C 37 %
1753 07-04-2020 05:01:17 6.3 C 38 %
1754 07-04-2020 05:11:17 6.1 C 38 %
1755 07-04-2020 05:21:18 5.9 C 40 %
1756 07-04-2020 05:31:17 5.8 C 40 %
1757 07-04-2020 05:41:17 5.7 C 40 %
1758 07-04-2020 05:51:17 5.6 C 41 %
1759 07-04-2020 06:01:17 5.6 C 41 %
1760 07-04-2020 06:11:17 5.2 C 40 %
1761 07-04-2020 06:21:17 5.3 C 41 %
1762 07-04-2020 06:31:17 5.2 C 41 %
1763 07-04-2020 06:41:17 5 C 41 %
1764 07-04-2020 06:51:17 4.8 C 42 %
1765 07-04-2020 07:01:18 4.8 C 43 %
1766 07-04-2020 07:11:18 4.7 C 43 %
1767 07-04-2020 07:21:18 4.8 C 44 %
1768 07-04-2020 07:31:17 5 C 43 %
1769 07-04-2020 07:41:18 5.7 C 43 %
1770 07-04-2020 07:51:17 5.8 C 42 %
1771 07-04-2020 08:01:17 5.7 C 41 %
1772 07-04-2020 08:11:18 5.8 C 41 %
1773 07-04-2020 08:21:17 6 C 41 %
1774 07-04-2020 08:31:17 6 C 41 %
1775 07-04-2020 08:41:17 6.3 C 41 %
Sensor: Nr:Datum:Temp:Feuchte:
Aussen-T/F 1776 07-04-2020 08:51:17 6.6 C 41 %
1777 07-04-2020 09:01:17 7.1 C 40 %
1778 07-04-2020 09:11:17 7.3 C 40 %
1779 07-04-2020 09:21:17 7.5 C 40 %
1780 07-04-2020 09:31:17 8 C 39 %
1781 07-04-2020 09:41:18 8.9 C 39 %
1782 07-04-2020 09:51:17 9.3 C 37 %
1783 07-04-2020 10:01:17 9.4 C 38 %
1784 07-04-2020 10:11:18 10 C 37 %
1785 07-04-2020 10:21:17 10.7 C 37 %
1786 07-04-2020 10:31:18 11.4 C 36 %
1787 07-04-2020 10:41:18 12.3 C 35 %
1788 07-04-2020 10:51:17 13.1 C 33 %
1789 07-04-2020 11:01:17 14 C 31 %
1790 07-04-2020 11:11:17 14.6 C 31 %
1791 07-04-2020 11:21:17 15.2 C 30 %
1792 07-04-2020 11:31:17 16 C 28 %
1793 07-04-2020 11:41:17 16.5 C 27 %
1794 07-04-2020 11:51:17 16.9 C 27 %
1795 07-04-2020 12:01:17 17.2 C 26 %
1796 07-04-2020 12:11:17 17.7 C 25 %
1797 07-04-2020 12:21:18 18.7 C 23 %
1798 07-04-2020 12:31:17 20.9 C 21 %
1799 07-04-2020 12:41:17 19.6 C 20 %
1800 07-04-2020 12:51:18 19.6 C 20 %
Sensor: Nr:Datum:Temp:Feuchte:
Aussen-T/F 1801 07-04-2020 13:01:17 20.7 C 20 %
1802 07-04-2020 13:11:17 21.3 C 20 %
1803 07-04-2020 13:21:17 20.8 C 20 %
1804 07-04-2020 13:31:17 19.8 C 20 %
1805 07-04-2020 13:41:17 20.4 C 20 %
1806 07-04-2020 13:51:18 20.6 C 20 %
1807 07-04-2020 14:01:17 21.1 C 20 %
1808 07-04-2020 14:11:17 22 C 20 %
1809 07-04-2020 14:21:17 23.6 C 20 %
1810 07-04-2020 14:31:17 26.2 C 20 %
1811 07-04-2020 14:41:17 22.9 C 20 %
1812 07-04-2020 14:51:17 26.7 C 20 %
1813 07-04-2020 15:01:17 26.4 C 20 %
1814 07-04-2020 15:11:17 27.1 C 20 %
1815 07-04-2020 15:21:17 30.1 C 20 %
1816 07-04-2020 15:31:17 28.4 C 20 %
1817 07-04-2020 15:41:18 27.2 C 20 %
1818 07-04-2020 15:51:17 26.6 C 20 %
1819 07-04-2020 16:01:17 27.4 C 20 %
1820 07-04-2020 16:11:17 25.1 C 20 %
1821 07-04-2020 16:21:17 27.8 C 20 %
1822 07-04-2020 16:31:17 23.9 C 20 %
1823 07-04-2020 16:41:18 24.3 C 20 %
1824 07-04-2020 16:51:18 29.2 C 20 %
1825 07-04-2020 17:01:17 31 C 20 %
Sensor: Nr:Datum:Temp:Feuchte:
Aussen-T/F 1826 07-04-2020 17:11:17 25 C 20 %
1827 07-04-2020 17:21:17 24.2 C 20 %
1828 07-04-2020 17:31:18 24.2 C 20 %
1829 07-04-2020 17:41:18 26.9 C 20 %
1830 07-04-2020 17:51:18 24.6 C 20 %
1831 07-04-2020 18:01:17 23.7 C 20 %
1832 07-04-2020 18:11:17 23.7 C 20 %
1833 07-04-2020 18:21:17 22.9 C 20 %
1834 07-04-2020 18:31:17 22.7 C 20 %
1835 07-04-2020 18:41:17 22.3 C 20 %
1836 07-04-2020 18:51:17 22 C 20 %
1837 07-04-2020 19:01:17 21.8 C 20 %
1838 07-04-2020 19:11:18 21 C 20 %
1839 07-04-2020 19:21:17 20 C 20 %
1840 07-04-2020 19:31:17 19.1 C 20 %
1841 07-04-2020 19:41:17 18.4 C 20 %
1842 07-04-2020 19:51:17 18.3 C 20 %
1843 07-04-2020 20:01:18 17.6 C 20 %
1844 07-04-2020 20:11:18 17.3 C 20 %
1845 07-04-2020 20:21:17 17.1 C 20 %
1846 07-04-2020 20:31:17 16.8 C 20 %
1847 07-04-2020 20:41:17 16.5 C 20 %
1848 07-04-2020 20:51:17 16.3 C 20 %
1849 07-04-2020 21:01:17 16.1 C 20 %
1850 07-04-2020 21:11:17 15.9 C 20 %
Sensor: Nr:Datum:Temp:Feuchte:
Aussen-T/F 1851 07-04-2020 21:21:18 15.8 C 20 %
1852 07-04-2020 21:31:17 15.4 C 21 %
1853 07-04-2020 21:41:17 15.2 C 21 %
1854 07-04-2020 21:51:17 15.1 C 22 %
1855 07-04-2020 22:01:18 14.6 C 25 %
1856 07-04-2020 22:11:18 13.1 C 27 %
1857 07-04-2020 22:21:17 12.9 C 29 %
1858 07-04-2020 22:31:17 12.7 C 30 %
1859 07-04-2020 22:41:17 12.7 C 30 %
1860 07-04-2020 22:51:18 12.7 C 30 %
1861 07-04-2020 23:01:18 12.7 C 30 %
1862 07-04-2020 23:11:18 12.6 C 30 %
1863 07-04-2020 23:21:17 13.1 C 29 %
1864 07-04-2020 23:31:17 12.8 C 30 %
1865 07-04-2020 23:41:17 12.8 C 30 %
1866 07-04-2020 23:51:17 12.3 C 31 %
1867 08-04-2020 00:01:17 11.7 C 33 %
1868 08-04-2020 00:11:17 11.7 C 33 %
1869 08-04-2020 00:21:17 11.5 C 33 %
1870 08-04-2020 00:31:17 11.5 C 33 %
1871 08-04-2020 00:41:17 11.2 C 34 %
1872 08-04-2020 00:51:18 10.8 C 35 %
1873 08-04-2020 01:01:17 10.8 C 36 %
1874 08-04-2020 01:11:17 10.9 C 35 %
1875 08-04-2020 01:21:17 10.4 C 36 %
Sensor: Nr:Datum:Temp:Feuchte:
Aussen-T/F 1876 08-04-2020 01:31:18 10.2 C 36 %
1877 08-04-2020 01:41:18 9.9 C 37 %
1878 08-04-2020 01:51:17 9.6 C 38 %
1879 08-04-2020 02:01:18 9.2 C 38 %
1880 08-04-2020 02:11:18 8.7 C 39 %
1881 08-04-2020 02:21:17 8.5 C 40 %
1882 08-04-2020 02:31:17 8.2 C 40 %
1883 08-04-2020 02:41:18 8 C 40 %
1884 08-04-2020 02:51:17 7.7 C 41 %
1885 08-04-2020 03:01:18 7.4 C 41 %
1886 08-04-2020 03:11:18 7.1 C 41 %
1887 08-04-2020 03:21:17 7.1 C 42 %
1888 08-04-2020 03:31:17 7.1 C 42 %
1889 08-04-2020 03:41:17 6.8 C 43 %
1890 08-04-2020 03:51:17 6.7 C 43 %
1891 08-04-2020 04:01:17 6.6 C 44 %
1892 08-04-2020 04:11:18 6.7 C 44 %
1893 08-04-2020 04:21:17 6.3 C 44 %
1894 08-04-2020 04:31:17 6.3 C 45 %
1895 08-04-2020 04:41:17 6.4 C 45 %
1896 08-04-2020 04:51:17 6.3 C 45 %
1897 08-04-2020 05:01:18 6.1 C 44 %
1898 08-04-2020 05:11:18 5.9 C 45 %
1899 08-04-2020 05:21:17 5.6 C 45 %
1900 08-04-2020 05:31:17 5.4 C 45 %
Sensor: Nr:Datum:Temp:Feuchte:
Aussen-T/F 1901 08-04-2020 05:41:18 5.4 C 45 %
1902 08-04-2020 05:51:17 5.4 C 46 %
1903 08-04-2020 06:01:17 5.3 C 46 %
1904 08-04-2020 06:11:17 5.4 C 46 %
1905 08-04-2020 06:21:17 5.3 C 46 %
1906 08-04-2020 06:31:17 5.3 C 46 %
1907 08-04-2020 06:41:17 5.1 C 46 %
1908 08-04-2020 06:51:18 5 C 46 %
1909 08-04-2020 07:01:18 5 C 46 %
1910 08-04-2020 07:11:18 5.1 C 46 %
1911 08-04-2020 07:21:17 5.2 C 46 %
1912 08-04-2020 07:31:17 5.3 C 46 %
1913 08-04-2020 07:41:17 5.4 C 46 %
1914 08-04-2020 07:51:17 5.8 C 46 %
1915 08-04-2020 08:01:17 5.7 C 46 %
1916 08-04-2020 08:11:17 6 C 46 %
1917 08-04-2020 08:21:17 6.3 C 46 %
1918 08-04-2020 08:31:18 6.3 C 46 %
1919 08-04-2020 08:41:18 6.5 C 46 %
1920 08-04-2020 08:51:18 6.7 C 46 %
1921 08-04-2020 09:01:18 7 C 45 %
1922 08-04-2020 09:11:18 7.1 C 45 %
1923 08-04-2020 09:21:17 7.6 C 45 %
1924 08-04-2020 09:31:17 7.9 C 45 %
1925 08-04-2020 09:41:17 8.3 C 45 %
Sensor: Nr:Datum:Temp:Feuchte:
Aussen-T/F 1926 08-04-2020 09:51:17 8.7 C 44 %
1927 08-04-2020 10:01:17 9.1 C 43 %
1928 08-04-2020 10:11:17 9.7 C 43 %
1929 08-04-2020 10:21:17 10.2 C 41 %
1930 08-04-2020 10:31:18 11 C 40 %
1931 08-04-2020 10:41:18 11.8 C 39 %
1932 08-04-2020 10:51:18 12.6 C 38 %
1933 08-04-2020 11:01:18 13.7 C 36 %
1934 08-04-2020 11:11:18 14.5 C 35 %
1935 08-04-2020 11:21:17 15.5 C 34 %
1936 08-04-2020 11:31:18 16.2 C 32 %
1937 08-04-2020 11:41:18 17.6 C 27 %
1938 08-04-2020 11:51:17 18.6 C 25 %
1939 08-04-2020 12:01:18 19.2 C 22 %
1940 08-04-2020 12:11:18 20.1 C 21 %
1941 08-04-2020 12:21:17 21.2 C 20 %
1942 08-04-2020 12:31:17 22.4 C 20 %
1943 08-04-2020 12:41:17 22.9 C 20 %
1944 08-04-2020 12:51:17 21.8 C 20 %
1945 08-04-2020 13:01:18 22.9 C 20 %
1946 08-04-2020 13:11:18 22.4 C 20 %
1947 08-04-2020 13:21:17 22.1 C 20 %
1948 08-04-2020 13:31:18 22.3 C 20 %
1949 08-04-2020 13:41:18 23.3 C 20 %
1950 08-04-2020 13:51:17 22.6 C 20 %
Sensor: Nr:Datum:Temp:Feuchte:
Aussen-T/F 1951 08-04-2020 14:01:18 23 C 20 %
1952 08-04-2020 14:11:18 23.7 C 20 %
1953 08-04-2020 14:21:17 24.8 C 20 %
1954 08-04-2020 14:31:18 28.3 C 20 %
1955 08-04-2020 14:41:18 28.9 C 20 %
1956 08-04-2020 14:51:17 28.7 C 20 %
1957 08-04-2020 15:01:17 28.7 C 20 %
1958 08-04-2020 15:11:17 30.1 C 20 %
1959 08-04-2020 15:21:18 29.3 C 20 %
1960 08-04-2020 15:31:17 29.5 C 20 %
1961 08-04-2020 15:41:17 29.1 C 20 %
1962 08-04-2020 15:51:17 32.2 C 20 %
1963 08-04-2020 16:01:17 31.1 C 20 %
1964 08-04-2020 16:11:17 29.7 C 20 %
1965 08-04-2020 16:21:18 30.7 C 20 %
1966 08-04-2020 16:31:17 29 C 20 %
1967 08-04-2020 16:41:17 32.6 C 20 %
1968 08-04-2020 16:51:17 29.7 C 20 %
1969 08-04-2020 17:01:17 29.4 C 20 %
1970 08-04-2020 17:11:17 29.7 C 20 %
1971 08-04-2020 17:21:17 30.1 C 20 %
1972 08-04-2020 17:31:17 30.1 C 20 %
1973 08-04-2020 17:41:17 29 C 20 %
1974 08-04-2020 17:51:17 28.1 C 20 %
1975 08-04-2020 18:01:17 26.6 C 20 %
Sensor: Nr:Datum:Temp:Feuchte:
Aussen-T/F 1976 08-04-2020 18:11:17 25.2 C 20 %
1977 08-04-2020 18:21:17 24.7 C 20 %
1978 08-04-2020 18:31:18 24.3 C 20 %
1979 08-04-2020 18:41:18 24.1 C 20 %
1980 08-04-2020 18:51:17 23.8 C 20 %
1981 08-04-2020 19:01:17 23.2 C 20 %
1982 08-04-2020 19:11:17 22.6 C 20 %
1983 08-04-2020 19:21:17 21.4 C 20 %
1984 08-04-2020 19:31:17 20.1 C 20 %
1985 08-04-2020 19:41:17 19.7 C 20 %
1986 08-04-2020 19:51:17 19.2 C 20 %
1987 08-04-2020 20:01:17 18.5 C 20 %
1988 08-04-2020 20:11:17 18 C 20 %
1989 08-04-2020 20:21:18 17.5 C 20 %
1990 08-04-2020 20:31:17 17 C 20 %
1991 08-04-2020 20:41:18 16.2 C 20 %
1992 08-04-2020 20:51:17 15.6 C 20 %
1993 08-04-2020 21:01:18 14.6 C 20 %
1994 08-04-2020 21:11:18 13.9 C 20 %
1995 08-04-2020 21:21:17 14.2 C 20 %
1996 08-04-2020 21:31:17 13.7 C 20 %
1997 08-04-2020 21:41:17 13.5 C 20 %
1998 08-04-2020 21:51:17 13.4 C 20 %
1999 08-04-2020 22:01:17 12.9 C 21 %
2000 08-04-2020 22:11:18 12.7 C 21 %
Sensor: Nr:Datum:Temp:Feuchte:
Aussen-T/F 2001 08-04-2020 22:21:17 12.5 C 24 %
2002 08-04-2020 22:31:17 12.2 C 25 %
2003 08-04-2020 22:41:17 11.8 C 26 %
2004 08-04-2020 22:51:18 11.6 C 26 %
2005 08-04-2020 23:01:17 12 C 25 %
2006 08-04-2020 23:11:17 11.5 C 26 %
2007 08-04-2020 23:21:17 10.9 C 28 %
2008 08-04-2020 23:31:17 10.5 C 29 %
2009 08-04-2020 23:41:17 10.7 C 28 %
2010 08-04-2020 23:51:17 11.2 C 28 %
2011 09-04-2020 00:01:18 10.7 C 29 %
2012 09-04-2020 00:11:18 10.7 C 29 %
2013 09-04-2020 00:21:17 10.3 C 30 %
2014 09-04-2020 00:31:18 10 C 30 %
2015 09-04-2020 00:41:18 10.5 C 30 %
2016 09-04-2020 00:51:17 10.5 C 30 %
2017 09-04-2020 01:01:17 10 C 30 %
2018 09-04-2020 01:11:17 9.6 C 31 %
2019 09-04-2020 01:21:17 9.2 C 32 %
2020 09-04-2020 01:31:17 9.9 C 33 %
2021 09-04-2020 01:41:17 9.3 C 33 %
2022 09-04-2020 01:51:17 9.6 C 33 %
2023 09-04-2020 02:01:17 8.8 C 35 %
2024 09-04-2020 02:11:17 9.1 C 34 %
2025 09-04-2020 02:21:18 9 C 34 %
Sensor: Nr:Datum:Temp:Feuchte:
Aussen-T/F 2026 09-04-2020 02:31:18 8.8 C 35 %
2027 09-04-2020 02:41:18 8.7 C 35 %
2028 09-04-2020 02:51:17 8.8 C 35 %
2029 09-04-2020 03:01:17 9.2 C 34 %
2030 09-04-2020 03:11:17 9.7 C 33 %
2031 09-04-2020 03:21:17 9.5 C 33 %
2032 09-04-2020 03:31:17 9.4 C 34 %
2033 09-04-2020 03:41:17 9.5 C 34 %
2034 09-04-2020 03:51:17 10.2 C 32 %
2035 09-04-2020 04:01:17 9.9 C 34 %
2036 09-04-2020 04:11:17 10.1 C 33 %
2037 09-04-2020 04:21:17 10 C 33 %
2038 09-04-2020 04:31:18 9.4 C 34 %
2039 09-04-2020 04:41:18 9.3 C 35 %
2040 09-04-2020 04:51:17 8.9 C 35 %
2041 09-04-2020 05:01:17 8.7 C 36 %
2042 09-04-2020 05:11:17 8.6 C 35 %
2043 09-04-2020 05:21:17 8.5 C 36 %
2044 09-04-2020 05:31:18 8.2 C 36 %
2045 09-04-2020 05:41:18 8.1 C 36 %
2046 09-04-2020 05:51:17 8.1 C 37 %
2047 09-04-2020 06:01:18 8.1 C 37 %
2048 09-04-2020 06:11:18 7.7 C 38 %
2049 09-04-2020 06:21:17 7.1 C 38 %
2050 09-04-2020 06:31:17 7 C 38 %
Sensor: Nr:Datum:Temp:Feuchte:
Aussen-T/F 2051 09-04-2020 06:41:17 6.6 C 39 %
2052 09-04-2020 06:51:17 6.8 C 40 %
2053 09-04-2020 07:01:17 6.9 C 40 %
2054 09-04-2020 07:11:17 7.3 C 39 %
2055 09-04-2020 07:21:17 7.3 C 39 %
2056 09-04-2020 07:31:17 7 C 39 %
2057 09-04-2020 07:41:17 6.9 C 40 %
2058 09-04-2020 07:51:17 7 C 40 %
2059 09-04-2020 08:01:17 7 C 40 %
2060 09-04-2020 08:11:17 7.3 C 40 %
2061 09-04-2020 08:21:18 7.4 C 40 %
2062 09-04-2020 08:31:17 7.6 C 40 %
2063 09-04-2020 08:41:17 8 C 39 %
2064 09-04-2020 08:51:17 8.3 C 39 %
2065 09-04-2020 09:01:17 8.5 C 38 %
2066 09-04-2020 09:11:17 8.7 C 39 %
2067 09-04-2020 09:21:17 9 C 38 %
2068 09-04-2020 09:31:17 9.3 C 38 %
2069 09-04-2020 09:41:17 9.8 C 37 %
2070 09-04-2020 09:51:17 10.4 C 36 %
2071 09-04-2020 10:01:17 10.8 C 36 %
2072 09-04-2020 10:11:17 11.2 C 35 %
2073 09-04-2020 10:21:17 11.8 C 35 %
2074 09-04-2020 10:31:17 12.6 C 34 %
2075 09-04-2020 10:41:17 13.3 C 32 %
Sensor: Nr:Datum:Temp:Feuchte:
Aussen-T/F 2076 09-04-2020 10:51:18 14.6 C 31 %
2077 09-04-2020 11:01:17 15.4 C 30 %
2078 09-04-2020 11:11:18 16.2 C 28 %
2079 09-04-2020 11:21:17 17 C 25 %
2080 09-04-2020 11:31:17 17.9 C 23 %
2081 09-04-2020 11:41:17 18.5 C 21 %
2082 09-04-2020 11:51:18 19 C 20 %
2083 09-04-2020 12:01:17 19.3 C 20 %
2084 09-04-2020 12:11:17 19.8 C 20 %
2085 09-04-2020 12:21:17 20.7 C 20 %
2086 09-04-2020 12:31:17 22 C 20 %
2087 09-04-2020 12:41:17 23 C 20 %
2088 09-04-2020 12:51:18 22.3 C 20 %
2089 09-04-2020 13:01:17 23.2 C 20 %
2090 09-04-2020 13:11:17 23.3 C 20 %
2091 09-04-2020 13:21:17 22.9 C 20 %
2092 09-04-2020 13:31:17 22.4 C 20 %
2093 09-04-2020 13:41:18 22.6 C 20 %
2094 09-04-2020 13:51:17 22.8 C 20 %
2095 09-04-2020 14:01:17 24.1 C 20 %
2096 09-04-2020 14:11:17 23.8 C 20 %
2097 09-04-2020 14:21:17 24.3 C 20 %
2098 09-04-2020 14:31:17 26.8 C 20 %
2099 09-04-2020 14:41:17 28 C 20 %
2100 09-04-2020 14:51:17 29.2 C 20 %
Sensor: Nr:Datum:Temp:Feuchte:
Aussen-T/F 2101 09-04-2020 15:01:17 28.6 C 20 %
2102 09-04-2020 15:11:17 31.7 C 20 %
2103 09-04-2020 15:21:17 28.2 C 20 %
2104 09-04-2020 15:31:18 28.7 C 20 %
2105 09-04-2020 15:41:18 28.4 C 20 %
2106 09-04-2020 15:51:17 30.1 C 20 %
2107 09-04-2020 16:01:18 29.2 C 20 %
2108 09-04-2020 16:11:18 29.3 C 20 %
2109 09-04-2020 16:21:17 31.4 C 20 %
2110 09-04-2020 16:31:17 28.8 C 20 %
2111 09-04-2020 16:41:17 28.8 C 20 %
2112 09-04-2020 16:51:17 29.2 C 20 %
2113 09-04-2020 17:01:17 28.7 C 20 %
2114 09-04-2020 17:11:17 28.4 C 20 %
2115 09-04-2020 17:21:17 29.8 C 20 %
2116 09-04-2020 17:31:17 28 C 20 %
2117 09-04-2020 17:41:17 27.6 C 20 %
2118 09-04-2020 17:51:18 27.1 C 20 %
2119 09-04-2020 18:01:18 25.2 C 20 %
2120 09-04-2020 18:11:18 24 C 20 %
2121 09-04-2020 18:21:17 23.7 C 20 %
2122 09-04-2020 18:31:17 23.4 C 20 %
2123 09-04-2020 18:41:17 23.5 C 20 %
2124 09-04-2020 18:51:17 22.9 C 20 %
2125 09-04-2020 19:01:18 22.7 C 20 %
Sensor: Nr:Datum:Temp:Feuchte:
Aussen-T/F 2126 09-04-2020 19:11:18 22.4 C 20 %
2127 09-04-2020 19:21:17 21.8 C 20 %
2128 09-04-2020 19:31:17 21.1 C 20 %
2129 09-04-2020 19:41:17 20.6 C 20 %
2130 09-04-2020 19:51:17 20.1 C 20 %
2131 09-04-2020 20:01:17 19.7 C 20 %
2132 09-04-2020 20:11:17 17.9 C 20 %
2133 09-04-2020 20:21:17 16.6 C 20 %
2134 09-04-2020 20:31:17 16.6 C 20 %
2135 09-04-2020 20:41:17 16.1 C 21 %
2136 09-04-2020 20:51:17 16.4 C 20 %
2137 09-04-2020 21:01:17 16.2 C 20 %
2138 09-04-2020 21:11:17 16.4 C 20 %
2139 09-04-2020 21:21:17 16.5 C 20 %
2140 09-04-2020 21:31:17 15.9 C 21 %
2141 09-04-2020 21:41:17 15.4 C 22 %
2142 09-04-2020 21:51:17 15.5 C 22 %
2143 09-04-2020 22:01:17 15.5 C 22 %
2144 09-04-2020 22:11:17 15.2 C 22 %
2145 09-04-2020 22:21:17 15.1 C 22 %
2146 09-04-2020 22:31:18 14.8 C 24 %
2147 09-04-2020 22:41:18 14.6 C 25 %
2148 09-04-2020 22:51:17 14.3 C 25 %
2149 09-04-2020 23:01:18 14.2 C 25 %
2150 09-04-2020 23:11:18 14.2 C 25 %
Sensor: Nr:Datum:Temp:Feuchte:
Aussen-T/F 2151 09-04-2020 23:21:17 13.6 C 26 %
2152 09-04-2020 23:31:17 13.8 C 26 %
2153 09-04-2020 23:41:18 13.7 C 26 %
2154 09-04-2020 23:51:17 12.7 C 28 %
2155 10-04-2020 00:01:17 12.7 C 29 %
2156 10-04-2020 00:11:17 11.7 C 31 %
2157 10-04-2020 00:21:18 11.8 C 31 %
2158 10-04-2020 00:31:18 11.1 C 32 %
2159 10-04-2020 00:41:18 10.7 C 34 %
2160 10-04-2020 00:51:17 10.5 C 34 %
2161 10-04-2020 01:01:17 10.1 C 35 %
2162 10-04-2020 01:11:17 10 C 35 %
2163 10-04-2020 01:21:17 9.7 C 36 %
2164 10-04-2020 01:31:17 9.6 C 36 %
2165 10-04-2020 01:41:17 9.5 C 36 %
2166 10-04-2020 01:51:17 9 C 36 %
2167 10-04-2020 02:01:17 9.2 C 36 %
2168 10-04-2020 02:11:17 8.9 C 37 %
2169 10-04-2020 02:21:18 8.7 C 37 %
2170 10-04-2020 02:31:18 8.6 C 37 %
2171 10-04-2020 02:41:18 8.3 C 38 %
2172 10-04-2020 02:51:17 8.2 C 38 %
2173 10-04-2020 03:01:18 8.3 C 38 %
2174 10-04-2020 03:11:18 7.9 C 39 %
2175 10-04-2020 03:21:17 7.6 C 39 %
Sensor: Nr:Datum:Temp:Feuchte:
Aussen-T/F 2176 10-04-2020 03:31:17 7.4 C 40 %
2177 10-04-2020 03:41:17 7.2 C 40 %
2178 10-04-2020 03:51:17 7.1 C 40 %
2179 10-04-2020 04:01:18 7 C 40 %
2180 10-04-2020 04:11:18 6.8 C 41 %
2181 10-04-2020 04:21:17 6.9 C 41 %
2182 10-04-2020 04:31:17 6.6 C 41 %
2183 10-04-2020 04:41:17 6.6 C 41 %
2184 10-04-2020 04:51:18 6.6 C 41 %
2185 10-04-2020 05:01:17 6.3 C 41 %
2186 10-04-2020 05:11:17 6.3 C 42 %
2187 10-04-2020 05:21:18 6.4 C 42 %
2188 10-04-2020 05:31:17 6.2 C 42 %
2189 10-04-2020 05:41:17 5.9 C 43 %
2190 10-04-2020 05:51:17 5.7 C 43 %
2191 10-04-2020 06:01:17 5.8 C 44 %
2192 10-04-2020 06:11:17 5.8 C 44 %
2193 10-04-2020 06:21:17 5.6 C 44 %
2194 10-04-2020 06:31:18 5.4 C 44 %
2195 10-04-2020 06:41:18 5.4 C 44 %
2196 10-04-2020 06:51:17 5.4 C 44 %
2197 10-04-2020 07:01:18 5.3 C 44 %
2198 10-04-2020 07:11:18 5.3 C 45 %
2199 10-04-2020 07:21:17 5.3 C 45 %
2200 10-04-2020 07:31:18 5.3 C 45 %
Sensor: Nr:Datum:Temp:Feuchte:
Aussen-T/F 2201 10-04-2020 07:41:18 5.3 C 45 %
2202 10-04-2020 07:51:17 5.9 C 46 %
2203 10-04-2020 08:01:17 5.8 C 45 %
2204 10-04-2020 08:11:17 5.8 C 45 %
2205 10-04-2020 08:21:17 6 C 44 %
2206 10-04-2020 08:31:17 6.1 C 45 %
2207 10-04-2020 08:41:17 6.2 C 44 %
2208 10-04-2020 08:51:17 6.5 C 45 %
2209 10-04-2020 09:01:17 6.9 C 45 %
2210 10-04-2020 09:11:17 7.8 C 42 %
2211 10-04-2020 09:21:18 8.2 C 41 %
2212 10-04-2020 09:31:18 8.5 C 40 %
2213 10-04-2020 09:41:18 9.1 C 39 %
2214 10-04-2020 09:51:17 9.4 C 39 %
2215 10-04-2020 10:01:17 9.9 C 38 %
2216 10-04-2020 10:11:17 10.2 C 37 %
2217 10-04-2020 10:21:17 10.8 C 37 %
2218 10-04-2020 10:31:17 11.6 C 36 %
2219 10-04-2020 10:41:17 12.3 C 35 %
2220 10-04-2020 10:51:17 13.4 C 33 %
2221 10-04-2020 11:01:17 14 C 31 %
2222 10-04-2020 11:11:17 14.7 C 31 %
2223 10-04-2020 11:21:17 15.9 C 28 %
2224 10-04-2020 11:31:17 16.3 C 27 %
2225 10-04-2020 11:41:17 16.8 C 26 %
Sensor: Nr:Datum:Temp:Feuchte:
Aussen-T/F 2226 10-04-2020 11:51:17 17.5 C 25 %
2227 10-04-2020 12:01:17 17.9 C 24 %
2228 10-04-2020 12:11:17 18.4 C 21 %
2229 10-04-2020 12:21:17 19.2 C 20 %
2230 10-04-2020 12:31:17 19.7 C 20 %
2231 10-04-2020 12:41:17 20.6 C 20 %
2232 10-04-2020 12:51:17 20.4 C 20 %
2233 10-04-2020 13:01:17 20.8 C 20 %
2234 10-04-2020 13:11:17 20.2 C 20 %
2235 10-04-2020 13:21:17 20.4 C 20 %
2236 10-04-2020 13:31:17 20.2 C 20 %
2237 10-04-2020 13:41:17 20.4 C 20 %
2238 10-04-2020 13:51:17 20.7 C 20 %
2239 10-04-2020 14:01:17 21.7 C 20 %
2240 10-04-2020 14:11:17 21.6 C 20 %
2241 10-04-2020 14:21:18 22 C 20 %
2242 10-04-2020 14:31:18 25.1 C 20 %
2243 10-04-2020 14:41:18 29.1 C 20 %
2244 10-04-2020 14:51:17 27.6 C 20 %
2245 10-04-2020 15:01:17 27.9 C 20 %
2246 10-04-2020 15:11:17 31.6 C 20 %
2247 10-04-2020 15:21:17 30.1 C 20 %
2248 10-04-2020 15:31:17 30.5 C 20 %
2249 10-04-2020 15:41:17 30.2 C 20 %
2250 10-04-2020 15:51:17 29.1 C 20 %
Sensor: Nr:Datum:Temp:Feuchte:
Aussen-T/F 2251 10-04-2020 16:01:17 29.8 C 20 %
2252 10-04-2020 16:11:17 30.3 C 20 %
2253 10-04-2020 16:21:17 28.8 C 20 %
2254 10-04-2020 16:31:17 29.1 C 20 %
2255 10-04-2020 16:41:17 28.3 C 20 %
2256 10-04-2020 16:51:17 30.8 C 20 %
2257 10-04-2020 17:01:17 29.6 C 20 %
2258 10-04-2020 17:11:17 28.8 C 20 %
2259 10-04-2020 17:21:17 26.8 C 20 %
2260 10-04-2020 17:31:17 28.5 C 20 %
2261 10-04-2020 17:41:17 27.6 C 20 %
2262 10-04-2020 17:51:18 26.4 C 20 %
2263 10-04-2020 18:01:17 23.6 C 20 %
2264 10-04-2020 18:11:17 23 C 20 %
2265 10-04-2020 18:21:18 22.5 C 20 %
2266 10-04-2020 18:31:18 22.2 C 20 %
2267 10-04-2020 18:41:18 22.3 C 20 %
2268 10-04-2020 18:51:17 22 C 20 %
2269 10-04-2020 19:01:17 21.6 C 20 %
2270 10-04-2020 19:11:17 21.4 C 20 %
2271 10-04-2020 19:21:17 21.1 C 20 %
2272 10-04-2020 19:31:17 20.9 C 20 %
2273 10-04-2020 19:41:17 20.7 C 20 %
2274 10-04-2020 19:51:18 20.2 C 20 %
2275 10-04-2020 20:01:17 19.6 C 20 %
Sensor: Nr:Datum:Temp:Feuchte:
Aussen-T/F 2276 10-04-2020 20:11:17 18.5 C 20 %
2277 10-04-2020 20:21:18 16 C 20 %
2278 10-04-2020 20:31:17 15.9 C 20 %
2279 10-04-2020 20:41:17 15.3 C 20 %
2280 10-04-2020 20:51:17 15 C 20 %
2281 10-04-2020 21:01:17 15.3 C 20 %
2282 10-04-2020 21:11:17 14.7 C 20 %
2283 10-04-2020 21:21:17 14.3 C 21 %
2284 10-04-2020 21:31:17 13.8 C 21 %
2285 10-04-2020 21:41:17 14.2 C 21 %
2286 10-04-2020 21:51:17 14.3 C 21 %
2287 10-04-2020 22:01:18 14.5 C 21 %
2288 10-04-2020 22:11:18 14.9 C 20 %
2289 10-04-2020 22:21:18 14.5 C 22 %
2290 10-04-2020 22:31:17 14.5 C 22 %
2291 10-04-2020 22:41:17 13.9 C 24 %
2292 10-04-2020 22:51:17 13.1 C 25 %
2293 10-04-2020 23:01:17 12.7 C 25 %
2294 10-04-2020 23:11:17 12.8 C 25 %
2295 10-04-2020 23:21:17 12 C 26 %
2296 10-04-2020 23:31:17 12.2 C 26 %
2297 10-04-2020 23:41:17 11.2 C 28 %
2298 10-04-2020 23:51:17 11.1 C 29 %
2299 11-04-2020 00:01:18 10.5 C 30 %
2300 11-04-2020 00:11:18 10.8 C 30 %
Sensor: Nr:Datum:Temp:Feuchte:
Aussen-T/F 2301 11-04-2020 00:21:17 10.8 C 30 %
2302 11-04-2020 00:31:17 10.1 C 31 %
2303 11-04-2020 00:41:18 9.9 C 32 %
2304 11-04-2020 00:51:18 10 C 31 %
2305 11-04-2020 01:01:17 9.6 C 31 %
2306 11-04-2020 01:11:17 9.6 C 32 %
2307 11-04-2020 01:21:17 9.1 C 32 %
2308 11-04-2020 01:31:18 9.2 C 32 %
2309 11-04-2020 01:41:18 9 C 32 %
2310 11-04-2020 01:51:18 8.7 C 32 %
2311 11-04-2020 02:01:17 8.4 C 32 %
2312 11-04-2020 02:11:17 8.2 C 32 %
2313 11-04-2020 02:21:18 8.1 C 32 %
2314 11-04-2020 02:31:17 8.3 C 32 %
2315 11-04-2020 02:41:17 8.1 C 32 %
2316 11-04-2020 02:51:17 7.9 C 33 %
2317 11-04-2020 03:01:17 8.5 C 31 %
2318 11-04-2020 03:11:17 8.7 C 31 %
2319 11-04-2020 03:21:17 8.8 C 30 %
2320 11-04-2020 03:31:18 8.8 C 30 %
2321 11-04-2020 03:41:18 8.2 C 30 %
2322 11-04-2020 03:51:17 8.6 C 30 %
2323 11-04-2020 04:01:17 8.3 C 30 %
2324 11-04-2020 04:11:17 8.3 C 30 %
2325 11-04-2020 04:21:17 7.7 C 30 %
Sensor: Nr:Datum:Temp:Feuchte:
Aussen-T/F 2326 11-04-2020 04:31:17 7.4 C 30 %
2327 11-04-2020 04:41:17 7.5 C 30 %
2328 11-04-2020 04:51:17 7.6 C 29 %
2329 11-04-2020 05:01:17 7.4 C 29 %
2330 11-04-2020 05:11:17 6.9 C 30 %
2331 11-04-2020 05:21:17 6.8 C 30 %
2332 11-04-2020 05:31:18 6.1 C 31 %
2333 11-04-2020 05:41:18 5.8 C 32 %
2334 11-04-2020 05:51:17 5.7 C 32 %
2335 11-04-2020 06:01:17 5.6 C 32 %
2336 11-04-2020 06:11:17 5 C 33 %
2337 11-04-2020 06:21:17 4.9 C 35 %
2338 11-04-2020 06:31:18 5 C 33 %
2339 11-04-2020 06:41:18 4.6 C 35 %
2340 11-04-2020 06:51:17 4.6 C 35 %
2341 11-04-2020 07:01:18 4.4 C 35 %
2342 11-04-2020 07:11:18 4.5 C 35 %
2343 11-04-2020 07:21:17 4.4 C 35 %
2344 11-04-2020 07:31:18 4.4 C 36 %
2345 11-04-2020 07:41:18 4.7 C 35 %
2346 11-04-2020 07:51:17 5 C 34 %
2347 11-04-2020 08:01:18 5 C 34 %
2348 11-04-2020 08:11:18 5 C 35 %
2349 11-04-2020 08:21:18 5.1 C 35 %
2350 11-04-2020 08:31:18 5.5 C 34 %
Sensor: Nr:Datum:Temp:Feuchte:
Aussen-T/F 2351 11-04-2020 08:41:18 6 C 33 %
2352 11-04-2020 08:51:18 6.4 C 32 %
2353 11-04-2020 09:01:17 6.5 C 33 %
2354 11-04-2020 09:11:18 7.1 C 31 %
2355 11-04-2020 09:21:17 7.3 C 31 %
2356 11-04-2020 09:31:18 7.8 C 31 %
2357 11-04-2020 09:41:18 8.2 C 30 %
2358 11-04-2020 09:51:17 8.6 C 30 %
2359 11-04-2020 10:01:17 9.1 C 29 %
2360 11-04-2020 10:11:17 9.5 C 29 %
2361 11-04-2020 10:21:17 10.2 C 26 %
2362 11-04-2020 10:31:17 10.7 C 27 %
2363 11-04-2020 10:41:17 11.5 C 25 %
2364 11-04-2020 10:51:17 12.3 C 21 %
2365 11-04-2020 11:01:18 12.9 C 20 %
2366 11-04-2020 11:11:18 13.7 C 20 %
2367 11-04-2020 11:21:17 14.5 C 20 %
2368 11-04-2020 11:31:17 15.3 C 20 %
2369 11-04-2020 11:41:18 16 C 20 %
2370 11-04-2020 11:51:17 16.5 C 20 %
2371 11-04-2020 12:01:17 17.2 C 20 %
2372 11-04-2020 12:11:17 17.5 C 20 %
2373 11-04-2020 12:21:18 18.1 C 20 %
2374 11-04-2020 12:31:17 19.1 C 20 %
2375 11-04-2020 12:41:17 19.4 C 20 %
Sensor: Nr:Datum:Temp:Feuchte:
Aussen-T/F 2376 11-04-2020 12:51:17 19.5 C 20 %
2377 11-04-2020 13:01:17 19.6 C 20 %
2378 11-04-2020 13:11:17 19.5 C 20 %
2379 11-04-2020 13:21:17 19.5 C 20 %
2380 11-04-2020 13:31:17 19.6 C 20 %
2381 11-04-2020 13:41:17 19.9 C 20 %
2382 11-04-2020 13:51:17 20.2 C 20 %
2383 11-04-2020 14:01:18 20.9 C 20 %
2384 11-04-2020 14:11:18 21.3 C 20 %
2385 11-04-2020 14:21:17 21.5 C 20 %
2386 11-04-2020 14:31:17 24.4 C 20 %
2387 11-04-2020 14:41:17 27.5 C 20 %
2388 11-04-2020 14:51:18 27.4 C 20 %
2389 11-04-2020 15:01:18 28.6 C 20 %
2390 11-04-2020 15:11:18 30.4 C 20 %
2391 11-04-2020 15:21:17 29.9 C 20 %
2392 11-04-2020 15:31:17 30.4 C 20 %
2393 11-04-2020 15:41:17 31.2 C 20 %
2394 11-04-2020 15:51:18 31.8 C 20 %
2395 11-04-2020 16:01:17 28.5 C 20 %
2396 11-04-2020 16:11:17 31.4 C 20 %
2397 11-04-2020 16:21:18 30.7 C 20 %
2398 11-04-2020 16:31:17 31.5 C 20 %
2399 11-04-2020 16:41:17 31.3 C 20 %
2400 11-04-2020 16:51:17 32.1 C 20 %
Sensor: Nr:Datum:Temp:Feuchte:
Aussen-T/F 2401 11-04-2020 17:01:17 31.8 C 20 %
2402 11-04-2020 17:11:17 29.5 C 20 %
2403 11-04-2020 17:21:17 29.8 C 20 %
2404 11-04-2020 17:31:17 28.7 C 20 %
2405 11-04-2020 17:41:17 26.5 C 20 %
2406 11-04-2020 17:51:17 27.5 C 20 %
2407 11-04-2020 18:01:17 24.2 C 20 %
2408 11-04-2020 18:11:17 23.4 C 20 %
2409 11-04-2020 18:21:17 23.6 C 20 %
2410 11-04-2020 18:31:17 23.6 C 20 %
2411 11-04-2020 18:41:17 23.3 C 20 %
2412 11-04-2020 18:51:17 22.9 C 20 %
2413 11-04-2020 19:01:17 22.9 C 20 %
2414 11-04-2020 19:11:17 22.7 C 20 %
2415 11-04-2020 19:21:18 22 C 20 %
2416 11-04-2020 19:31:17 21.7 C 20 %
2417 11-04-2020 19:41:17 21.2 C 20 %
2418 11-04-2020 19:51:17 18.9 C 20 %
2419 11-04-2020 20:01:17 18 C 20 %
2420 11-04-2020 20:11:17 17.1 C 20 %
2421 11-04-2020 20:21:17 16.6 C 20 %
2422 11-04-2020 20:31:17 16.5 C 20 %
2423 11-04-2020 20:41:17 16.5 C 20 %
2424 11-04-2020 20:51:17 16.2 C 20 %
2425 11-04-2020 21:01:18 16 C 20 %
Sensor: Nr:Datum:Temp:Feuchte:
Aussen-T/F 2426 11-04-2020 21:11:18 15.5 C 20 %
2427 11-04-2020 21:21:18 15.4 C 20 %
2428 11-04-2020 21:31:17 15.1 C 20 %
2429 11-04-2020 21:41:17 14.8 C 20 %
2430 11-04-2020 21:51:17 14.5 C 20 %
2431 11-04-2020 22:01:17 14.3 C 20 %
2432 11-04-2020 22:11:17 14.4 C 20 %
2433 11-04-2020 22:21:17 14 C 20 %
2434 11-04-2020 22:31:18 14 C 21 %
2435 11-04-2020 22:41:18 14.4 C 21 %
2436 11-04-2020 22:51:17 14.4 C 22 %
2437 11-04-2020 23:01:17 13.7 C 23 %
2438 11-04-2020 23:11:17 13 C 24 %
2439 11-04-2020 23:21:18 12.3 C 26 %
2440 11-04-2020 23:31:18 12.1 C 26 %
2441 11-04-2020 23:41:18 11.8 C 27 %
2442 11-04-2020 23:51:17 11.7 C 28 %
2443 12-04-2020 00:01:17 11.6 C 29 %
2444 12-04-2020 00:11:17 11.3 C 28 %
2445 12-04-2020 00:21:17 11.3 C 29 %
2446 12-04-2020 00:31:17 11.5 C 29 %
2447 12-04-2020 00:41:17 11.6 C 29 %
2448 12-04-2020 00:51:17 11.4 C 28 %
2449 12-04-2020 01:01:17 11.3 C 28 %
2450 12-04-2020 01:11:17 11 C 28 %
Sensor: Nr:Datum:Temp:Feuchte:
Aussen-T/F 2451 12-04-2020 01:21:17 10.6 C 29 %
2452 12-04-2020 01:31:18 10.3 C 29 %
2453 12-04-2020 01:41:18 10.2 C 30 %
2454 12-04-2020 01:51:17 10.6 C 29 %
2455 12-04-2020 02:01:18 10.8 C 30 %
2456 12-04-2020 02:11:18 10.7 C 31 %
2457 12-04-2020 02:21:18 10.3 C 31 %
2458 12-04-2020 02:31:17 10.4 C 30 %
2459 12-04-2020 02:41:17 10.2 C 31 %
2460 12-04-2020 02:51:17 10.1 C 31 %
2461 12-04-2020 03:01:17 10.3 C 31 %
2462 12-04-2020 03:11:17 10.2 C 31 %
2463 12-04-2020 03:21:17 10.1 C 32 %
2464 12-04-2020 03:31:17 10 C 32 %
2465 12-04-2020 03:41:18 9.9 C 33 %
2466 12-04-2020 03:51:17 10 C 32 %
2467 12-04-2020 04:01:17 9.8 C 33 %
2468 12-04-2020 04:11:17 9.7 C 33 %
2469 12-04-2020 04:21:17 8.9 C 35 %
2470 12-04-2020 04:31:17 8.8 C 34 %
2471 12-04-2020 04:41:17 8.9 C 35 %
2472 12-04-2020 04:51:17 8.5 C 35 %
2473 12-04-2020 05:01:18 8.2 C 36 %
2474 12-04-2020 05:11:18 8.4 C 36 %
2475 12-04-2020 05:21:17 8.5 C 36 %
Sensor: Nr:Datum:Temp:Feuchte:
Aussen-T/F 2476 12-04-2020 05:31:17 8.2 C 36 %
2477 12-04-2020 05:41:17 8 C 36 %
2478 12-04-2020 05:51:17 7.6 C 37 %
2479 12-04-2020 06:01:17 7.7 C 37 %
2480 12-04-2020 06:11:17 7.5 C 38 %
2481 12-04-2020 06:21:17 7.2 C 38 %
2482 12-04-2020 06:31:17 7.1 C 39 %
2483 12-04-2020 06:41:17 7.2 C 39 %
2484 12-04-2020 06:51:17 7.3 C 39 %
2485 12-04-2020 07:01:17 6.9 C 39 %
2486 12-04-2020 07:11:17 6.7 C 40 %
2487 12-04-2020 07:21:17 6.5 C 40 %
2488 12-04-2020 07:31:17 6.7 C 40 %
2489 12-04-2020 07:41:17 7.1 C 40 %
2490 12-04-2020 07:51:18 7 C 40 %
2491 12-04-2020 08:01:17 7.3 C 40 %
2492 12-04-2020 08:11:17 7.5 C 40 %
2493 12-04-2020 08:21:17 7.5 C 40 %
2494 12-04-2020 08:31:17 7.6 C 40 %
2495 12-04-2020 08:41:18 7.9 C 40 %
2496 12-04-2020 08:51:17 8.2 C 40 %
2497 12-04-2020 09:01:18 8.8 C 39 %
2498 12-04-2020 09:11:18 9.2 C 38 %
2499 12-04-2020 09:21:17 9.5 C 38 %
2500 12-04-2020 09:31:17 10 C 37 %
Sensor: Nr:Datum:Temp:Feuchte:
Aussen-T/F 2501 12-04-2020 09:41:17 10.1 C 37 %
2502 12-04-2020 09:51:17 11 C 36 %
2503 12-04-2020 10:01:17 11.3 C 36 %
2504 12-04-2020 10:11:17 11.7 C 35 %
2505 12-04-2020 10:21:17 12.2 C 35 %
2506 12-04-2020 10:31:18 13.2 C 33 %
2507 12-04-2020 10:41:18 14.4 C 31 %
2508 12-04-2020 10:51:17 14.9 C 31 %
2509 12-04-2020 11:01:17 15.6 C 30 %
2510 12-04-2020 11:11:17 17 C 27 %
2511 12-04-2020 11:21:17 17.6 C 27 %
2512 12-04-2020 11:31:17 18 C 26 %
2513 12-04-2020 11:41:17 18.5 C 24 %
2514 12-04-2020 11:51:17 19.1 C 20 %
2515 12-04-2020 12:01:17 20.6 C 20 %
2516 12-04-2020 12:11:17 20.8 C 20 %
2517 12-04-2020 12:21:17 21.7 C 20 %
2518 12-04-2020 12:31:17 21.6 C 20 %
2519 12-04-2020 12:41:17 21.8 C 20 %
2520 12-04-2020 12:51:18 21.2 C 20 %
2521 12-04-2020 13:01:17 21.7 C 20 %
2522 12-04-2020 13:11:17 21.7 C 20 %
2523 12-04-2020 13:21:17 22 C 20 %
2524 12-04-2020 13:31:17 21.7 C 20 %
2525 12-04-2020 13:41:17 22 C 20 %
Sensor: Nr:Datum:Temp:Feuchte:
Aussen-T/F 2526 12-04-2020 13:51:17 22.1 C 20 %
2527 12-04-2020 14:01:17 22.4 C 20 %
2528 12-04-2020 14:11:17 22.8 C 20 %
2529 12-04-2020 14:21:17 22.9 C 20 %
2530 12-04-2020 14:31:17 26.2 C 20 %
2531 12-04-2020 14:41:17 28.6 C 20 %
2532 12-04-2020 14:51:17 28.5 C 20 %
2533 12-04-2020 15:01:17 30.3 C 20 %
2534 12-04-2020 15:11:17 27.7 C 20 %
2535 12-04-2020 15:21:17 27.9 C 20 %
2536 12-04-2020 15:31:18 30.7 C 20 %
2537 12-04-2020 15:41:18 30.5 C 20 %
2538 12-04-2020 15:51:18 28.3 C 20 %
2539 12-04-2020 16:01:17 30.5 C 20 %
2540 12-04-2020 16:11:17 33.2 C 20 %
2541 12-04-2020 16:21:17 32.8 C 20 %
2542 12-04-2020 16:31:17 27.8 C 20 %
2543 12-04-2020 16:41:17 26 C 20 %
2544 12-04-2020 16:51:17 24.7 C 20 %
2545 12-04-2020 17:01:17 29.6 C 20 %
2546 12-04-2020 17:11:18 29.6 C 20 %
2547 12-04-2020 17:21:17 29.5 C 20 %
2548 12-04-2020 17:31:17 26.5 C 20 %
2549 12-04-2020 17:41:17 29.3 C 20 %
2550 12-04-2020 17:51:17 29.8 C 20 %
Sensor: Nr:Datum:Temp:Feuchte:
Aussen-T/F 2551 12-04-2020 18:01:18 24.6 C 20 %
2552 12-04-2020 18:11:18 24 C 20 %
2553 12-04-2020 18:21:17 24 C 20 %
2554 12-04-2020 18:31:17 23.6 C 20 %
2555 12-04-2020 18:41:17 22.9 C 20 %
2556 12-04-2020 18:51:17 22.4 C 20 %
2557 12-04-2020 19:01:17 22.5 C 20 %
2558 12-04-2020 19:11:17 22.4 C 20 %
2559 12-04-2020 19:21:17 22 C 20 %
2560 12-04-2020 19:31:17 21.6 C 20 %
2561 12-04-2020 19:41:17 20.3 C 20 %
2562 12-04-2020 19:51:18 19.1 C 20 %
2563 12-04-2020 20:01:18 18.2 C 20 %
2564 12-04-2020 20:11:18 17.9 C 20 %
2565 12-04-2020 20:21:17 17.5 C 20 %
2566 12-04-2020 20:31:18 17 C 20 %
2567 12-04-2020 20:41:18 16.8 C 20 %
2568 12-04-2020 20:51:17 16 C 20 %
2569 12-04-2020 21:01:17 15.5 C 20 %
2570 12-04-2020 21:11:17 14 C 20 %
2571 12-04-2020 21:22:17 13.5 C 20 %
2572 12-04-2020 21:31:17 13.2 C 21 %
2573 12-04-2020 21:41:17 13.2 C 20 %
2574 12-04-2020 21:51:17 13.3 C 21 %
2575 12-04-2020 22:01:17 13.4 C 20 %
Sensor: Nr:Datum:Temp:Feuchte:
Aussen-T/F 2576 12-04-2020 22:11:17 13 C 21 %
2577 12-04-2020 22:22:17 12.9 C 22 %
2578 12-04-2020 22:32:17 12.2 C 23 %
2579 12-04-2020 22:42:17 11.8 C 26 %
2580 12-04-2020 22:51:17 11.7 C 25 %
2581 12-04-2020 23:01:18 11.5 C 25 %
2582 12-04-2020 23:11:18 11.1 C 26 %
2583 12-04-2020 23:21:17 10.9 C 27 %
2584 12-04-2020 23:32:17 10.7 C 28 %
2585 12-04-2020 23:41:17 10.3 C 28 %
2586 12-04-2020 23:52:17 10.5 C 28 %
2587 13-04-2020 00:01:17 10.6 C 28 %
2588 13-04-2020 00:11:17 10.4 C 29 %
2589 13-04-2020 00:21:18 10.4 C 30 %
2590 13-04-2020 00:31:17 10.1 C 30 %
2591 13-04-2020 00:41:17 9.9 C 31 %
2592 13-04-2020 00:51:17 9.7 C 31 %
2593 13-04-2020 01:01:18 9.5 C 31 %
2594 13-04-2020 01:11:18 9.4 C 32 %
2595 13-04-2020 01:21:18 9 C 32 %
2596 13-04-2020 01:31:18 9.3 C 32 %
2597 13-04-2020 01:41:18 9.2 C 32 %
2598 13-04-2020 01:51:18 9.3 C 32 %
2599 13-04-2020 02:02:17 9.2 C 32 %
2600 13-04-2020 02:12:17 9.2 C 32 %
Sensor: Nr:Datum:Temp:Feuchte:
Aussen-T/F 2601 13-04-2020 02:21:17 9.1 C 32 %
2602 13-04-2020 02:31:18 9 C 33 %
2603 13-04-2020 02:41:18 8.6 C 34 %
2604 13-04-2020 02:51:17 8.6 C 34 %
2605 13-04-2020 03:01:18 8.4 C 34 %
2606 13-04-2020 03:11:18 8.2 C 35 %
2607 13-04-2020 03:22:17 7.9 C 35 %
2608 13-04-2020 03:32:17 8.1 C 35 %
2609 13-04-2020 03:42:17 8 C 35 %
2610 13-04-2020 03:51:17 7.8 C 35 %
2611 13-04-2020 04:02:17 7.5 C 36 %
2612 13-04-2020 04:12:17 7.2 C 36 %
2613 13-04-2020 04:21:18 6.8 C 38 %
2614 13-04-2020 04:32:17 6.8 C 38 %
2615 13-04-2020 04:41:17 6.7 C 39 %
2616 13-04-2020 04:52:17 7.7 C 37 %
2617 13-04-2020 05:02:17 7.3 C 37 %
2618 13-04-2020 05:12:17 7.5 C 38 %
2619 13-04-2020 05:22:17 7.8 C 38 %
2620 13-04-2020 05:32:17 7.6 C 37 %
2621 13-04-2020 05:42:17 7.4 C 37 %
2622 13-04-2020 05:52:17 7.2 C 38 %
2623 13-04-2020 06:02:17 7.2 C 38 %
2624 13-04-2020 06:12:17 6.6 C 39 %
2625 13-04-2020 06:22:17 6.2 C 39 %
Sensor: Nr:Datum:Temp:Feuchte:
Aussen-T/F 2626 13-04-2020 06:32:17 6.3 C 40 %
2627 13-04-2020 06:42:17 6.3 C 40 %
2628 13-04-2020 06:52:17 6.4 C 40 %
2629 13-04-2020 07:02:17 6.5 C 40 %
2630 13-04-2020 07:12:17 7.2 C 39 %
2631 13-04-2020 07:22:17 7.6 C 38 %
2632 13-04-2020 07:32:17 8.1 C 37 %
2633 13-04-2020 07:42:17 8.3 C 37 %
2634 13-04-2020 07:52:17 8.5 C 37 %
2635 13-04-2020 08:02:17 8.6 C 36 %
2636 13-04-2020 08:12:18 8.9 C 36 %
2637 13-04-2020 08:22:17 9 C 36 %
2638 13-04-2020 08:32:17 9.4 C 36 %
2639 13-04-2020 08:42:17 10.7 C 37 %
2640 13-04-2020 08:52:17 11.1 C 36 %
2641 13-04-2020 09:02:17 10.7 C 37 %
2642 13-04-2020 09:12:17 10.7 C 37 %
2643 13-04-2020 09:22:17 11 C 36 %
2644 13-04-2020 09:32:17 11.5 C 36 %
2645 13-04-2020 09:42:17 11.9 C 35 %
2646 13-04-2020 09:52:17 11.4 C 35 %
2647 13-04-2020 10:02:17 11.2 C 35 %
2648 13-04-2020 10:12:17 11.1 C 35 %
2649 13-04-2020 10:22:17 11 C 34 %
2650 13-04-2020 10:32:17 11.1 C 34 %
Sensor: Nr:Datum:Temp:Feuchte:
Aussen-T/F 2651 13-04-2020 10:42:17 11.3 C 34 %
2652 13-04-2020 10:52:17 11.6 C 33 %
2653 13-04-2020 11:02:17 11.6 C 33 %
2654 13-04-2020 11:12:17 11.4 C 32 %
2655 13-04-2020 11:22:17 11.8 C 32 %
2656 13-04-2020 11:32:17 11.5 C 31 %
2657 13-04-2020 11:42:17 11.1 C 31 %
2658 13-04-2020 11:52:16 10.8 C 32 %
2659 13-04-2020 12:02:17 10.9 C 32 %
2660 13-04-2020 12:12:17 10.5 C 33 %
2661 13-04-2020 12:22:17 10.4 C 33 %
2662 13-04-2020 12:32:17 10.7 C 32 %
2663 13-04-2020 12:42:17 11.1 C 32 %
2664 13-04-2020 12:52:17 10.6 C 32 %
2665 13-04-2020 13:02:16 10.3 C 32 %
2666 13-04-2020 13:12:16 10.2 C 32 %
2667 13-04-2020 13:22:17 10.2 C 32 %
2668 13-04-2020 13:32:17 9.6 C 33 %
2669 13-04-2020 13:42:17 8.6 C 35 %
2670 13-04-2020 13:52:17 7.6 C 39 %
2671 13-04-2020 14:02:17 7.5 C 40 %
2672 13-04-2020 14:12:17 7.7 C 38 %
2673 13-04-2020 14:22:16 8.7 C 36 %
2674 13-04-2020 14:32:17 9.2 C 35 %
2675 13-04-2020 14:42:17 9.6 C 34 %
Sensor: Nr:Datum:Temp:Feuchte:
Aussen-T/F 2676 13-04-2020 14:52:16 10.9 C 31 %
2677 13-04-2020 15:02:17 12.4 C 26 %
2678 13-04-2020 15:12:17 12.3 C 25 %
2679 13-04-2020 15:22:17 12.7 C 20 %
2680 13-04-2020 15:32:17 11.8 C 20 %
2681 13-04-2020 15:42:17 12.4 C 20 %
2682 13-04-2020 15:52:16 13.2 C 20 %
2683 13-04-2020 16:02:16 12.2 C 20 %
2684 13-04-2020 16:12:16 14.4 C 20 %
2685 13-04-2020 16:22:16 15 C 20 %
2686 13-04-2020 16:32:17 16 C 20 %
2687 13-04-2020 16:42:17 14.9 C 20 %
2688 13-04-2020 16:52:16 16.5 C 20 %
2689 13-04-2020 17:02:17 15.2 C 20 %
2690 13-04-2020 17:12:17 15.6 C 20 %
2691 13-04-2020 17:22:16 15 C 20 %
2692 13-04-2020 17:32:16 15 C 20 %
2693 13-04-2020 17:42:16 14.5 C 20 %
2694 13-04-2020 17:52:16 15.4 C 20 %
2695 13-04-2020 18:02:16 13.2 C 20 %
2696 13-04-2020 18:12:16 12.5 C 20 %
2697 13-04-2020 18:22:17 12.1 C 20 %
2698 13-04-2020 18:32:17 11.9 C 20 %
2699 13-04-2020 18:42:18 11.1 C 20 %
2700 13-04-2020 18:52:16 11.1 C 20 %
Sensor: Nr:Datum:Temp:Feuchte:
Aussen-T/F 2701 13-04-2020 19:02:16 10.8 C 20 %
2702 13-04-2020 19:12:16 10.5 C 20 %
2703 13-04-2020 19:22:16 10.2 C 20 %
2704 13-04-2020 19:32:17 10 C 20 %
2705 13-04-2020 19:42:17 9.8 C 20 %
2706 13-04-2020 19:52:16 9.6 C 20 %
2707 13-04-2020 20:02:16 9 C 20 %
2708 13-04-2020 20:12:16 8.6 C 20 %
2709 13-04-2020 20:22:16 8.5 C 20 %
2710 13-04-2020 20:32:16 8.4 C 20 %
2711 13-04-2020 20:42:16 8.2 C 20 %
2712 13-04-2020 20:52:16 7.5 C 20 %
2713 13-04-2020 21:02:16 7.5 C 20 %
2714 13-04-2020 21:12:16 7.4 C 20 %
2715 13-04-2020 21:22:16 7.3 C 20 %
2716 13-04-2020 21:32:17 7.2 C 20 %
2717 13-04-2020 21:42:17 6.7 C 20 %
2718 13-04-2020 21:52:16 6.5 C 20 %
2719 13-04-2020 22:02:16 6.1 C 20 %
2720 13-04-2020 22:12:16 5.5 C 20 %
2721 13-04-2020 22:22:16 5.1 C 20 %
2722 13-04-2020 22:32:16 4.6 C 23 %
2723 13-04-2020 22:42:16 4.4 C 25 %
2724 13-04-2020 22:52:16 4.1 C 25 %
2725 13-04-2020 23:02:16 3.9 C 26 %
Sensor: Nr:Datum:Temp:Feuchte:
Aussen-T/F 2726 13-04-2020 23:12:16 3.8 C 27 %
2727 13-04-2020 23:22:16 3.5 C 30 %
2728 13-04-2020 23:32:17 3.3 C 29 %
2729 13-04-2020 23:42:17 4 C 26 %
2730 13-04-2020 23:52:16 4 C 25 %
2731 14-04-2020 00:02:16 3.3 C 28 %
2732 14-04-2020 00:12:16 4.1 C 25 %
2733 14-04-2020 00:22:16 3.2 C 27 %
2734 14-04-2020 00:32:16 3.3 C 27 %
2735 14-04-2020 00:42:16 2.8 C 29 %
2736 14-04-2020 00:52:16 2.9 C 29 %
2737 14-04-2020 01:02:16 3.1 C 27 %
2738 14-04-2020 01:12:16 3.4 C 27 %
2739 14-04-2020 01:22:16 2.8 C 28 %
2740 14-04-2020 01:32:16 2.1 C 30 %
2741 14-04-2020 01:42:16 1.9 C 33 %
2742 14-04-2020 01:52:16 1.2 C 35 %
2743 14-04-2020 02:02:16 1.6 C 35 %
2744 14-04-2020 02:12:16 1.3 C 35 %
2745 14-04-2020 02:22:16 0.9 C 36 %
2746 14-04-2020 02:32:16 0.8 C 36 %
2747 14-04-2020 02:42:16 1.1 C 35 %
2748 14-04-2020 02:52:18 1 C 35 %
2749 14-04-2020 03:02:18 1.1 C 35 %
2750 14-04-2020 03:12:18 1.1 C 35 %
Sensor: Nr:Datum:Temp:Feuchte:
Aussen-T/F 2751 14-04-2020 03:22:17 0.7 C 36 %
2752 14-04-2020 03:32:18 1.1 C 36 %
2753 14-04-2020 03:42:18 0.9 C 36 %
2754 14-04-2020 03:52:17 1 C 35 %
2755 14-04-2020 04:02:18 0.9 C 36 %
2756 14-04-2020 04:12:18 0.9 C 36 %
2757 14-04-2020 04:22:17 0.6 C 36 %
2758 14-04-2020 04:32:17 0.7 C 36 %
2759 14-04-2020 04:42:17 0.7 C 36 %
2760 14-04-2020 04:52:18 0.6 C 36 %
2761 14-04-2020 05:02:17 0 C 37 %
2762 14-04-2020 05:12:17 0 C 38 %
2763 14-04-2020 05:22:17 0.6 C 38 %
2764 14-04-2020 05:32:17 0.6 C 39 %
2765 14-04-2020 05:42:17 0.7 C 39 %
2766 14-04-2020 05:52:17 0 C 39 %
2767 14-04-2020 06:02:17 -0.2 C 40 %
2768 14-04-2020 06:12:17 -0.7 C 41 %
2769 14-04-2020 06:22:17 -0.9 C 41 %
2770 14-04-2020 06:32:17 -0.4 C 41 %
2771 14-04-2020 06:42:17 -0.1 C 41 %
2772 14-04-2020 06:52:17 0.5 C 41 %
2773 14-04-2020 07:02:17 0.7 C 41 %
2774 14-04-2020 07:12:17 1.1 C 40 %
2775 14-04-2020 07:22:17 1.3 C 39 %
Sensor: Nr:Datum:Temp:Feuchte:
Aussen-T/F 2776 14-04-2020 07:32:17 1.6 C 39 %
2777 14-04-2020 07:42:17 1.8 C 39 %
2778 14-04-2020 07:52:18 2.1 C 37 %
2779 14-04-2020 08:02:17 2.2 C 38 %
2780 14-04-2020 08:12:17 2.3 C 37 %
2781 14-04-2020 08:22:18 1.7 C 39 %
2782 14-04-2020 08:32:17 1.7 C 40 %
2783 14-04-2020 08:42:17 2.2 C 38 %
2784 14-04-2020 08:52:17 2.4 C 38 %
2785 14-04-2020 09:02:18 3 C 37 %
2786 14-04-2020 09:12:18 3.8 C 36 %
2787 14-04-2020 09:22:17 4.7 C 34 %
2788 14-04-2020 09:32:18 5.7 C 32 %
2789 14-04-2020 09:42:18 5.3 C 31 %
2790 14-04-2020 09:52:17 6 C 31 %
2791 14-04-2020 10:02:17 6.6 C 30 %
2792 14-04-2020 10:12:17 5.8 C 30 %
2793 14-04-2020 10:22:17 5.9 C 30 %
2794 14-04-2020 10:32:17 6.7 C 30 %
2795 14-04-2020 10:42:17 7.4 C 26 %
2796 14-04-2020 10:52:18 8.4 C 23 %
2797 14-04-2020 11:02:17 8.2 C 21 %
2798 14-04-2020 11:12:17 8 C 20 %
2799 14-04-2020 11:22:17 7.9 C 20 %
2800 14-04-2020 11:32:17 8.2 C 20 %
Sensor: Nr:Datum:Temp:Feuchte:
Aussen-T/F 2801 14-04-2020 11:42:17 9.1 C 20 %
2802 14-04-2020 11:52:18 8.4 C 20 %
2803 14-04-2020 12:02:17 8.5 C 20 %
2804 14-04-2020 12:12:17 8.6 C 20 %
2805 14-04-2020 12:22:17 8.9 C 20 %
2806 14-04-2020 12:32:17 8.6 C 20 %
2807 14-04-2020 12:42:17 9.8 C 20 %
2808 14-04-2020 12:52:17 10.6 C 20 %
2809 14-04-2020 13:02:18 10.2 C 20 %
2810 14-04-2020 13:12:18 10 C 20 %
2811 14-04-2020 13:22:17 10.4 C 20 %
2812 14-04-2020 13:32:17 10.7 C 20 %
2813 14-04-2020 13:42:17 10 C 20 %
2814 14-04-2020 13:52:18 9.5 C 20 %
2815 14-04-2020 14:02:17 9.8 C 20 %
2816 14-04-2020 14:12:18 10.3 C 20 %
2817 14-04-2020 14:22:18 11.8 C 20 %
2818 14-04-2020 14:32:18 14.5 C 20 %
2819 14-04-2020 14:42:18 17.4 C 20 %
2820 14-04-2020 14:52:17 16.8 C 20 %
2821 14-04-2020 15:02:17 17.6 C 20 %
2822 14-04-2020 15:12:18 21 C 20 %
2823 14-04-2020 15:22:17 14.7 C 20 %
2824 14-04-2020 15:32:17 16.7 C 20 %
2825 14-04-2020 15:42:17 14 C 20 %
Sensor: Nr:Datum:Temp:Feuchte:
Aussen-T/F 2826 14-04-2020 15:52:17 14 C 20 %
2827 14-04-2020 16:02:17 15 C 20 %
2828 14-04-2020 16:12:17 17.2 C 20 %
2829 14-04-2020 16:22:17 17.7 C 20 %
2830 14-04-2020 16:32:18 16.3 C 20 %
2831 14-04-2020 16:42:18 14 C 20 %
2832 14-04-2020 16:52:17 14.5 C 20 %
2833 14-04-2020 17:02:18 12.2 C 20 %
2834 14-04-2020 17:12:18 14.2 C 20 %
2835 14-04-2020 17:22:17 19.2 C 20 %
2836 14-04-2020 17:32:17 16.8 C 20 %
2837 14-04-2020 17:42:18 15.5 C 20 %
2838 14-04-2020 17:52:17 16 C 20 %
2839 14-04-2020 18:02:18 13.4 C 20 %
2840 14-04-2020 18:12:18 12.4 C 20 %
2841 14-04-2020 18:22:17 12.1 C 20 %
2842 14-04-2020 18:32:18 11.9 C 20 %
2843 14-04-2020 18:42:18 11.7 C 20 %
2844 14-04-2020 18:52:17 11.3 C 20 %
2845 14-04-2020 19:02:17 11.2 C 20 %
2846 14-04-2020 19:12:18 11 C 20 %
2847 14-04-2020 19:22:18 10.6 C 20 %
2848 14-04-2020 19:32:18 10.3 C 20 %
2849 14-04-2020 19:42:18 10.1 C 20 %
2850 14-04-2020 19:52:17 9.7 C 20 %
Sensor: Nr:Datum:Temp:Feuchte:
Aussen-T/F 2851 14-04-2020 20:02:17 9.3 C 20 %
2852 14-04-2020 20:12:17 8.9 C 20 %
2853 14-04-2020 20:22:17 7.7 C 20 %
2854 14-04-2020 20:32:17 7 C 23 %
2855 14-04-2020 20:42:18 6.7 C 25 %
2856 14-04-2020 20:52:17 6.8 C 25 %
2857 14-04-2020 21:02:17 6.5 C 25 %
2858 14-04-2020 21:12:17 6.3 C 25 %
2859 14-04-2020 21:22:17 6 C 26 %
2860 14-04-2020 21:32:17 6.1 C 26 %
2861 14-04-2020 21:42:17 5.8 C 27 %
2862 14-04-2020 21:52:17 5.6 C 27 %
2863 14-04-2020 22:02:18 5.6 C 27 %
2864 14-04-2020 22:12:18 5.1 C 29 %
2865 14-04-2020 22:22:17 5.2 C 28 %
2866 14-04-2020 22:32:18 5 C 29 %
2867 14-04-2020 22:42:18 4.7 C 30 %
2868 14-04-2020 22:52:18 4.7 C 30 %
2869 14-04-2020 23:02:18 4.3 C 32 %
2870 14-04-2020 23:12:18 3.6 C 34 %
2871 14-04-2020 23:22:17 3.2 C 35 %
2872 14-04-2020 23:32:17 3 C 35 %
2873 14-04-2020 23:42:17 2.8 C 36 %
2874 14-04-2020 23:52:17 2.6 C 36 %
2875 15-04-2020 00:02:18 2.4 C 37 %
Sensor: Nr:Datum:Temp:Feuchte:
Aussen-T/F 2876 15-04-2020 00:12:18 2.1 C 37 %
2877 15-04-2020 00:22:17 1.7 C 39 %
2878 15-04-2020 00:32:18 1.6 C 39 %
2879 15-04-2020 00:42:18 1.6 C 40 %
2880 15-04-2020 00:52:17 1.6 C 39 %
2881 15-04-2020 01:02:17 1.5 C 40 %
2882 15-04-2020 01:12:17 1.3 C 40 %
2883 15-04-2020 01:22:17 1.2 C 40 %
2884 15-04-2020 01:32:17 1.3 C 40 %
2885 15-04-2020 01:42:17 1.2 C 40 %
2886 15-04-2020 01:52:17 1 C 40 %
2887 15-04-2020 02:02:17 0.8 C 41 %
2888 15-04-2020 02:12:17 0.8 C 42 %
2889 15-04-2020 02:22:17 0.8 C 42 %
2890 15-04-2020 02:32:17 0.7 C 42 %
2891 15-04-2020 02:42:17 0.6 C 42 %
2892 15-04-2020 02:52:17 0.1 C 42 %
2893 15-04-2020 03:02:17 0.2 C 43 %
2894 15-04-2020 03:12:17 0.3 C 43 %
2895 15-04-2020 03:22:17 0.2 C 43 %
2896 15-04-2020 03:32:18 0.5 C 43 %
2897 15-04-2020 03:42:18 0.1 C 43 %
2898 15-04-2020 03:52:18 0 C 43 %
2899 15-04-2020 04:02:18 0.2 C 43 %
2900 15-04-2020 04:12:18 -0.2 C 43 %
Sensor: Nr:Datum:Temp:Feuchte:
Aussen-T/F 2901 15-04-2020 04:22:17 0 C 44 %
2902 15-04-2020 04:32:18 -0.2 C 43 %
2903 15-04-2020 04:42:18 -0.3 C 44 %
2904 15-04-2020 04:52:17 -0.4 C 44 %
2905 15-04-2020 05:02:18 -0.4 C 44 %
2906 15-04-2020 05:12:18 -0.3 C 44 %
2907 15-04-2020 05:22:17 -0.4 C 45 %
2908 15-04-2020 05:32:17 -0.5 C 45 %
2909 15-04-2020 05:42:17 -0.4 C 45 %
2910 15-04-2020 05:52:17 -0.7 C 45 %
2911 15-04-2020 06:02:17 -0.7 C 45 %
2912 15-04-2020 06:12:17 -0.7 C 45 %
2913 15-04-2020 06:22:17 -0.7 C 45 %
2914 15-04-2020 06:32:17 -0.6 C 45 %
2915 15-04-2020 06:42:17 -0.7 C 45 %
2916 15-04-2020 06:52:17 -0.9 C 45 %
2917 15-04-2020 07:02:17 -0.7 C 45 %
2918 15-04-2020 07:12:17 -0.6 C 45 %
2919 15-04-2020 07:22:17 -0.5 C 45 %
2920 15-04-2020 07:32:17 -0.1 C 46 %
2921 15-04-2020 07:42:17 0.1 C 45 %
2922 15-04-2020 07:52:18 0.4 C 45 %
2923 15-04-2020 08:02:17 0.7 C 45 %
2924 15-04-2020 08:12:17 1 C 43 %
2925 15-04-2020 08:22:18 1.4 C 42 %
Sensor: Nr:Datum:Temp:Feuchte:
Aussen-T/F 2926 15-04-2020 08:32:18 1.6 C 41 %
2927 15-04-2020 08:42:18 1.9 C 41 %
2928 15-04-2020 08:52:18 2.4 C 40 %
2929 15-04-2020 09:02:17 2.8 C 40 %
2930 15-04-2020 09:12:17 3 C 38 %
2931 15-04-2020 09:22:18 3.4 C 38 %
2932 15-04-2020 09:32:18 3.5 C 37 %
2933 15-04-2020 09:42:18 4.2 C 36 %
2934 15-04-2020 09:52:17 4.4 C 36 %
2935 15-04-2020 10:02:18 4.9 C 35 %
2936 15-04-2020 10:12:18 5.4 C 35 %
2937 15-04-2020 10:22:18 6.2 C 34 %
2938 15-04-2020 10:32:18 6.9 C 33 %
2939 15-04-2020 10:42:18 7.4 C 31 %
2940 15-04-2020 10:52:18 8.1 C 30 %
2941 15-04-2020 11:02:17 8.5 C 30 %
2942 15-04-2020 11:12:17 9.2 C 29 %
2943 15-04-2020 11:22:18 9.9 C 28 %
2944 15-04-2020 11:32:17 10.4 C 26 %
2945 15-04-2020 11:42:17 11 C 22 %
2946 15-04-2020 11:52:18 11.6 C 20 %
2947 15-04-2020 12:02:17 12.3 C 20 %
2948 15-04-2020 12:12:17 12.2 C 20 %
2949 15-04-2020 12:22:18 13.3 C 20 %
2950 15-04-2020 12:32:18 13.2 C 20 %
Sensor: Nr:Datum:Temp:Feuchte:
Aussen-T/F 2951 15-04-2020 12:42:18 13.3 C 20 %
2952 15-04-2020 12:52:17 13.2 C 20 %
2953 15-04-2020 13:02:17 13.4 C 20 %
2954 15-04-2020 13:12:17 13.5 C 20 %
2955 15-04-2020 13:22:18 13.4 C 20 %
2956 15-04-2020 13:32:18 14.2 C 20 %
2957 15-04-2020 13:42:18 14.4 C 20 %
2958 15-04-2020 13:52:17 14.7 C 20 %
2959 15-04-2020 14:02:17 15.2 C 20 %
2960 15-04-2020 14:12:17 15.5 C 20 %
2961 15-04-2020 14:22:17 16.9 C 20 %
2962 15-04-2020 14:32:17 21.6 C 20 %
2963 15-04-2020 14:42:17 23.9 C 20 %
2964 15-04-2020 14:52:17 25.2 C 20 %
2965 15-04-2020 15:02:18 24.8 C 20 %
2966 15-04-2020 15:12:18 23.5 C 20 %
2967 15-04-2020 15:22:18 24.4 C 20 %
2968 15-04-2020 15:32:18 23.9 C 20 %
2969 15-04-2020 15:42:18 24.5 C 20 %
2970 15-04-2020 15:52:17 24.4 C 20 %
2971 15-04-2020 16:02:18 24.8 C 20 %
2972 15-04-2020 16:12:18 24.6 C 20 %
2973 15-04-2020 16:22:17 23.3 C 20 %
2974 15-04-2020 16:32:18 23.7 C 20 %
2975 15-04-2020 16:42:18 25.4 C 20 %
Sensor: Nr:Datum:Temp:Feuchte:
Aussen-T/F 2976 15-04-2020 16:52:18 25.9 C 20 %
2977 15-04-2020 17:02:17 25.4 C 20 %
2978 15-04-2020 17:12:17 26.8 C 20 %
2979 15-04-2020 17:22:18 24.8 C 20 %
2980 15-04-2020 17:32:17 24 C 20 %
2981 15-04-2020 17:42:17 22.4 C 20 %
2982 15-04-2020 17:52:18 24.4 C 20 %
2983 15-04-2020 18:02:18 20.6 C 20 %
2984 15-04-2020 18:12:18 20.2 C 20 %
2985 15-04-2020 18:22:18 19.7 C 20 %
2986 15-04-2020 18:32:18 19.1 C 20 %
2987 15-04-2020 18:42:18 19.4 C 20 %
2988 15-04-2020 18:52:17 19.4 C 20 %
2989 15-04-2020 19:02:17 18.8 C 20 %
2990 15-04-2020 19:12:17 18.7 C 20 %
2991 15-04-2020 19:22:17 18.2 C 20 %
2992 15-04-2020 19:32:17 18 C 20 %
2993 15-04-2020 19:42:18 17.3 C 20 %
2994 15-04-2020 19:52:17 15.3 C 20 %
2995 15-04-2020 20:02:18 14 C 20 %
2996 15-04-2020 20:12:18 13.6 C 20 %
2997 15-04-2020 20:22:18 13.4 C 20 %
2998 15-04-2020 20:32:17 13.1 C 20 %
2999 15-04-2020 20:42:18 12.7 C 20 %
3000 15-04-2020 20:52:17 12 C 20 %
Sensor: Nr:Datum:Temp:Feuchte:
Aussen-T/F 3001 15-04-2020 21:02:18 12 C 20 %
3002 15-04-2020 21:12:18 11 C 20 %
3003 15-04-2020 21:22:17 11 C 20 %
3004 15-04-2020 21:32:17 10.5 C 20 %
3005 15-04-2020 21:42:17 9.4 C 25 %
3006 15-04-2020 21:52:17 9 C 26 %
3007 15-04-2020 22:02:17 8.9 C 27 %
3008 15-04-2020 22:12:17 8.6 C 28 %
3009 15-04-2020 22:22:17 8.8 C 28 %
3010 15-04-2020 22:32:18 8.1 C 28 %
3011 15-04-2020 22:42:18 7.7 C 29 %
3012 15-04-2020 22:52:17 7.3 C 30 %
3013 15-04-2020 23:02:17 7.1 C 30 %
3014 15-04-2020 23:12:17 7.2 C 30 %
3015 15-04-2020 23:22:17 7 C 30 %
3016 15-04-2020 23:32:17 6.6 C 31 %
3017 15-04-2020 23:42:18 6.4 C 32 %
3018 15-04-2020 23:52:17 6.2 C 32 %
3019 16-04-2020 00:02:17 6.2 C 32 %
3020 16-04-2020 00:12:17 6 C 33 %
3021 16-04-2020 00:22:17 5.8 C 34 %
3022 16-04-2020 00:32:18 5.5 C 35 %
3023 16-04-2020 00:42:18 5.3 C 35 %
3024 16-04-2020 00:52:17 5.2 C 35 %
3025 16-04-2020 01:02:17 4.8 C 35 %
Sensor: Nr:Datum:Temp:Feuchte:
Aussen-T/F 3026 16-04-2020 01:12:17 4.8 C 35 %
3027 16-04-2020 01:22:17 5.1 C 35 %
3028 16-04-2020 01:32:18 5.1 C 35 %
3029 16-04-2020 01:42:18 4.7 C 36 %
3030 16-04-2020 01:52:17 4.8 C 36 %
3031 16-04-2020 02:02:18 4.6 C 36 %
3032 16-04-2020 02:12:18 4.3 C 36 %
3033 16-04-2020 02:22:18 3.9 C 38 %
3034 16-04-2020 02:32:17 4.1 C 38 %
3035 16-04-2020 02:42:17 4 C 38 %
3036 16-04-2020 02:52:17 3.7 C 39 %
3037 16-04-2020 03:02:17 3.6 C 40 %
3038 16-04-2020 03:12:17 3.6 C 39 %
3039 16-04-2020 03:22:17 3.5 C 39 %
3040 16-04-2020 03:32:17 3.3 C 39 %
3041 16-04-2020 03:42:17 3 C 40 %
3042 16-04-2020 03:52:17 2.9 C 41 %
3043 16-04-2020 04:02:17 3.2 C 40 %
3044 16-04-2020 04:12:17 3.2 C 40 %
3045 16-04-2020 04:22:17 2.7 C 41 %
3046 16-04-2020 04:32:18 2.6 C 41 %
3047 16-04-2020 04:42:18 3 C 41 %
3048 16-04-2020 04:52:17 2.6 C 42 %
3049 16-04-2020 05:02:17 2.7 C 42 %
3050 16-04-2020 05:12:17 2.7 C 42 %
Sensor: Nr:Datum:Temp:Feuchte:
Aussen-T/F 3051 16-04-2020 05:22:17 2.6 C 42 %
3052 16-04-2020 05:32:17 2.3 C 42 %
3053 16-04-2020 05:42:17 2 C 42 %
3054 16-04-2020 05:52:17 2.1 C 43 %
3055 16-04-2020 06:02:18 2.4 C 43 %
3056 16-04-2020 06:12:18 2 C 42 %
3057 16-04-2020 06:22:17 1.6 C 44 %
3058 16-04-2020 06:32:17 1.4 C 44 %
3059 16-04-2020 06:42:17 1.8 C 45 %
3060 16-04-2020 06:52:17 1.8 C 45 %
3061 16-04-2020 07:02:17 1.8 C 45 %
3062 16-04-2020 07:12:17 1.8 C 45 %
3063 16-04-2020 07:22:17 2.2 C 44 %
3064 16-04-2020 07:32:17 2.1 C 44 %
3065 16-04-2020 07:42:17 2.1 C 44 %
3066 16-04-2020 07:52:17 2.5 C 44 %
3067 16-04-2020 08:02:17 2.5 C 44 %
3068 16-04-2020 08:12:17 2.6 C 44 %
3069 16-04-2020 08:22:17 3 C 43 %
3070 16-04-2020 08:32:18 3.2 C 42 %
3071 16-04-2020 08:42:18 3.5 C 42 %
3072 16-04-2020 08:52:17 3.6 C 41 %
3073 16-04-2020 09:02:18 3.9 C 41 %
3074 16-04-2020 09:12:18 4.2 C 41 %
3075 16-04-2020 09:22:17 4.5 C 40 %
Sensor: Nr:Datum:Temp:Feuchte:
Aussen-T/F 3076 16-04-2020 09:32:17 5.1 C 40 %
3077 16-04-2020 09:42:17 5.8 C 39 %
3078 16-04-2020 09:52:17 6.6 C 37 %
3079 16-04-2020 10:02:18 7 C 36 %
3080 16-04-2020 10:12:18 7.5 C 36 %
3081 16-04-2020 10:22:17 8.1 C 35 %
3082 16-04-2020 10:32:17 9.4 C 34 %
3083 16-04-2020 10:42:18 10.4 C 31 %
3084 16-04-2020 10:52:17 11.2 C 30 %
3085 16-04-2020 11:02:18 12.2 C 29 %
3086 16-04-2020 11:12:18 14.2 C 25 %
3087 16-04-2020 11:22:17 15.5 C 20 %
3088 16-04-2020 11:32:17 16.8 C 20 %
3089 16-04-2020 11:42:17 17.6 C 20 %
3090 16-04-2020 11:52:17 18 C 20 %
3091 16-04-2020 12:02:18 18.4 C 20 %
3092 16-04-2020 12:12:18 18.7 C 20 %
3093 16-04-2020 12:22:17 19.1 C 20 %
3094 16-04-2020 12:32:18 19.3 C 20 %
3095 16-04-2020 12:42:18 19.5 C 20 %
3096 16-04-2020 12:52:17 19.6 C 20 %
3097 16-04-2020 13:02:18 20.1 C 20 %
3098 16-04-2020 13:12:18 20.5 C 20 %
3099 16-04-2020 13:22:17 20.8 C 20 %
3100 16-04-2020 13:32:18 21.1 C 20 %
Sensor: Nr:Datum:Temp:Feuchte:
Aussen-T/F 3101 16-04-2020 13:42:18 21.5 C 20 %
3102 16-04-2020 13:52:17 21.7 C 20 %
3103 16-04-2020 14:02:17 22 C 20 %
3104 16-04-2020 14:12:17 22.4 C 20 %
3105 16-04-2020 14:22:17 22.8 C 20 %
3106 16-04-2020 14:32:17 26.2 C 20 %
3107 16-04-2020 14:42:17 28 C 20 %
3108 16-04-2020 14:52:17 29.6 C 20 %
3109 16-04-2020 15:02:17 29.8 C 20 %
3110 16-04-2020 15:12:17 29.5 C 20 %
3111 16-04-2020 15:22:17 28.5 C 20 %
3112 16-04-2020 15:32:18 30.1 C 20 %
3113 16-04-2020 15:42:18 25.8 C 20 %
3114 16-04-2020 15:52:17 27.1 C 20 %
3115 16-04-2020 16:02:17 29.5 C 20 %
3116 16-04-2020 16:12:17 28.4 C 20 %
3117 16-04-2020 16:22:17 26.5 C 20 %
3118 16-04-2020 16:32:17 26.6 C 20 %
3119 16-04-2020 16:42:18 27.2 C 20 %
3120 16-04-2020 16:52:17 24.9 C 20 %
3121 16-04-2020 17:02:17 25 C 20 %
3122 16-04-2020 17:12:17 26.1 C 20 %
3123 16-04-2020 17:22:18 28.3 C 20 %
3124 16-04-2020 17:32:17 27.6 C 20 %
3125 16-04-2020 17:42:17 27.3 C 20 %
Sensor: Nr:Datum:Temp:Feuchte:
Aussen-T/F 3126 16-04-2020 17:52:17 26.5 C 20 %
3127 16-04-2020 18:02:17 25.6 C 20 %
3128 16-04-2020 18:12:17 24.3 C 20 %
3129 16-04-2020 18:22:17 24.4 C 20 %
3130 16-04-2020 18:32:17 24.2 C 20 %
3131 16-04-2020 18:42:17 23.9 C 20 %
3132 16-04-2020 18:52:17 24 C 20 %
3133 16-04-2020 19:02:17 23.2 C 20 %
3134 16-04-2020 19:12:17 22.9 C 20 %
3135 16-04-2020 19:22:17 22.2 C 20 %
3136 16-04-2020 19:32:18 21.9 C 20 %
3137 16-04-2020 19:42:18 21.2 C 20 %
3138 16-04-2020 19:52:17 20.5 C 20 %
3139 16-04-2020 20:02:17 19.5 C 20 %
3140 16-04-2020 20:12:17 19.2 C 20 %
3141 16-04-2020 20:22:17 19.3 C 20 %
3142 16-04-2020 20:32:18 19.1 C 20 %
3143 16-04-2020 20:42:18 18.9 C 20 %
3144 16-04-2020 20:52:18 18.5 C 20 %
3145 16-04-2020 21:02:17 17.9 C 20 %
3146 16-04-2020 21:12:17 16.5 C 20 %
3147 16-04-2020 21:22:17 16.1 C 20 %
3148 16-04-2020 21:32:18 15.5 C 20 %
3149 16-04-2020 21:42:18 14.7 C 21 %
3150 16-04-2020 21:52:17 14.4 C 22 %
Sensor: Nr:Datum:Temp:Feuchte:
Aussen-T/F 3151 16-04-2020 22:02:17 14.5 C 22 %
3152 16-04-2020 22:12:17 13.5 C 25 %
3153 16-04-2020 22:22:17 14.1 C 25 %
3154 16-04-2020 22:32:17 13.8 C 25 %
3155 16-04-2020 22:42:18 13.1 C 26 %
3156 16-04-2020 22:52:17 12.4 C 28 %
3157 16-04-2020 23:02:17 12.5 C 29 %
3158 16-04-2020 23:12:17 12.2 C 30 %
3159 16-04-2020 23:22:17 11.7 C 30 %
3160 16-04-2020 23:32:18 11.6 C 31 %
3161 16-04-2020 23:42:18 11.6 C 31 %
3162 16-04-2020 23:52:17 11.8 C 31 %
3163 17-04-2020 00:02:18 11.4 C 31 %
3164 17-04-2020 00:12:18 11 C 31 %
3165 17-04-2020 00:22:17 11 C 32 %
3166 17-04-2020 00:32:17 11 C 32 %
3167 17-04-2020 00:42:17 11 C 32 %
3168 17-04-2020 00:52:18 10.4 C 33 %
3169 17-04-2020 01:02:17 10.1 C 34 %
3170 17-04-2020 01:12:18 10.1 C 34 %
3171 17-04-2020 01:22:18 9.8 C 35 %
3172 17-04-2020 01:32:18 10 C 35 %
3173 17-04-2020 01:42:18 10 C 35 %
3174 17-04-2020 01:52:17 9.5 C 36 %
3175 17-04-2020 02:02:17 9.7 C 36 %
Sensor: Nr:Datum:Temp:Feuchte:
Aussen-T/F 3176 17-04-2020 02:12:17 9.6 C 36 %
3177 17-04-2020 02:22:17 9.1 C 36 %
3178 17-04-2020 02:32:17 8.9 C 37 %
3179 17-04-2020 02:42:17 8.5 C 38 %
3180 17-04-2020 02:52:17 8.1 C 38 %
3181 17-04-2020 03:02:17 7.9 C 39 %
3182 17-04-2020 03:12:18 7.9 C 40 %
3183 17-04-2020 03:22:18 7.8 C 40 %
3184 17-04-2020 03:32:17 7.8 C 40 %
3185 17-04-2020 03:42:18 7.8 C 40 %
3186 17-04-2020 03:52:18 8.5 C 39 %
3187 17-04-2020 04:02:17 8.4 C 39 %
3188 17-04-2020 04:12:17 8.3 C 39 %
3189 17-04-2020 04:22:17 8 C 39 %
3190 17-04-2020 04:32:17 7.9 C 40 %
3191 17-04-2020 04:42:17 8 C 40 %
3192 17-04-2020 04:52:17 7.8 C 40 %
3193 17-04-2020 05:02:17 7.5 C 40 %
3194 17-04-2020 05:12:18 6.9 C 41 %
3195 17-04-2020 05:22:17 6.7 C 42 %
3196 17-04-2020 05:32:18 6.6 C 42 %
3197 17-04-2020 05:42:18 6.7 C 43 %
3198 17-04-2020 05:52:18 6.5 C 42 %
3199 17-04-2020 06:02:18 6.5 C 43 %
3200 17-04-2020 06:12:18 6.2 C 43 %
Sensor: Nr:Datum:Temp:Feuchte:
Aussen-T/F 3201 17-04-2020 06:22:17 6 C 43 %
3202 17-04-2020 06:32:17 6 C 44 %
3203 17-04-2020 06:42:17 5.8 C 44 %
3204 17-04-2020 06:52:17 5.8 C 44 %
3205 17-04-2020 07:02:18 5.8 C 45 %
3206 17-04-2020 07:12:18 5.9 C 45 %
3207 17-04-2020 07:22:18 6.1 C 45 %
3208 17-04-2020 07:32:17 6.1 C 45 %
3209 17-04-2020 07:42:17 6.3 C 45 %
3210 17-04-2020 07:52:17 6.3 C 45 %
3211 17-04-2020 08:02:17 6.5 C 45 %
3212 17-04-2020 08:12:17 6.7 C 45 %
3213 17-04-2020 08:22:17 6.9 C 45 %
3214 17-04-2020 08:32:18 7 C 44 %
3215 17-04-2020 08:42:18 7.6 C 44 %
3216 17-04-2020 08:52:17 7.9 C 44 %
3217 17-04-2020 09:02:18 8.4 C 42 %
3218 17-04-2020 09:12:18 8.6 C 42 %
3219 17-04-2020 09:22:17 8.8 C 41 %
3220 17-04-2020 09:32:17 9.3 C 41 %
3221 17-04-2020 09:42:17 9.6 C 40 %
3222 17-04-2020 09:52:18 10.3 C 39 %
3223 17-04-2020 10:02:17 10.8 C 38 %
3224 17-04-2020 10:12:17 11 C 37 %
3225 17-04-2020 10:22:18 11.8 C 36 %
Sensor: Nr:Datum:Temp:Feuchte:
Aussen-T/F 3226 17-04-2020 10:32:18 12.4 C 35 %
3227 17-04-2020 10:42:18 13 C 34 %
3228 17-04-2020 10:52:17 13.9 C 34 %
3229 17-04-2020 11:02:17 14.6 C 32 %
3230 17-04-2020 11:12:17 15.8 C 30 %
3231 17-04-2020 11:22:18 16.5 C 28 %
3232 17-04-2020 11:32:17 17.1 C 28 %
3233 17-04-2020 11:42:17 17.7 C 26 %
3234 17-04-2020 11:52:17 17.9 C 25 %
3235 17-04-2020 12:02:18 18.5 C 25 %
3236 17-04-2020 12:12:18 18.7 C 24 %
3237 17-04-2020 12:22:17 19.1 C 22 %
3238 17-04-2020 12:32:17 19.7 C 20 %
3239 17-04-2020 12:42:17 19.7 C 20 %
3240 17-04-2020 12:52:17 19.7 C 20 %
3241 17-04-2020 13:02:18 20 C 20 %
3242 17-04-2020 13:12:18 20.4 C 20 %
3243 17-04-2020 13:22:17 20.6 C 20 %
3244 17-04-2020 13:32:17 20.8 C 20 %
3245 17-04-2020 13:42:17 21.1 C 20 %
3246 17-04-2020 13:52:17 21.6 C 20 %
3247 17-04-2020 14:02:18 21.8 C 20 %
3248 17-04-2020 14:12:18 22.6 C 20 %
3249 17-04-2020 14:22:17 23.2 C 20 %
3250 17-04-2020 14:32:17 25.2 C 20 %
Sensor: Nr:Datum:Temp:Feuchte:
Aussen-T/F 3251 17-04-2020 14:42:17 29 C 20 %
3252 17-04-2020 14:52:17 32.1 C 20 %
3253 17-04-2020 15:02:17 30.9 C 20 %
3254 17-04-2020 15:12:17 31.4 C 20 %
3255 17-04-2020 15:22:17 29.6 C 20 %
3256 17-04-2020 15:32:17 29.2 C 20 %
3257 17-04-2020 15:42:17 29 C 20 %
3258 17-04-2020 15:52:18 25.7 C 20 %
3259 17-04-2020 16:02:17 30.3 C 20 %
3260 17-04-2020 16:12:17 30.2 C 20 %
3261 17-04-2020 16:22:17 27.5 C 20 %
3262 17-04-2020 16:32:17 28.2 C 20 %
3263 17-04-2020 16:42:17 28.2 C 20 %
3264 17-04-2020 16:52:17 27.7 C 20 %
3265 17-04-2020 17:02:18 29.6 C 20 %
3266 17-04-2020 17:12:18 29.4 C 20 %
3267 17-04-2020 17:22:17 29.5 C 20 %
3268 17-04-2020 17:32:17 30.4 C 20 %
3269 17-04-2020 17:42:18 27.7 C 20 %
3270 17-04-2020 17:52:17 28.5 C 20 %
3271 17-04-2020 18:02:17 26.6 C 20 %
3272 17-04-2020 18:12:17 26.2 C 20 %
3273 17-04-2020 18:22:17 25.7 C 20 %
3274 17-04-2020 18:32:17 24.8 C 20 %
3275 17-04-2020 18:42:17 24.7 C 20 %
Sensor: Nr:Datum:Temp:Feuchte:
Aussen-T/F 3276 17-04-2020 18:52:18 24.2 C 20 %
3277 17-04-2020 19:02:17 24.1 C 20 %
3278 17-04-2020 19:12:17 23.7 C 20 %
3279 17-04-2020 19:22:17 23 C 20 %
3280 17-04-2020 19:32:17 22.2 C 20 %
3281 17-04-2020 19:42:17 21.7 C 20 %
3282 17-04-2020 19:52:17 20.7 C 20 %
3283 17-04-2020 20:02:17 20 C 20 %
3284 17-04-2020 20:12:17 19.5 C 20 %
3285 17-04-2020 20:22:17 18.8 C 21 %
3286 17-04-2020 20:32:17 18.4 C 21 %
3287 17-04-2020 20:42:17 18.2 C 21 %
3288 17-04-2020 20:52:17 17.7 C 23 %
3289 17-04-2020 21:02:17 17.5 C 23 %
3290 17-04-2020 21:12:17 17.7 C 24 %
3291 17-04-2020 21:22:17 17.6 C 25 %
3292 17-04-2020 21:32:18 17.8 C 24 %
3293 17-04-2020 21:42:18 17 C 25 %
3294 17-04-2020 21:52:18 16.8 C 25 %
3295 17-04-2020 22:02:17 16 C 26 %
3296 17-04-2020 22:12:17 16 C 26 %
3297 17-04-2020 22:22:17 15.8 C 26 %
3298 17-04-2020 22:32:17 15.7 C 26 %
3299 17-04-2020 22:42:17 15.1 C 27 %
3300 17-04-2020 22:52:17 14.6 C 29 %
Sensor: Nr:Datum:Temp:Feuchte:
Aussen-T/F 3301 17-04-2020 23:02:17 14.7 C 30 %
3302 17-04-2020 23:12:17 14.4 C 29 %
3303 17-04-2020 23:22:18 14.1 C 30 %
3304 17-04-2020 23:32:17 14 C 30 %
3305 17-04-2020 23:42:17 13.6 C 31 %
3306 17-04-2020 23:52:17 13.5 C 31 %
3307 18-04-2020 00:02:17 13.4 C 31 %
3308 18-04-2020 00:12:17 13.1 C 32 %
3309 18-04-2020 00:22:18 12.6 C 33 %
3310 18-04-2020 00:32:17 12.2 C 33 %
3311 18-04-2020 00:42:18 12 C 33 %
3312 18-04-2020 00:52:17 11.8 C 34 %
3313 18-04-2020 01:02:18 11.8 C 34 %
3314 18-04-2020 01:12:18 11.8 C 34 %
3315 18-04-2020 01:22:17 11.4 C 34 %
3316 18-04-2020 01:32:18 11.1 C 35 %
3317 18-04-2020 01:42:18 10.9 C 36 %
3318 18-04-2020 01:52:17 10.9 C 36 %
3319 18-04-2020 02:02:18 10.8 C 36 %
3320 18-04-2020 02:12:18 10.6 C 36 %
3321 18-04-2020 02:22:17 10.7 C 36 %
3322 18-04-2020 02:32:17 10.1 C 37 %
3323 18-04-2020 02:42:17 10 C 38 %
3324 18-04-2020 02:52:18 9.8 C 38 %
3325 18-04-2020 03:02:17 9.7 C 39 %
Sensor: Nr:Datum:Temp:Feuchte:
Aussen-T/F 3326 18-04-2020 03:12:17 9.6 C 39 %
3327 18-04-2020 03:22:18 9.2 C 39 %
3328 18-04-2020 03:32:18 9 C 39 %
3329 18-04-2020 03:42:18 9 C 39 %
3330 18-04-2020 03:52:18 8.9 C 40 %
3331 18-04-2020 04:02:17 9 C 40 %
3332 18-04-2020 04:12:17 9 C 40 %
3333 18-04-2020 04:22:17 9 C 40 %
3334 18-04-2020 04:32:18 8.9 C 41 %
3335 18-04-2020 04:42:18 8.8 C 41 %
3336 18-04-2020 04:52:17 8.6 C 41 %
3337 18-04-2020 05:02:17 8.4 C 41 %
3338 18-04-2020 05:12:17 8.5 C 41 %
3339 18-04-2020 05:22:17 8.7 C 40 %
3340 18-04-2020 05:32:17 8.6 C 41 %
3341 18-04-2020 05:42:17 8.3 C 41 %
3342 18-04-2020 05:52:18 8.6 C 41 %
3343 18-04-2020 06:02:17 8.7 C 41 %
3344 18-04-2020 06:12:17 8.6 C 41 %
3345 18-04-2020 06:22:17 8.7 C 41 %
3346 18-04-2020 06:32:17 8.3 C 41 %
3347 18-04-2020 06:42:17 8.1 C 41 %
3348 18-04-2020 06:52:17 8.2 C 41 %
3349 18-04-2020 07:02:17 8.4 C 42 %
3350 18-04-2020 07:12:17 8.7 C 42 %
Sensor: Nr:Datum:Temp:Feuchte:
Aussen-T/F 3351 18-04-2020 07:22:17 9.4 C 42 %
3352 18-04-2020 07:32:17 9.6 C 41 %
3353 18-04-2020 07:42:17 9.7 C 41 %
3354 18-04-2020 07:52:17 9.7 C 41 %
3355 18-04-2020 08:02:18 9.7 C 41 %
3356 18-04-2020 08:12:18 10 C 40 %
3357 18-04-2020 08:22:17 10.1 C 40 %
3358 18-04-2020 08:32:17 10.2 C 40 %
3359 18-04-2020 08:42:18 10.6 C 40 %
3360 18-04-2020 08:52:18 11.1 C 39 %
3361 18-04-2020 09:02:17 11.7 C 38 %
3362 18-04-2020 09:12:17 12.1 C 37 %
3363 18-04-2020 09:22:17 12.5 C 36 %
3364 18-04-2020 09:32:18 13.4 C 35 %
3365 18-04-2020 09:42:18 13.8 C 34 %
3366 18-04-2020 09:52:18 14.4 C 32 %
3367 18-04-2020 10:02:18 15 C 31 %
3368 18-04-2020 10:12:18 14.9 C 31 %
3369 18-04-2020 10:22:18 16.2 C 30 %
3370 18-04-2020 10:32:18 15.8 C 30 %
3371 18-04-2020 10:42:18 17.2 C 29 %
3372 18-04-2020 10:52:18 17.9 C 29 %
3373 18-04-2020 11:02:18 18.5 C 27 %
3374 18-04-2020 11:12:18 18.3 C 27 %
3375 18-04-2020 11:22:17 18.5 C 26 %
Sensor: Nr:Datum:Temp:Feuchte:
Aussen-T/F 3376 18-04-2020 11:32:18 17.8 C 27 %
3377 18-04-2020 11:42:18 18.6 C 26 %
3378 18-04-2020 11:52:18 18.9 C 27 %
3379 18-04-2020 12:02:17 19.1 C 26 %
3380 18-04-2020 12:12:17 20 C 25 %
3381 18-04-2020 12:22:18 20.2 C 24 %
3382 18-04-2020 12:32:18 20.1 C 24 %
3383 18-04-2020 12:42:18 19.6 C 25 %
3384 18-04-2020 12:52:17 19.3 C 25 %
3385 18-04-2020 13:02:17 20.8 C 24 %
3386 18-04-2020 13:12:17 21.8 C 21 %
3387 18-04-2020 13:22:18 21.5 C 20 %
3388 18-04-2020 13:32:18 21.8 C 20 %
3389 18-04-2020 13:42:18 22.4 C 20 %
3390 18-04-2020 13:52:18 21.6 C 20 %
3391 18-04-2020 14:02:18 21.2 C 20 %
3392 18-04-2020 14:12:18 21.7 C 20 %
3393 18-04-2020 14:22:18 22.4 C 20 %
3394 18-04-2020 14:32:17 22.4 C 20 %
3395 18-04-2020 14:42:17 22.8 C 20 %
3396 18-04-2020 14:52:17 22.6 C 20 %
3397 18-04-2020 15:02:17 25.4 C 20 %
3398 18-04-2020 15:12:18 30.4 C 20 %
3399 18-04-2020 15:22:17 28.2 C 20 %
3400 18-04-2020 15:32:17 23.8 C 20 %
Sensor: Nr:Datum:Temp:Feuchte:
Aussen-T/F 3401 18-04-2020 15:42:17 23.2 C 20 %
3402 18-04-2020 15:52:17 22.2 C 20 %
3403 18-04-2020 16:02:18 21.8 C 20 %
3404 18-04-2020 16:12:18 21.8 C 20 %
3405 18-04-2020 16:22:18 20.6 C 20 %
3406 18-04-2020 16:32:17 19.7 C 25 %
3407 18-04-2020 16:42:17 20 C 25 %
3408 18-04-2020 16:52:17 19.9 C 25 %
3409 18-04-2020 17:02:17 19.1 C 26 %
3410 18-04-2020 17:12:17 18.9 C 27 %
3411 18-04-2020 17:22:17 18.7 C 28 %
3412 18-04-2020 17:32:18 17.6 C 33 %
3413 18-04-2020 17:42:18 17.5 C 33 %
3414 18-04-2020 17:52:18 17.4 C 33 %
3415 18-04-2020 18:02:18 17.3 C 34 %
3416 18-04-2020 18:12:18 17.1 C 34 %
3417 18-04-2020 18:22:17 17.3 C 33 %
3418 18-04-2020 18:32:18 17.7 C 31 %
3419 18-04-2020 18:42:18 17.7 C 31 %
3420 18-04-2020 18:52:17 17.9 C 30 %
3421 18-04-2020 19:02:18 18.1 C 30 %
3422 18-04-2020 19:12:18 17.9 C 30 %
3423 18-04-2020 19:22:17 17.6 C 30 %
3424 18-04-2020 19:32:17 17.8 C 30 %
3425 18-04-2020 19:42:17 18.1 C 29 %
Sensor: Nr:Datum:Temp:Feuchte:
Aussen-T/F 3426 18-04-2020 19:52:18 17.7 C 30 %
3427 18-04-2020 20:02:17 17.3 C 30 %
3428 18-04-2020 20:12:17 16.5 C 30 %
3429 18-04-2020 20:22:17 15.9 C 31 %
3430 18-04-2020 20:32:17 15 C 32 %
3431 18-04-2020 20:42:17 14.8 C 34 %
3432 18-04-2020 20:52:17 14.5 C 34 %
3433 18-04-2020 21:02:18 14.5 C 35 %
3434 18-04-2020 21:12:18 14.9 C 34 %
3435 18-04-2020 21:22:17 15 C 33 %
3436 18-04-2020 21:32:17 15.1 C 33 %
3437 18-04-2020 21:42:17 15 C 33 %
3438 18-04-2020 21:52:18 14.8 C 34 %
3439 18-04-2020 22:02:17 14.4 C 34 %
3440 18-04-2020 22:12:17 14.5 C 35 %
3441 18-04-2020 22:22:17 13.7 C 35 %
3442 18-04-2020 22:32:18 13.4 C 36 %
3443 18-04-2020 22:42:18 12.8 C 37 %
3444 18-04-2020 22:52:17 12.8 C 37 %
3445 18-04-2020 23:02:18 12.7 C 38 %
3446 18-04-2020 23:12:18 12.3 C 38 %
3447 18-04-2020 23:22:17 12.1 C 38 %
3448 18-04-2020 23:32:17 11.7 C 40 %
3449 18-04-2020 23:42:17 11.1 C 40 %
3450 18-04-2020 23:52:17 10.9 C 42 %
Sensor: Nr:Datum:Temp:Feuchte:
Aussen-T/F 3451 19-04-2020 00:02:18 10.6 C 43 %
3452 19-04-2020 00:12:18 10.7 C 43 %
3453 19-04-2020 00:22:17 10.2 C 43 %
3454 19-04-2020 00:32:17 10.2 C 43 %
3455 19-04-2020 00:42:17 10.1 C 44 %
3456 19-04-2020 00:52:17 9.8 C 44 %
3457 19-04-2020 01:02:17 9.8 C 45 %
3458 19-04-2020 01:12:17 9.9 C 45 %
3459 19-04-2020 01:22:17 9.6 C 44 %
3460 19-04-2020 01:32:17 9.6 C 45 %
3461 19-04-2020 01:42:17 9.9 C 45 %
3462 19-04-2020 01:52:17 9.5 C 45 %
3463 19-04-2020 02:02:17 9.5 C 45 %
3464 19-04-2020 02:12:18 9.6 C 45 %
3465 19-04-2020 02:22:17 9.7 C 45 %
3466 19-04-2020 02:32:17 10 C 45 %
3467 19-04-2020 02:42:17 10 C 44 %
3468 19-04-2020 02:52:17 9.8 C 45 %
3469 19-04-2020 03:02:17 9.6 C 45 %
3470 19-04-2020 03:12:17 9.3 C 44 %
3471 19-04-2020 03:22:17 9.1 C 45 %
3472 19-04-2020 03:32:17 8.9 C 45 %
3473 19-04-2020 03:42:17 8.7 C 45 %
3474 19-04-2020 03:52:17 8.7 C 45 %
3475 19-04-2020 04:02:17 8.5 C 45 %
Sensor: Nr:Datum:Temp:Feuchte:
Aussen-T/F 3476 19-04-2020 04:12:17 9.2 C 45 %
3477 19-04-2020 04:22:17 9.2 C 45 %
3478 19-04-2020 04:32:17 9.4 C 45 %
3479 19-04-2020 04:42:17 9.6 C 45 %
3480 19-04-2020 04:52:17 9.6 C 45 %
3481 19-04-2020 05:02:17 9.7 C 45 %
3482 19-04-2020 05:12:17 9.6 C 45 %
3483 19-04-2020 05:22:18 9.6 C 45 %
3484 19-04-2020 05:32:17 9.7 C 45 %
3485 19-04-2020 05:42:17 9.7 C 45 %
3486 19-04-2020 05:52:17 9.8 C 45 %
3487 19-04-2020 06:02:17 9.9 C 45 %
3488 19-04-2020 06:12:17 10.1 C 44 %
3489 19-04-2020 06:22:17 10.1 C 44 %
3490 19-04-2020 06:32:17 10.2 C 44 %
3491 19-04-2020 06:42:17 10.2 C 44 %
3492 19-04-2020 06:52:18 10.3 C 44 %
3493 19-04-2020 07:02:18 10.3 C 44 %
3494 19-04-2020 07:12:18 10.4 C 44 %
3495 19-04-2020 07:22:17 10.6 C 44 %
3496 19-04-2020 07:32:18 10.5 C 43 %
3497 19-04-2020 07:42:18 10.6 C 43 %
3498 19-04-2020 07:52:17 10.6 C 43 %
3499 19-04-2020 08:02:17 10.7 C 43 %
3500 19-04-2020 08:12:17 11.3 C 42 %
Sensor: Nr:Datum:Temp:Feuchte:
Aussen-T/F 3501 19-04-2020 08:22:17 11.5 C 41 %
3502 19-04-2020 08:32:17 12 C 40 %
3503 19-04-2020 08:42:17 12.4 C 39 %
3504 19-04-2020 08:52:17 13.2 C 37 %
3505 19-04-2020 09:02:17 12.5 C 38 %
3506 19-04-2020 09:12:18 13 C 37 %
3507 19-04-2020 09:22:18 13.2 C 36 %
3508 19-04-2020 09:32:17 13.5 C 36 %
3509 19-04-2020 09:42:17 13.8 C 36 %
3510 19-04-2020 09:52:17 13.8 C 35 %
3511 19-04-2020 10:02:17 13.7 C 35 %
3512 19-04-2020 10:12:17 14.2 C 35 %
3513 19-04-2020 10:22:17 14.7 C 34 %
3514 19-04-2020 10:32:17 15.5 C 33 %
3515 19-04-2020 10:42:17 16.4 C 31 %
3516 19-04-2020 10:52:17 16.4 C 31 %
3517 19-04-2020 11:02:17 15.7 C 32 %
3518 19-04-2020 11:12:17 14.7 C 33 %
3519 19-04-2020 11:22:17 14.7 C 33 %
3520 19-04-2020 11:32:17 14.4 C 34 %
3521 19-04-2020 11:42:17 14 C 34 %
3522 19-04-2020 11:52:17 13.8 C 35 %
3523 19-04-2020 12:02:17 14.2 C 34 %
3524 19-04-2020 12:12:17 14.7 C 34 %
3525 19-04-2020 12:22:17 16 C 31 %
Sensor: Nr:Datum:Temp:Feuchte:
Aussen-T/F 3526 19-04-2020 12:32:18 16 C 31 %
3527 19-04-2020 12:42:18 16.3 C 30 %
3528 19-04-2020 12:52:17 16.9 C 30 %
3529 19-04-2020 13:02:17 17.4 C 28 %
3530 19-04-2020 13:12:17 16.9 C 29 %
3531 19-04-2020 13:22:17 17.4 C 27 %
3532 19-04-2020 13:32:17 18.8 C 26 %
3533 19-04-2020 13:42:17 19.1 C 25 %
3534 19-04-2020 13:52:17 19.3 C 25 %
3535 19-04-2020 14:02:18 18.8 C 25 %
3536 19-04-2020 14:12:18 18.6 C 25 %
3537 19-04-2020 14:22:17 18.1 C 25 %
3538 19-04-2020 14:32:17 17.4 C 26 %
3539 19-04-2020 14:42:17 18 C 26 %
3540 19-04-2020 14:52:17 17.1 C 26 %
3541 19-04-2020 15:02:18 16.9 C 26 %
3542 19-04-2020 15:12:18 16.6 C 26 %
3543 19-04-2020 15:22:17 17 C 25 %
3544 19-04-2020 15:32:17 17.2 C 25 %
3545 19-04-2020 15:42:18 17.8 C 25 %
3546 19-04-2020 15:52:18 18.1 C 24 %
3547 19-04-2020 16:02:17 19.2 C 22 %
3548 19-04-2020 16:12:17 22.2 C 20 %
3549 19-04-2020 16:22:17 20.2 C 20 %
3550 19-04-2020 16:32:17 18.6 C 20 %
Sensor: Nr:Datum:Temp:Feuchte:
Aussen-T/F 3551 19-04-2020 16:42:17 20.5 C 20 %
3552 19-04-2020 16:52:17 21.3 C 20 %
3553 19-04-2020 17:02:17 17.5 C 20 %
3554 19-04-2020 17:12:17 18.6 C 20 %
3555 19-04-2020 17:22:17 19.7 C 20 %
3556 19-04-2020 17:32:18 18.9 C 20 %
3557 19-04-2020 17:42:18 19.2 C 20 %
3558 19-04-2020 17:52:17 18.6 C 20 %
3559 19-04-2020 18:02:18 17.4 C 20 %
3560 19-04-2020 18:12:18 17.3 C 20 %
3561 19-04-2020 18:22:17 17.3 C 20 %
3562 19-04-2020 18:32:17 17.3 C 20 %
3563 19-04-2020 18:42:17 16.8 C 20 %
3564 19-04-2020 18:52:17 16.8 C 20 %
3565 19-04-2020 19:02:17 16.8 C 20 %
3566 19-04-2020 19:12:17 16.7 C 20 %
3567 19-04-2020 19:22:17 16.3 C 20 %
3568 19-04-2020 19:32:18 16 C 20 %
3569 19-04-2020 19:42:18 15.6 C 20 %
3570 19-04-2020 19:52:17 15.1 C 20 %
3571 19-04-2020 20:02:18 14.7 C 20 %
3572 19-04-2020 20:12:18 13.7 C 23 %
3573 19-04-2020 20:22:17 13.3 C 24 %
3574 19-04-2020 20:32:17 13 C 25 %
3575 19-04-2020 20:42:17 12.5 C 26 %
Sensor: Nr:Datum:Temp:Feuchte:
Aussen-T/F 3576 19-04-2020 20:52:17 12.3 C 26 %
3577 19-04-2020 21:02:18 12 C 26 %
3578 19-04-2020 21:12:18 12 C 26 %
3579 19-04-2020 21:22:17 11.7 C 27 %
3580 19-04-2020 21:32:17 11.5 C 27 %
3581 19-04-2020 21:42:17 11.4 C 27 %
3582 19-04-2020 21:52:17 11 C 27 %
3583 19-04-2020 22:02:17 11.2 C 26 %
3584 19-04-2020 22:12:17 11 C 26 %
3585 19-04-2020 22:22:17 11.1 C 26 %
3586 19-04-2020 22:32:17 10.9 C 26 %
3587 19-04-2020 22:42:17 10.3 C 26 %
3588 19-04-2020 22:52:17 10.2 C 26 %
3589 19-04-2020 23:02:18 11.1 C 25 %
3590 19-04-2020 23:12:18 10.1 C 25 %
3591 19-04-2020 23:22:18 9.7 C 27 %
3592 19-04-2020 23:32:17 10.3 C 22 %
3593 19-04-2020 23:42:17 10.3 C 25 %
3594 19-04-2020 23:52:17 10.3 C 23 %
3595 20-04-2020 00:02:17 10.1 C 25 %
3596 20-04-2020 00:12:17 9.6 C 25 %
3597 20-04-2020 00:22:17 10.1 C 21 %
3598 20-04-2020 00:32:18 9.9 C 23 %
3599 20-04-2020 00:42:18 9.6 C 25 %
3600 20-04-2020 00:52:18 9.3 C 25 %
Sensor: Nr:Datum:Temp:Feuchte:
Aussen-T/F 3601 20-04-2020 01:02:17 9.8 C 23 %
3602 20-04-2020 01:12:17 9.3 C 23 %
3603 20-04-2020 01:22:17 9.1 C 21 %
3604 20-04-2020 01:32:17 9.6 C 21 %
3605 20-04-2020 01:42:17 9.1 C 21 %
3606 20-04-2020 01:52:17 8.5 C 25 %
3607 20-04-2020 02:02:18 8.1 C 26 %
3608 20-04-2020 02:12:18 7.9 C 26 %
3609 20-04-2020 02:22:17 7.5 C 27 %
3610 20-04-2020 02:32:18 7.3 C 27 %
3611 20-04-2020 02:42:18 7.3 C 27 %
3612 20-04-2020 02:52:17 7.3 C 27 %
3613 20-04-2020 03:02:17 7 C 27 %
3614 20-04-2020 03:12:17 6.9 C 28 %
3615 20-04-2020 03:22:17 6.7 C 29 %
3616 20-04-2020 03:32:17 6.9 C 28 %
3617 20-04-2020 03:42:17 6.9 C 28 %
3618 20-04-2020 03:52:17 6.7 C 29 %
3619 20-04-2020 04:02:17 6.6 C 28 %
3620 20-04-2020 04:12:17 6.5 C 28 %
3621 20-04-2020 04:22:17 6.4 C 29 %
3622 20-04-2020 04:32:18 6.4 C 28 %
3623 20-04-2020 04:42:18 6.4 C 28 %
3624 20-04-2020 04:52:17 6.2 C 29 %
3625 20-04-2020 05:02:18 6.4 C 29 %
Sensor: Nr:Datum:Temp:Feuchte:
Aussen-T/F 3626 20-04-2020 05:12:18 6.3 C 29 %
3627 20-04-2020 05:22:17 6.3 C 29 %
3628 20-04-2020 05:32:17 6.2 C 30 %
3629 20-04-2020 05:42:18 6.3 C 29 %
3630 20-04-2020 05:52:17 6.3 C 29 %
3631 20-04-2020 06:02:18 6 C 30 %
3632 20-04-2020 06:12:18 5.9 C 30 %
3633 20-04-2020 06:22:17 5.9 C 30 %
3634 20-04-2020 06:32:17 6.1 C 30 %
3635 20-04-2020 06:42:17 6.1 C 30 %
3636 20-04-2020 06:52:17 5.9 C 30 %
3637 20-04-2020 07:02:17 6.1 C 30 %
3638 20-04-2020 07:12:17 6.2 C 30 %
3639 20-04-2020 07:22:17 6.2 C 30 %
3640 20-04-2020 07:32:17 6.4 C 30 %
3641 20-04-2020 07:42:17 7.2 C 27 %
3642 20-04-2020 07:52:17 7.4 C 27 %
3643 20-04-2020 08:02:18 7.3 C 27 %
3644 20-04-2020 08:12:18 7.9 C 26 %
3645 20-04-2020 08:22:17 7.8 C 27 %
3646 20-04-2020 08:32:17 7.7 C 28 %
3647 20-04-2020 08:42:18 7.9 C 26 %
3648 20-04-2020 08:52:18 8.1 C 26 %
3649 20-04-2020 09:02:17 8.3 C 26 %
3650 20-04-2020 09:12:17 8.2 C 27 %
Sensor: Nr:Datum:Temp:Feuchte:
Aussen-T/F 3651 20-04-2020 09:22:17 8.4 C 27 %
3652 20-04-2020 09:32:17 9 C 25 %
3653 20-04-2020 09:42:17 9.4 C 25 %
3654 20-04-2020 09:52:18 9.4 C 26 %
3655 20-04-2020 10:02:18 9.9 C 26 %
3656 20-04-2020 10:12:18 10.7 C 22 %
3657 20-04-2020 10:22:17 11.4 C 20 %
3658 20-04-2020 10:32:17 12.1 C 20 %
3659 20-04-2020 10:42:18 12.7 C 20 %
3660 20-04-2020 10:52:17 13.1 C 20 %
3661 20-04-2020 11:02:18 13.7 C 20 %
3662 20-04-2020 11:12:18 14 C 20 %
3663 20-04-2020 11:22:17 14.4 C 20 %
3664 20-04-2020 11:32:17 14.7 C 20 %
3665 20-04-2020 11:42:18 14.8 C 20 %
3666 20-04-2020 11:52:17 15 C 20 %
3667 20-04-2020 12:02:17 15.2 C 20 %
3668 20-04-2020 12:12:17 15 C 20 %
3669 20-04-2020 12:22:17 15 C 20 %
3670 20-04-2020 12:32:17 15.1 C 20 %
3671 20-04-2020 12:42:17 15.1 C 20 %
3672 20-04-2020 12:52:17 15.4 C 20 %
3673 20-04-2020 13:02:17 15.4 C 20 %
3674 20-04-2020 13:12:17 16 C 20 %
3675 20-04-2020 13:22:17 15.8 C 20 %
Sensor: Nr:Datum:Temp:Feuchte:
Aussen-T/F 3676 20-04-2020 13:32:17 16.1 C 20 %
3677 20-04-2020 13:42:17 16.1 C 20 %
3678 20-04-2020 13:52:17 16.8 C 20 %
3679 20-04-2020 14:02:17 16.9 C 20 %
3680 20-04-2020 14:12:17 17.3 C 20 %
3681 20-04-2020 14:22:17 18.3 C 20 %
3682 20-04-2020 14:32:18 21 C 20 %
3683 20-04-2020 14:42:18 23 C 20 %
3684 20-04-2020 14:52:18 23.2 C 20 %
3685 20-04-2020 15:02:17 22.9 C 20 %
3686 20-04-2020 15:12:17 21.8 C 20 %
3687 20-04-2020 15:22:17 22.9 C 20 %
3688 20-04-2020 15:32:17 23.3 C 20 %
3689 20-04-2020 15:42:17 24.7 C 20 %
3690 20-04-2020 15:52:17 22.5 C 20 %
3691 20-04-2020 16:02:17 24.5 C 20 %
3692 20-04-2020 16:12:17 22.7 C 20 %
3693 20-04-2020 16:22:17 23 C 20 %
3694 20-04-2020 16:32:17 23.5 C 20 %
3695 20-04-2020 16:42:17 23.6 C 20 %
3696 20-04-2020 16:52:17 23.4 C 20 %
3697 20-04-2020 17:02:17 23.7 C 20 %
3698 20-04-2020 17:12:17 22.3 C 20 %
3699 20-04-2020 17:22:17 21.6 C 20 %
3700 20-04-2020 17:32:17 20.4 C 20 %
Sensor: Nr:Datum:Temp:Feuchte:
Aussen-T/F 3701 20-04-2020 17:42:17 22.4 C 20 %
3702 20-04-2020 17:52:17 20.9 C 20 %
3703 20-04-2020 18:02:18 19.1 C 20 %
3704 20-04-2020 18:12:18 19 C 20 %
3705 20-04-2020 18:22:18 18.5 C 20 %
3706 20-04-2020 18:32:17 18.4 C 20 %
3707 20-04-2020 18:42:18 18.2 C 20 %
3708 20-04-2020 18:52:18 18.3 C 20 %
3709 20-04-2020 19:02:17 17.8 C 20 %
3710 20-04-2020 19:12:17 17.6 C 20 %
3711 20-04-2020 19:22:17 17.2 C 20 %
3712 20-04-2020 19:32:17 17 C 20 %
3713 20-04-2020 19:42:17 16.6 C 20 %
3714 20-04-2020 19:52:17 16.3 C 20 %
3715 20-04-2020 20:02:17 16 C 20 %
3716 20-04-2020 20:12:17 15.6 C 20 %
3717 20-04-2020 20:22:17 15 C 20 %
3718 20-04-2020 20:32:17 14.4 C 20 %
3719 20-04-2020 20:42:17 14.5 C 20 %
3720 20-04-2020 20:52:17 13.8 C 20 %
3721 20-04-2020 21:02:17 13.7 C 20 %
3722 20-04-2020 21:12:17 12.9 C 20 %
3723 20-04-2020 21:22:17 12.6 C 20 %
3724 20-04-2020 21:32:17 12 C 20 %
3725 20-04-2020 21:42:17 12.2 C 20 %
Sensor: Nr:Datum:Temp:Feuchte:
Aussen-T/F 3726 20-04-2020 21:52:17 12.6 C 20 %
3727 20-04-2020 22:02:17 11.8 C 20 %
3728 20-04-2020 22:12:17 11.9 C 20 %
3729 20-04-2020 22:22:17 12.1 C 20 %
3730 20-04-2020 22:32:17 12.2 C 20 %
3731 20-04-2020 22:42:17 11.9 C 20 %
3732 20-04-2020 22:52:18 11.5 C 20 %
3733 20-04-2020 23:02:17 11.5 C 20 %
3734 20-04-2020 23:12:17 11.6 C 20 %
3735 20-04-2020 23:22:17 11 C 20 %
3736 20-04-2020 23:32:18 11.6 C 20 %
3737 20-04-2020 23:42:18 11 C 20 %
3738 20-04-2020 23:52:17 11 C 20 %
3739 21-04-2020 00:02:17 10.9 C 20 %
3740 21-04-2020 00:12:17 10.3 C 20 %
3741 21-04-2020 00:22:17 10.4 C 20 %
3742 21-04-2020 00:32:17 9.9 C 20 %
3743 21-04-2020 00:42:17 10.5 C 20 %
3744 21-04-2020 00:52:17 10 C 20 %
3745 21-04-2020 01:02:18 9.4 C 20 %
3746 21-04-2020 01:12:18 8.9 C 20 %
3747 21-04-2020 01:22:18 9 C 20 %
3748 21-04-2020 01:32:18 8.9 C 20 %
3749 21-04-2020 01:42:18 9.2 C 20 %
3750 21-04-2020 01:52:17 8.4 C 20 %
Sensor: Nr:Datum:Temp:Feuchte:
Aussen-T/F 3751 21-04-2020 02:02:17 9.2 C 20 %
3752 21-04-2020 02:12:18 9.1 C 20 %
3753 21-04-2020 02:22:17 9.1 C 20 %
3754 21-04-2020 02:32:18 8.9 C 20 %
3755 21-04-2020 02:42:18 9.2 C 20 %
3756 21-04-2020 02:52:17 9 C 20 %
3757 21-04-2020 03:02:17 9.3 C 20 %
3758 21-04-2020 03:12:17 9.1 C 20 %
3759 21-04-2020 03:22:18 9.2 C 20 %
3760 21-04-2020 03:32:17 9.1 C 20 %
3761 21-04-2020 03:42:17 8.3 C 20 %
3762 21-04-2020 03:52:18 8.6 C 20 %
3763 21-04-2020 04:02:18 8.1 C 20 %
3764 21-04-2020 04:12:18 7.4 C 23 %
3765 21-04-2020 04:22:17 7.8 C 20 %
3766 21-04-2020 04:32:17 7.7 C 23 %
3767 21-04-2020 04:42:17 7.5 C 25 %
3768 21-04-2020 04:52:17 7.5 C 25 %
3769 21-04-2020 05:02:17 7.1 C 25 %
3770 21-04-2020 05:12:17 7.7 C 25 %
3771 21-04-2020 05:22:17 7.3 C 25 %
3772 21-04-2020 05:32:18 7 C 25 %
3773 21-04-2020 05:42:18 6.8 C 26 %
3774 21-04-2020 05:52:17 6.5 C 27 %
3775 21-04-2020 06:02:17 6.9 C 27 %
Sensor: Nr:Datum:Temp:Feuchte:
Aussen-T/F 3776 21-04-2020 06:12:17 6.6 C 27 %
3777 21-04-2020 06:22:18 6.6 C 27 %
3778 21-04-2020 06:32:18 6.3 C 28 %
3779 21-04-2020 06:42:18 6.4 C 28 %
3780 21-04-2020 06:52:17 6.3 C 29 %
3781 21-04-2020 07:02:18 6.1 C 30 %
3782 21-04-2020 07:12:18 6.2 C 29 %
3783 21-04-2020 07:22:17 6.3 C 30 %
3784 21-04-2020 07:32:17 6.5 C 30 %
3785 21-04-2020 07:42:17 7.3 C 27 %
3786 21-04-2020 07:52:17 6.9 C 29 %
3787 21-04-2020 08:02:17 7.4 C 27 %
3788 21-04-2020 08:12:17 7.7 C 26 %
3789 21-04-2020 08:22:17 7.6 C 26 %
3790 21-04-2020 08:32:17 7.2 C 28 %
3791 21-04-2020 08:42:18 7.5 C 27 %
3792 21-04-2020 08:52:17 8.3 C 27 %
3793 21-04-2020 09:02:17 8.7 C 25 %
3794 21-04-2020 09:12:17 9.2 C 23 %
3795 21-04-2020 09:22:17 9.7 C 21 %
3796 21-04-2020 09:32:17 10.2 C 20 %
3797 21-04-2020 09:42:17 10.7 C 20 %
3798 21-04-2020 09:52:17 10.9 C 20 %
3799 21-04-2020 10:02:17 10.9 C 20 %
3800 21-04-2020 10:12:17 11.7 C 20 %
Sensor: Nr:Datum:Temp:Feuchte:
Aussen-T/F 3801 21-04-2020 10:22:17 12.2 C 20 %
3802 21-04-2020 10:32:17 12.8 C 20 %
3803 21-04-2020 10:42:17 13.2 C 20 %
3804 21-04-2020 10:52:17 13.5 C 20 %
3805 21-04-2020 11:02:17 13.9 C 20 %
3806 21-04-2020 11:12:17 14.6 C 20 %
3807 21-04-2020 11:22:17 14.6 C 20 %
3808 21-04-2020 11:32:18 14.7 C 20 %
3809 21-04-2020 11:42:18 15.2 C 20 %
3810 21-04-2020 11:52:18 15.7 C 20 %
3811 21-04-2020 12:02:17 16.4 C 20 %
3812 21-04-2020 12:12:18 16.1 C 20 %
3813 21-04-2020 12:22:17 16.1 C 20 %
3814 21-04-2020 12:32:17 16.2 C 20 %
3815 21-04-2020 12:42:17 16.4 C 20 %
3816 21-04-2020 12:52:17 16.6 C 20 %
3817 21-04-2020 13:02:17 16.9 C 20 %
3818 21-04-2020 13:12:17 17.4 C 20 %
3819 21-04-2020 13:22:17 17.2 C 20 %
3820 21-04-2020 13:32:17 17.3 C 20 %
3821 21-04-2020 13:42:17 17.9 C 20 %
3822 21-04-2020 13:52:17 18.1 C 20 %
3823 21-04-2020 14:02:17 18.5 C 20 %
3824 21-04-2020 14:12:17 19 C 20 %
3825 21-04-2020 14:22:17 19.4 C 20 %
Sensor: Nr:Datum:Temp:Feuchte:
Aussen-T/F 3826 21-04-2020 14:32:17 22 C 20 %
3827 21-04-2020 14:42:17 24.4 C 20 %
3828 21-04-2020 14:52:17 24.2 C 20 %
3829 21-04-2020 15:02:17 24.5 C 20 %
3830 21-04-2020 15:12:17 22.2 C 20 %
3831 21-04-2020 15:22:17 23.7 C 20 %
3832 21-04-2020 15:32:18 23.2 C 20 %
3833 21-04-2020 15:42:18 24 C 20 %
3834 21-04-2020 15:52:17 23.4 C 20 %
3835 21-04-2020 16:02:18 22.8 C 20 %
3836 21-04-2020 16:12:18 23.2 C 20 %
3837 21-04-2020 16:22:17 22.9 C 20 %
3838 21-04-2020 16:32:17 23.2 C 20 %
3839 21-04-2020 16:42:17 24.3 C 20 %
3840 21-04-2020 16:52:17 22.8 C 20 %
3841 21-04-2020 17:02:17 23.6 C 20 %
3842 21-04-2020 17:12:17 24.8 C 20 %
3843 21-04-2020 17:22:18 22.8 C 20 %
3844 21-04-2020 17:32:17 21.9 C 20 %
3845 21-04-2020 17:42:17 22.3 C 20 %
3846 21-04-2020 17:52:17 22.9 C 20 %
3847 21-04-2020 18:02:18 21.1 C 20 %
3848 21-04-2020 18:12:18 20.9 C 20 %
3849 21-04-2020 18:22:17 20.5 C 20 %
3850 21-04-2020 18:32:17 20.3 C 20 %
Sensor: Nr:Datum:Temp:Feuchte:
Aussen-T/F 3851 21-04-2020 18:42:17 20 C 20 %
3852 21-04-2020 18:52:18 20 C 20 %
3853 21-04-2020 19:02:17 19.6 C 20 %
3854 21-04-2020 19:12:17 19.4 C 20 %
3855 21-04-2020 19:22:17 19.1 C 20 %
3856 21-04-2020 19:32:18 18.9 C 20 %
3857 21-04-2020 19:42:18 18.7 C 20 %
3858 21-04-2020 19:52:17 18.3 C 20 %
3859 21-04-2020 20:02:17 17.9 C 20 %
3860 21-04-2020 20:12:17 17.4 C 20 %
3861 21-04-2020 20:22:17 16.7 C 20 %
3862 21-04-2020 20:32:17 16.2 C 20 %
3863 21-04-2020 20:42:17 15.5 C 20 %
3864 21-04-2020 20:52:17 14.8 C 20 %
3865 21-04-2020 21:02:18 14.2 C 20 %
3866 21-04-2020 21:12:18 14.5 C 20 %
3867 21-04-2020 21:22:17 14.1 C 20 %
3868 21-04-2020 21:32:17 13.9 C 20 %
3869 21-04-2020 21:42:17 13.2 C 20 %
3870 21-04-2020 21:52:18 12.9 C 20 %
3871 21-04-2020 22:02:17 13.2 C 20 %
3872 21-04-2020 22:12:17 13 C 20 %
3873 21-04-2020 22:22:17 13.4 C 20 %
3874 21-04-2020 22:32:17 12.6 C 20 %
3875 21-04-2020 22:42:17 12 C 20 %
Sensor: Nr:Datum:Temp:Feuchte:
Aussen-T/F 3876 21-04-2020 22:52:18 11.8 C 20 %
3877 21-04-2020 23:02:18 12.1 C 20 %
3878 21-04-2020 23:12:18 11.8 C 20 %
3879 21-04-2020 23:22:17 11.5 C 20 %
3880 21-04-2020 23:32:18 11.3 C 20 %
3881 21-04-2020 23:42:18 11.3 C 20 %
3882 21-04-2020 23:52:18 11.1 C 20 %
3883 22-04-2020 00:02:18 11.1 C 20 %
3884 22-04-2020 00:12:18 10.6 C 20 %
3885 22-04-2020 00:22:17 11.1 C 20 %
3886 22-04-2020 00:32:18 11.4 C 20 %
3887 22-04-2020 00:42:18 10.9 C 20 %
3888 22-04-2020 00:52:17 11 C 20 %
3889 22-04-2020 01:02:17 10.8 C 20 %
3890 22-04-2020 01:12:17 10 C 21 %
3891 22-04-2020 01:22:17 9.9 C 25 %
3892 22-04-2020 01:32:18 9.7 C 25 %
3893 22-04-2020 01:42:18 10.2 C 21 %
3894 22-04-2020 01:52:17 9.9 C 23 %
3895 22-04-2020 02:02:17 9.9 C 23 %
3896 22-04-2020 02:12:17 9.8 C 25 %
3897 22-04-2020 02:22:17 9.5 C 25 %
3898 22-04-2020 02:32:17 9.3 C 25 %
3899 22-04-2020 02:42:17 9.7 C 25 %
3900 22-04-2020 02:52:17 9.3 C 25 %
Sensor: Nr:Datum:Temp:Feuchte:
Aussen-T/F 3901 22-04-2020 03:02:17 9.5 C 25 %
3902 22-04-2020 03:12:17 9 C 25 %
3903 22-04-2020 03:22:18 8.8 C 26 %
3904 22-04-2020 03:32:18 8.5 C 27 %
3905 22-04-2020 03:42:18 8.4 C 27 %
3906 22-04-2020 03:52:17 8.3 C 27 %
3907 22-04-2020 04:02:18 8.4 C 27 %
3908 22-04-2020 04:12:18 8.3 C 27 %
3909 22-04-2020 04:22:17 8 C 27 %
3910 22-04-2020 04:32:18 7.9 C 27 %
3911 22-04-2020 04:42:18 7.9 C 27 %
3912 22-04-2020 04:52:17 7.4 C 28 %
3913 22-04-2020 05:02:18 7.5 C 28 %
3914 22-04-2020 05:12:18 7.3 C 28 %
3915 22-04-2020 05:22:17 7.1 C 29 %
3916 22-04-2020 05:32:17 7.1 C 29 %
3917 22-04-2020 05:42:18 6.9 C 30 %
3918 22-04-2020 05:52:17 6.7 C 30 %
3919 22-04-2020 06:02:18 6.7 C 30 %
3920 22-04-2020 06:12:18 6.1 C 31 %
3921 22-04-2020 06:22:17 5.8 C 32 %
3922 22-04-2020 06:32:17 5.6 C 33 %
3923 22-04-2020 06:42:17 5.3 C 35 %
3924 22-04-2020 06:52:17 5.6 C 35 %
3925 22-04-2020 07:02:17 5.6 C 35 %
Sensor: Nr:Datum:Temp:Feuchte:
Aussen-T/F 3926 22-04-2020 07:12:17 5.4 C 35 %
3927 22-04-2020 07:22:18 5.9 C 35 %
3928 22-04-2020 07:32:17 5.5 C 35 %
3929 22-04-2020 07:42:17 5.7 C 35 %
3930 22-04-2020 07:52:17 5.9 C 35 %
3931 22-04-2020 08:02:17 6.5 C 34 %
3932 22-04-2020 08:12:17 6.6 C 34 %
3933 22-04-2020 08:22:17 7 C 33 %
3934 22-04-2020 08:32:17 7.5 C 32 %
3935 22-04-2020 08:42:17 8 C 31 %
3936 22-04-2020 08:52:18 8.9 C 30 %
3937 22-04-2020 09:02:18 9.1 C 30 %
3938 22-04-2020 09:12:18 9.1 C 30 %
3939 22-04-2020 09:22:17 10.1 C 26 %
3940 22-04-2020 09:32:17 10.7 C 26 %
3941 22-04-2020 09:42:17 10.7 C 26 %
3942 22-04-2020 09:52:17 11.3 C 24 %
3943 22-04-2020 10:02:17 11.5 C 24 %
3944 22-04-2020 10:12:17 12.5 C 20 %
3945 22-04-2020 10:22:17 13 C 20 %
3946 22-04-2020 10:32:17 13.7 C 20 %
3947 22-04-2020 10:42:17 14.2 C 20 %
3948 22-04-2020 10:52:17 14.8 C 20 %
3949 22-04-2020 11:02:17 15.4 C 20 %
3950 22-04-2020 11:12:17 15.7 C 20 %
Sensor: Nr:Datum:Temp:Feuchte:
Aussen-T/F 3951 22-04-2020 11:22:17 16.2 C 20 %
3952 22-04-2020 11:32:17 16.4 C 20 %
3953 22-04-2020 11:42:17 17.1 C 20 %
3954 22-04-2020 11:52:18 17.1 C 20 %
3955 22-04-2020 12:02:18 17.9 C 20 %
3956 22-04-2020 12:12:18 17.6 C 20 %
3957 22-04-2020 12:22:17 17.7 C 20 %
3958 22-04-2020 12:32:17 17.7 C 20 %
3959 22-04-2020 12:42:17 17.7 C 20 %
3960 22-04-2020 12:52:18 18 C 20 %
3961 22-04-2020 13:02:17 18.6 C 20 %
3962 22-04-2020 13:12:17 19.3 C 20 %
3963 22-04-2020 13:22:17 19 C 20 %
3964 22-04-2020 13:32:17 18.9 C 20 %
3965 22-04-2020 13:42:17 19.1 C 20 %
3966 22-04-2020 13:52:17 19.4 C 20 %
3967 22-04-2020 14:02:17 19.8 C 20 %
3968 22-04-2020 14:12:17 20.3 C 20 %
3969 22-04-2020 14:22:17 21.2 C 20 %
3970 22-04-2020 14:32:17 25.4 C 20 %
3971 22-04-2020 14:42:17 27.1 C 20 %
3972 22-04-2020 14:52:17 25.8 C 20 %
3973 22-04-2020 15:02:17 24.9 C 20 %
3974 22-04-2020 15:12:18 26.4 C 20 %
3975 22-04-2020 15:22:17 27.6 C 20 %
Sensor: Nr:Datum:Temp:Feuchte:
Aussen-T/F 3976 22-04-2020 15:32:17 27 C 20 %
3977 22-04-2020 15:42:17 25.4 C 20 %
3978 22-04-2020 15:52:17 25.7 C 20 %
3979 22-04-2020 16:02:17 25.3 C 20 %
3980 22-04-2020 16:12:17 27.2 C 20 %
3981 22-04-2020 16:22:17 26.8 C 20 %
3982 22-04-2020 16:32:18 27.7 C 20 %
3983 22-04-2020 16:42:18 25.2 C 20 %
3984 22-04-2020 16:52:17 26.3 C 20 %
3985 22-04-2020 17:02:17 25.2 C 20 %
3986 22-04-2020 17:12:17 24.6 C 20 %
3987 22-04-2020 17:22:17 25.1 C 20 %
3988 22-04-2020 17:32:17 25.5 C 20 %
3989 22-04-2020 17:42:17 25.6 C 20 %
3990 22-04-2020 17:52:17 25.2 C 20 %
3991 22-04-2020 18:02:17 23.1 C 20 %
3992 22-04-2020 18:12:17 22 C 20 %
3993 22-04-2020 18:22:17 22.1 C 20 %
3994 22-04-2020 18:32:17 21.9 C 20 %
3995 22-04-2020 18:42:17 21.9 C 20 %
3996 22-04-2020 18:52:17 21.6 C 20 %
3997 22-04-2020 19:02:17 21.1 C 20 %
3998 22-04-2020 19:12:17 21.2 C 20 %
3999 22-04-2020 19:22:17 20.8 C 20 %
4000 22-04-2020 19:32:18 20.4 C 20 %
Sensor: Nr:Datum:Temp:Feuchte:
Aussen-T/F 4001 22-04-2020 19:42:18 20.3 C 20 %
4002 22-04-2020 19:52:17 20 C 20 %
4003 22-04-2020 20:02:18 19.4 C 20 %
4004 22-04-2020 20:12:18 18.4 C 20 %
4005 22-04-2020 20:22:17 17 C 20 %
4006 22-04-2020 20:32:17 16.3 C 20 %
4007 22-04-2020 20:42:17 16.2 C 20 %
4008 22-04-2020 20:52:17 15.9 C 20 %
4009 22-04-2020 21:02:17 15.7 C 20 %
4010 22-04-2020 21:12:17 15 C 20 %
4011 22-04-2020 21:22:17 14.6 C 20 %
4012 22-04-2020 21:32:17 14.4 C 20 %
4013 22-04-2020 21:42:17 14.4 C 20 %
4014 22-04-2020 21:52:17 14.1 C 20 %
4015 22-04-2020 22:02:17 13.7 C 20 %
4016 22-04-2020 22:12:17 13.8 C 20 %
4017 22-04-2020 22:22:17 14.2 C 20 %
4018 22-04-2020 22:32:17 13.6 C 20 %
4019 22-04-2020 22:42:17 13.5 C 20 %
4020 22-04-2020 22:52:18 13.5 C 20 %
4021 22-04-2020 23:02:17 13.7 C 20 %
4022 22-04-2020 23:12:17 13.5 C 20 %
4023 22-04-2020 23:22:17 13.2 C 20 %
4024 22-04-2020 23:32:17 12.9 C 20 %
4025 22-04-2020 23:42:17 13.2 C 20 %
Sensor: Nr:Datum:Temp:Feuchte:
Aussen-T/F 4026 22-04-2020 23:52:18 12.8 C 20 %
4027 23-04-2020 00:02:17 12.6 C 20 %
4028 23-04-2020 00:12:17 12.4 C 20 %
4029 23-04-2020 00:22:17 12.4 C 20 %
4030 23-04-2020 00:32:17 12.2 C 20 %
4031 23-04-2020 00:42:17 12.2 C 20 %
4032 23-04-2020 00:52:17 12.3 C 20 %
4033 23-04-2020 01:02:17 12.1 C 20 %
4034 23-04-2020 01:12:17 11.9 C 20 %
4035 23-04-2020 01:22:18 11 C 20 %
4036 23-04-2020 01:32:17 12 C 20 %
4037 23-04-2020 01:42:17 10.9 C 20 %
4038 23-04-2020 01:52:17 10.5 C 22 %
4039 23-04-2020 02:02:17 9.7 C 25 %
4040 23-04-2020 02:12:17 9.7 C 26 %
4041 23-04-2020 02:22:18 9.7 C 25 %
4042 23-04-2020 02:32:17 9.8 C 26 %
4043 23-04-2020 02:42:17 9.6 C 25 %
4044 23-04-2020 02:52:17 9.3 C 26 %
4045 23-04-2020 03:02:18 9.2 C 26 %
4046 23-04-2020 03:12:18 9.2 C 26 %
4047 23-04-2020 03:22:17 9.4 C 26 %
4048 23-04-2020 03:32:17 9.4 C 26 %
4049 23-04-2020 03:42:17 9.3 C 26 %
4050 23-04-2020 03:52:17 9.1 C 26 %
Sensor: Nr:Datum:Temp:Feuchte:
Aussen-T/F 4051 23-04-2020 04:02:17 8.6 C 27 %
4052 23-04-2020 04:12:17 8.1 C 29 %
4053 23-04-2020 04:22:17 7.5 C 30 %
4054 23-04-2020 04:32:17 7.2 C 32 %
4055 23-04-2020 04:42:17 7.2 C 32 %
4056 23-04-2020 04:52:17 6.9 C 33 %
4057 23-04-2020 05:02:17 6.4 C 34 %
4058 23-04-2020 05:12:17 6.2 C 34 %
4059 23-04-2020 05:22:17 5.9 C 35 %
4060 23-04-2020 05:32:17 6 C 35 %
4061 23-04-2020 05:42:17 6 C 35 %
4062 23-04-2020 05:52:17 5.8 C 36 %
4063 23-04-2020 06:02:17 5.8 C 36 %
4064 23-04-2020 06:12:18 5.4 C 36 %
4065 23-04-2020 06:22:17 5.4 C 36 %
4066 23-04-2020 06:32:18 5.3 C 36 %
4067 23-04-2020 06:42:18 5.3 C 36 %
4068 23-04-2020 06:52:17 5.3 C 36 %
4069 23-04-2020 07:02:17 5.3 C 37 %
4070 23-04-2020 07:12:17 5.3 C 37 %
4071 23-04-2020 07:22:17 5.2 C 37 %
4072 23-04-2020 07:32:17 5.2 C 39 %
4073 23-04-2020 07:42:17 5.2 C 39 %
4074 23-04-2020 07:52:17 5.3 C 39 %
4075 23-04-2020 08:02:17 5.4 C 39 %
Sensor: Nr:Datum:Temp:Feuchte:
Aussen-T/F 4076 23-04-2020 08:12:18 5.5 C 39 %
4077 23-04-2020 08:22:18 5.9 C 39 %
4078 23-04-2020 08:32:18 6.2 C 38 %
4079 23-04-2020 08:42:18 6.5 C 38 %
4080 23-04-2020 08:52:17 6.9 C 38 %
4081 23-04-2020 09:02:17 7.7 C 36 %
4082 23-04-2020 09:12:17 8.1 C 36 %
4083 23-04-2020 09:22:17 8.6 C 35 %
4084 23-04-2020 09:32:17 9.2 C 35 %
4085 23-04-2020 09:42:17 9.7 C 34 %
4086 23-04-2020 09:52:17 9.9 C 34 %
4087 23-04-2020 10:02:18 10.5 C 33 %
4088 23-04-2020 10:12:18 11 C 32 %
4089 23-04-2020 10:22:17 11.8 C 30 %
4090 23-04-2020 10:32:17 12.7 C 28 %
4091 23-04-2020 10:42:17 13.2 C 27 %
4092 23-04-2020 10:52:17 14.8 C 22 %
4093 23-04-2020 11:02:18 16 C 20 %
4094 23-04-2020 11:12:18 16.3 C 20 %
4095 23-04-2020 11:22:17 17.2 C 20 %
4096 23-04-2020 11:32:17 17.4 C 20 %
4097 23-04-2020 11:42:17 17.7 C 20 %
4098 23-04-2020 11:52:18 17.9 C 20 %
4099 23-04-2020 12:02:17 18.9 C 20 %
4100 23-04-2020 12:12:17 18.2 C 20 %
Sensor: Nr:Datum:Temp:Feuchte:
Aussen-T/F 4101 23-04-2020 12:22:17 18 C 20 %
4102 23-04-2020 12:32:18 18.5 C 20 %
4103 23-04-2020 12:42:18 18.3 C 20 %
4104 23-04-2020 12:52:17 18.4 C 20 %
4105 23-04-2020 13:02:17 19.2 C 20 %
4106 23-04-2020 13:12:17 19.5 C 20 %
4107 23-04-2020 13:22:17 19.1 C 20 %
4108 23-04-2020 13:32:17 19.2 C 20 %
4109 23-04-2020 13:42:17 19.7 C 20 %
4110 23-04-2020 13:52:17 20.1 C 20 %
4111 23-04-2020 14:02:17 20.4 C 20 %
4112 23-04-2020 14:12:17 20.7 C 20 %
4113 23-04-2020 14:22:17 21.6 C 20 %
4114 23-04-2020 14:32:17 27.4 C 20 %
4115 23-04-2020 14:42:17 29.1 C 20 %
4116 23-04-2020 14:52:17 29 C 20 %
4117 23-04-2020 15:02:17 29.3 C 20 %
4118 23-04-2020 15:12:17 29.5 C 20 %
4119 23-04-2020 15:22:18 28.8 C 20 %
4120 23-04-2020 15:32:17 30.3 C 20 %
4121 23-04-2020 15:42:17 31.4 C 20 %
4122 23-04-2020 15:52:17 28.9 C 20 %
4123 23-04-2020 16:02:18 27.7 C 20 %
4124 23-04-2020 16:12:18 28.1 C 20 %
4125 23-04-2020 16:22:17 28.4 C 20 %
Sensor: Nr:Datum:Temp:Feuchte:
Aussen-T/F 4126 23-04-2020 16:32:18 28.3 C 20 %
4127 23-04-2020 16:42:18 29 C 20 %
4128 23-04-2020 16:52:17 29.2 C 20 %
4129 23-04-2020 17:02:17 31.6 C 20 %
4130 23-04-2020 17:12:18 28.2 C 20 %
4131 23-04-2020 17:22:17 28.6 C 20 %
4132 23-04-2020 17:32:18 28.1 C 20 %
4133 23-04-2020 17:42:18 28 C 20 %
4134 23-04-2020 17:52:18 30.1 C 20 %
4135 23-04-2020 18:02:17 27.1 C 20 %
4136 23-04-2020 18:12:17 24.5 C 20 %
4137 23-04-2020 18:22:17 23.9 C 20 %
4138 23-04-2020 18:32:17 23.6 C 20 %
4139 23-04-2020 18:42:17 23.7 C 20 %
4140 23-04-2020 18:52:17 23.2 C 20 %
4141 23-04-2020 19:02:17 22.5 C 20 %
4142 23-04-2020 19:12:17 22.4 C 20 %
4143 23-04-2020 19:22:17 22 C 20 %
4144 23-04-2020 19:32:18 21.2 C 20 %
4145 23-04-2020 19:42:18 20 C 20 %
4146 23-04-2020 19:52:17 18.6 C 20 %
4147 23-04-2020 20:02:18 18.6 C 20 %
4148 23-04-2020 20:12:18 17.9 C 20 %
4149 23-04-2020 20:22:17 17.2 C 20 %
4150 23-04-2020 20:32:18 16.5 C 20 %
Sensor: Nr:Datum:Temp:Feuchte:
Aussen-T/F 4151 23-04-2020 20:42:18 15.5 C 20 %
4152 23-04-2020 20:52:18 14.3 C 20 %
4153 23-04-2020 21:02:18 14 C 20 %
4154 23-04-2020 21:12:18 14.1 C 20 %
4155 23-04-2020 21:22:17 13.5 C 20 %
4156 23-04-2020 21:32:17 13.1 C 20 %
4157 23-04-2020 21:42:17 12.9 C 20 %
4158 23-04-2020 21:52:17 12.5 C 20 %
4159 23-04-2020 22:02:17 12 C 23 %
4160 23-04-2020 22:12:17 11.6 C 25 %
4161 23-04-2020 22:22:17 11.5 C 25 %
4162 23-04-2020 22:32:18 11 C 26 %
4163 23-04-2020 22:42:18 11.1 C 26 %
4164 23-04-2020 22:52:18 10.8 C 26 %
4165 23-04-2020 23:02:18 10.4 C 27 %
4166 23-04-2020 23:12:18 10.3 C 27 %
4167 23-04-2020 23:22:18 9.6 C 29 %
4168 23-04-2020 23:32:17 9.6 C 29 %
4169 23-04-2020 23:42:17 9.6 C 29 %
4170 23-04-2020 23:52:17 9.2 C 30 %
<
Sensor: Nr:Datum:Temp:Feuchte:
G-T/H 1 26-03-2020 00:00:18 8.2 C 64 %
2 26-03-2020 00:10:18 8.1 C 64 %
3 26-03-2020 00:20:18 8.1 C 64 %
4 26-03-2020 00:30:18 8.1 C 64 %
5 26-03-2020 00:40:18 8.1 C 64 %
6 26-03-2020 00:50:18 8.1 C 64 %
7 26-03-2020 01:00:18 8.1 C 64 %
8 26-03-2020 01:10:18 8.1 C 64 %
9 26-03-2020 01:20:17 8.1 C 64 %
10 26-03-2020 01:30:17 8.1 C 64 %
11 26-03-2020 01:40:17 8.1 C 64 %
12 26-03-2020 01:50:17 8.1 C 64 %
13 26-03-2020 02:00:17 8.1 C 64 %
14 26-03-2020 02:10:17 8.1 C 64 %
15 26-03-2020 02:20:17 8.1 C 64 %
16 26-03-2020 02:30:17 8.1 C 64 %
17 26-03-2020 02:40:18 8.1 C 64 %
18 26-03-2020 02:50:17 8.1 C 63 %
19 26-03-2020 03:00:17 8.1 C 63 %
20 26-03-2020 03:10:18 8 C 63 %
21 26-03-2020 03:20:18 8 C 63 %
22 26-03-2020 03:30:18 8 C 63 %
23 26-03-2020 03:40:18 8 C 63 %
24 26-03-2020 03:50:17 8 C 63 %
25 26-03-2020 04:00:17 8 C 63 %
Sensor: Nr:Datum:Temp:Feuchte:
G-T/H 26 26-03-2020 04:10:17 8 C 63 %
27 26-03-2020 04:20:17 8 C 63 %
28 26-03-2020 04:30:18 8 C 63 %
29 26-03-2020 04:40:18 8 C 63 %
30 26-03-2020 04:50:17 8 C 63 %
31 26-03-2020 05:00:18 7.9 C 64 %
32 26-03-2020 05:10:18 7.9 C 64 %
33 26-03-2020 05:20:17 7.9 C 64 %
34 26-03-2020 05:30:17 7.9 C 64 %
35 26-03-2020 05:40:18 7.9 C 64 %
36 26-03-2020 05:50:17 7.9 C 64 %
37 26-03-2020 06:00:18 7.9 C 64 %
38 26-03-2020 06:10:18 7.8 C 64 %
39 26-03-2020 06:20:18 7.8 C 64 %
40 26-03-2020 06:30:18 7.8 C 64 %
41 26-03-2020 06:40:18 7.8 C 64 %
42 26-03-2020 06:50:18 7.8 C 64 %
43 26-03-2020 07:00:18 7.8 C 64 %
44 26-03-2020 07:10:18 7.8 C 64 %
45 26-03-2020 07:20:18 7.8 C 64 %
46 26-03-2020 07:30:18 7.7 C 64 %
47 26-03-2020 07:40:18 7.7 C 64 %
48 26-03-2020 07:50:17 7.7 C 64 %
49 26-03-2020 08:00:18 7.7 C 64 %
50 26-03-2020 08:10:18 7.7 C 64 %
Sensor: Nr:Datum:Temp:Feuchte:
G-T/H 51 26-03-2020 08:20:18 7.7 C 64 %
52 26-03-2020 08:30:18 7.7 C 64 %
53 26-03-2020 08:40:18 7.7 C 64 %
54 26-03-2020 08:50:17 7.7 C 64 %
55 26-03-2020 09:00:18 7.7 C 64 %
56 26-03-2020 09:10:18 7.7 C 64 %
57 26-03-2020 09:20:18 7.7 C 64 %
58 26-03-2020 09:30:18 7.7 C 64 %
59 26-03-2020 09:40:18 7.7 C 64 %
60 26-03-2020 09:50:18 7.6 C 64 %
61 26-03-2020 10:00:18 7.7 C 64 %
62 26-03-2020 10:10:18 7.7 C 64 %
63 26-03-2020 10:20:18 7.6 C 64 %
64 26-03-2020 10:30:18 7.7 C 64 %
65 26-03-2020 10:40:18 7.7 C 64 %
66 26-03-2020 10:50:17 7.6 C 64 %
67 26-03-2020 11:00:18 7.6 C 64 %
68 26-03-2020 11:10:18 7.6 C 64 %
69 26-03-2020 11:20:18 7.6 C 64 %
70 26-03-2020 11:30:18 7.6 C 64 %
71 26-03-2020 11:40:18 7.6 C 64 %
72 26-03-2020 11:50:18 7.7 C 64 %
73 26-03-2020 12:00:18 7.6 C 64 %
74 26-03-2020 12:10:18 7.7 C 64 %
75 26-03-2020 12:20:17 7.7 C 64 %
Sensor: Nr:Datum:Temp:Feuchte:
G-T/H 76 26-03-2020 12:30:17 7.7 C 64 %
77 26-03-2020 12:40:17 7.7 C 64 %
78 26-03-2020 12:50:17 7.7 C 64 %
79 26-03-2020 13:00:17 7.7 C 64 %
80 26-03-2020 13:10:17 7.7 C 63 %
81 26-03-2020 13:20:18 7.8 C 63 %
82 26-03-2020 13:30:18 7.8 C 63 %
83 26-03-2020 13:40:18 7.8 C 63 %
84 26-03-2020 13:50:18 7.8 C 63 %
85 26-03-2020 14:00:18 7.8 C 63 %
86 26-03-2020 14:10:18 7.8 C 63 %
87 26-03-2020 14:20:18 7.8 C 63 %
88 26-03-2020 14:30:18 7.9 C 63 %
89 26-03-2020 14:40:18 7.9 C 64 %
90 26-03-2020 14:50:17 7.9 C 64 %
91 26-03-2020 15:00:17 7.9 C 64 %
92 26-03-2020 15:10:18 7.9 C 64 %
93 26-03-2020 15:20:18 8 C 63 %
94 26-03-2020 15:30:18 8 C 63 %
95 26-03-2020 15:40:18 8 C 63 %
96 26-03-2020 15:50:18 8 C 63 %
97 26-03-2020 16:00:18 8 C 63 %
98 26-03-2020 16:10:18 8.1 C 63 %
99 26-03-2020 16:20:18 8.1 C 63 %
100 26-03-2020 16:30:18 8.1 C 63 %
Sensor: Nr:Datum:Temp:Feuchte:
G-T/H 101 26-03-2020 16:40:18 8.1 C 64 %
102 26-03-2020 16:50:18 8.1 C 64 %
103 26-03-2020 17:00:18 8.1 C 64 %
104 26-03-2020 17:10:18 8.2 C 64 %
105 26-03-2020 17:20:17 8.2 C 64 %
106 26-03-2020 17:30:17 8.2 C 63 %
107 26-03-2020 17:40:17 8.3 C 63 %
108 26-03-2020 17:50:17 8.3 C 63 %
109 26-03-2020 18:00:17 8.3 C 64 %
110 26-03-2020 18:10:17 8.3 C 63 %
111 26-03-2020 18:20:18 8.3 C 63 %
112 26-03-2020 18:30:18 8.3 C 63 %
113 26-03-2020 18:40:18 8.4 C 64 %
114 26-03-2020 18:50:17 8.4 C 64 %
115 26-03-2020 19:00:17 8.4 C 64 %
116 26-03-2020 19:10:17 8.4 C 64 %
117 26-03-2020 19:20:17 8.4 C 64 %
118 26-03-2020 19:30:17 8.4 C 64 %
119 26-03-2020 19:40:17 8.4 C 65 %
120 26-03-2020 19:50:17 8.4 C 65 %
121 26-03-2020 20:00:17 8.4 C 65 %
122 26-03-2020 20:10:18 8.5 C 65 %
123 26-03-2020 20:20:18 8.5 C 65 %
124 26-03-2020 20:30:17 8.5 C 65 %
125 26-03-2020 20:40:17 8.5 C 65 %
Sensor: Nr:Datum:Temp:Feuchte:
G-T/H 126 26-03-2020 20:50:17 8.5 C 65 %
127 26-03-2020 21:00:17 8.5 C 65 %
128 26-03-2020 21:10:17 8.5 C 65 %
129 26-03-2020 21:20:17 8.5 C 65 %
130 26-03-2020 21:30:18 8.5 C 65 %
131 26-03-2020 21:40:18 8.6 C 65 %
132 26-03-2020 21:50:18 8.5 C 66 %
133 26-03-2020 22:00:18 8.6 C 66 %
134 26-03-2020 22:10:18 8.6 C 66 %
135 26-03-2020 22:20:17 8.6 C 66 %
136 26-03-2020 22:30:17 8.6 C 66 %
137 26-03-2020 22:40:17 8.6 C 66 %
138 26-03-2020 22:50:17 8.6 C 66 %
139 26-03-2020 23:00:18 8.6 C 66 %
140 26-03-2020 23:10:18 8.6 C 66 %
141 26-03-2020 23:20:17 8.6 C 66 %
142 26-03-2020 23:30:18 8.6 C 66 %
143 26-03-2020 23:40:18 8.6 C 66 %
144 26-03-2020 23:50:18 8.6 C 66 %
145 27-03-2020 00:00:18 8.6 C 66 %
146 27-03-2020 00:10:18 8.6 C 66 %
147 27-03-2020 00:20:17 8.6 C 66 %
148 27-03-2020 00:30:17 8.6 C 66 %
149 27-03-2020 00:40:17 8.6 C 66 %
150 27-03-2020 00:50:18 8.6 C 66 %
Sensor: Nr:Datum:Temp:Feuchte:
G-T/H 151 27-03-2020 01:00:18 8.6 C 66 %
152 27-03-2020 01:10:18 8.6 C 66 %
153 27-03-2020 01:20:17 8.6 C 66 %
154 27-03-2020 01:30:18 8.6 C 66 %
155 27-03-2020 01:40:18 8.6 C 66 %
156 27-03-2020 01:50:18 8.6 C 66 %
157 27-03-2020 02:00:18 8.6 C 66 %
158 27-03-2020 02:10:18 8.6 C 66 %
159 27-03-2020 02:20:17 8.6 C 66 %
160 27-03-2020 02:30:17 8.6 C 66 %
161 27-03-2020 02:40:17 8.6 C 66 %
162 27-03-2020 02:50:17 8.5 C 66 %
163 27-03-2020 03:00:17 8.6 C 66 %
164 27-03-2020 03:10:17 8.6 C 66 %
165 27-03-2020 03:20:17 8.6 C 66 %
166 27-03-2020 03:30:17 8.5 C 66 %
167 27-03-2020 03:40:17 8.5 C 66 %
168 27-03-2020 03:50:17 8.5 C 66 %
169 27-03-2020 04:00:18 8.5 C 66 %
170 27-03-2020 04:10:18 8.5 C 66 %
171 27-03-2020 04:20:18 8.5 C 66 %
172 27-03-2020 04:30:18 8.5 C 66 %
173 27-03-2020 04:40:18 8.5 C 66 %
174 27-03-2020 04:50:17 8.5 C 66 %
175 27-03-2020 05:00:18 8.5 C 66 %
Sensor: Nr:Datum:Temp:Feuchte:
G-T/H 176 27-03-2020 05:10:18 8.5 C 66 %
177 27-03-2020 05:20:18 8.5 C 66 %
178 27-03-2020 05:30:18 8.5 C 66 %
179 27-03-2020 05:40:18 8.5 C 66 %
180 27-03-2020 05:50:18 8.4 C 66 %
181 27-03-2020 06:00:18 8.5 C 66 %
182 27-03-2020 06:10:18 8.4 C 66 %
183 27-03-2020 06:20:18 8.4 C 66 %
184 27-03-2020 06:30:18 8.4 C 66 %
185 27-03-2020 06:40:18 8.4 C 66 %
186 27-03-2020 06:50:17 8.4 C 66 %
187 27-03-2020 07:00:18 8.4 C 66 %
188 27-03-2020 07:10:18 8.4 C 66 %
189 27-03-2020 07:20:18 8.4 C 65 %
190 27-03-2020 07:30:18 8.3 C 65 %
191 27-03-2020 07:40:18 8.4 C 66 %
192 27-03-2020 07:50:17 8.3 C 66 %
193 27-03-2020 08:00:17 8.3 C 66 %
194 27-03-2020 08:10:18 8.3 C 66 %
195 27-03-2020 08:20:18 8.3 C 66 %
196 27-03-2020 08:30:18 8.3 C 66 %
197 27-03-2020 08:40:18 8.3 C 66 %
198 27-03-2020 08:50:17 8.3 C 66 %
199 27-03-2020 09:00:18 8.3 C 66 %
200 27-03-2020 09:10:18 8.3 C 66 %
Sensor: Nr:Datum:Temp:Feuchte:
G-T/H 201 27-03-2020 09:20:17 8.2 C 66 %
202 27-03-2020 09:30:18 8.2 C 66 %
203 27-03-2020 09:40:18 8.3 C 66 %
204 27-03-2020 09:50:18 8.3 C 66 %
205 27-03-2020 10:00:18 8.2 C 66 %
206 27-03-2020 10:10:18 8.2 C 66 %
207 27-03-2020 10:20:17 8.3 C 66 %
208 27-03-2020 10:30:17 8.3 C 66 %
209 27-03-2020 10:40:17 8.3 C 66 %
210 27-03-2020 10:50:17 8.3 C 67 %
211 27-03-2020 11:00:17 8.3 C 67 %
212 27-03-2020 11:10:17 8.3 C 67 %
213 27-03-2020 11:20:17 8.3 C 67 %
214 27-03-2020 11:30:17 8.3 C 67 %
215 27-03-2020 11:40:17 8.3 C 67 %
216 27-03-2020 11:50:17 8.3 C 67 %
217 27-03-2020 12:00:17 8.3 C 67 %
218 27-03-2020 12:10:17 8.3 C 67 %
219 27-03-2020 12:20:17 8.4 C 67 %
220 27-03-2020 12:30:17 8.4 C 67 %
221 27-03-2020 12:40:18 8.4 C 67 %
222 27-03-2020 12:50:18 8.5 C 67 %
223 27-03-2020 13:00:18 8.4 C 67 %
224 27-03-2020 13:10:18 8.5 C 67 %
225 27-03-2020 13:20:17 8.5 C 67 %
Sensor: Nr:Datum:Temp:Feuchte:
G-T/H 226 27-03-2020 13:30:18 8.6 C 67 %
227 27-03-2020 13:40:18 8.6 C 67 %
228 27-03-2020 13:50:18 8.6 C 67 %
229 27-03-2020 14:00:18 8.7 C 67 %
230 27-03-2020 14:10:18 8.7 C 67 %
231 27-03-2020 14:20:18 8.7 C 67 %
232 27-03-2020 14:30:17 8.8 C 67 %
233 27-03-2020 14:40:17 8.8 C 67 %
234 27-03-2020 14:50:17 8.8 C 67 %
235 27-03-2020 15:00:17 8.9 C 67 %
236 27-03-2020 15:10:17 9.4 C 64 %
237 27-03-2020 15:20:17 9.7 C 61 %
238 27-03-2020 15:30:18 9.9 C 59 %
239 27-03-2020 15:40:18 10.1 C 56 %
240 27-03-2020 15:50:17 10.2 C 55 %
241 27-03-2020 16:00:17 10.4 C 54 %
242 27-03-2020 16:10:17 10.5 C 53 %
243 27-03-2020 16:20:17 10.6 C 53 %
244 27-03-2020 16:30:17 10.7 C 52 %
245 27-03-2020 16:40:17 10.8 C 52 %
246 27-03-2020 16:50:17 10.9 C 51 %
247 27-03-2020 17:00:18 11 C 50 %
248 27-03-2020 17:10:18 11.1 C 50 %
249 27-03-2020 17:20:18 11.2 C 49 %
250 27-03-2020 17:30:18 11.2 C 49 %
Sensor: Nr:Datum:Temp:Feuchte:
G-T/H 251 27-03-2020 17:40:18 11.3 C 49 %
252 27-03-2020 17:50:18 11.4 C 48 %
253 27-03-2020 18:00:17 11.4 C 49 %
254 27-03-2020 18:10:17 11.5 C 48 %
255 27-03-2020 18:20:17 11.5 C 49 %
256 27-03-2020 18:30:18 11.4 C 49 %
257 27-03-2020 18:40:18 11.3 C 50 %
258 27-03-2020 18:50:18 11.2 C 51 %
259 27-03-2020 19:00:18 11.1 C 52 %
260 27-03-2020 19:10:18 11 C 52 %
261 27-03-2020 19:20:17 11 C 52 %
262 27-03-2020 19:30:17 10.9 C 53 %
263 27-03-2020 19:40:17 10.8 C 53 %
264 27-03-2020 19:50:17 10.6 C 53 %
265 27-03-2020 20:00:18 10.6 C 53 %
266 27-03-2020 20:10:18 10.5 C 53 %
267 27-03-2020 20:20:17 10.5 C 53 %
268 27-03-2020 20:30:17 10.4 C 53 %
269 27-03-2020 20:40:17 10.4 C 54 %
270 27-03-2020 20:50:18 10.4 C 54 %
271 27-03-2020 21:00:17 10.2 C 54 %
272 27-03-2020 21:10:17 10.2 C 54 %
273 27-03-2020 21:20:17 10.1 C 54 %
274 27-03-2020 21:30:17 10 C 54 %
275 27-03-2020 21:40:17 9.9 C 54 %
Sensor: Nr:Datum:Temp:Feuchte:
G-T/H 276 27-03-2020 21:50:17 9.8 C 54 %
277 27-03-2020 22:00:17 9.7 C 54 %
278 27-03-2020 22:10:17 9.6 C 54 %
279 27-03-2020 22:20:17 9.6 C 54 %
280 27-03-2020 22:30:18 9.5 C 54 %
281 27-03-2020 22:40:18 9.4 C 54 %
282 27-03-2020 22:50:18 9.7 C 55 %
283 27-03-2020 23:00:18 9.8 C 55 %
284 27-03-2020 23:10:18 9.9 C 56 %
285 27-03-2020 23:20:17 9.9 C 56 %
286 27-03-2020 23:30:17 9.9 C 56 %
287 27-03-2020 23:40:17 10 C 56 %
288 27-03-2020 23:50:17 10 C 56 %
289 28-03-2020 00:00:17 10 C 57 %
290 28-03-2020 00:10:17 10 C 57 %
291 28-03-2020 00:20:17 10 C 58 %
292 28-03-2020 00:30:18 10.1 C 58 %
293 28-03-2020 00:40:18 10.1 C 58 %
294 28-03-2020 00:50:17 10 C 58 %
295 28-03-2020 01:00:17 10.1 C 59 %
296 28-03-2020 01:10:17 10.1 C 59 %
297 28-03-2020 01:20:17 10.1 C 59 %
298 28-03-2020 01:30:17 10.1 C 59 %
299 28-03-2020 01:40:18 10.1 C 59 %
300 28-03-2020 01:50:17 10.1 C 60 %
Sensor: Nr:Datum:Temp:Feuchte:
G-T/H 301 28-03-2020 02:00:18 10.1 C 60 %
302 28-03-2020 02:10:18 10.1 C 60 %
303 28-03-2020 02:20:18 10 C 60 %
304 28-03-2020 02:30:17 10 C 60 %
305 28-03-2020 02:40:17 10 C 60 %
306 28-03-2020 02:50:18 10.1 C 60 %
307 28-03-2020 03:00:18 10 C 60 %
308 28-03-2020 03:10:18 10 C 60 %
309 28-03-2020 03:20:17 10 C 60 %
310 28-03-2020 03:30:18 10 C 61 %
311 28-03-2020 03:40:18 10 C 61 %
312 28-03-2020 03:50:17 10 C 61 %
313 28-03-2020 04:00:18 10 C 61 %
314 28-03-2020 04:10:18 10 C 61 %
315 28-03-2020 04:20:18 10 C 61 %
316 28-03-2020 04:30:18 10 C 61 %
317 28-03-2020 04:40:18 10 C 61 %
318 28-03-2020 04:50:17 10 C 61 %
319 28-03-2020 05:00:18 9.9 C 62 %
320 28-03-2020 05:10:18 9.9 C 62 %
321 28-03-2020 05:20:17 9.9 C 62 %
322 28-03-2020 05:30:18 9.9 C 62 %
323 28-03-2020 05:40:18 9.8 C 62 %
324 28-03-2020 05:50:18 9.8 C 62 %
325 28-03-2020 06:00:18 9.8 C 62 %
Sensor: Nr:Datum:Temp:Feuchte:
G-T/H 326 28-03-2020 06:10:18 9.8 C 62 %
327 28-03-2020 06:20:17 9.8 C 62 %
328 28-03-2020 06:30:17 9.8 C 62 %
329 28-03-2020 06:40:17 9.8 C 62 %
330 28-03-2020 06:50:17 9.8 C 62 %
331 28-03-2020 07:00:17 9.8 C 62 %
332 28-03-2020 07:10:17 9.8 C 62 %
333 28-03-2020 07:20:17 9.7 C 62 %
334 28-03-2020 07:30:18 9.7 C 62 %
335 28-03-2020 07:40:18 9.7 C 62 %
336 28-03-2020 07:50:17 9.7 C 62 %
337 28-03-2020 08:00:17 9.7 C 62 %
338 28-03-2020 08:10:18 9.7 C 63 %
339 28-03-2020 08:20:18 9.7 C 63 %
340 28-03-2020 08:30:17 9.7 C 63 %
341 28-03-2020 08:40:17 9.6 C 63 %
342 28-03-2020 08:50:18 9.7 C 63 %
343 28-03-2020 09:00:18 9.6 C 63 %
344 28-03-2020 09:10:18 9.7 C 63 %
345 28-03-2020 09:20:17 9.6 C 63 %
346 28-03-2020 09:30:18 9.6 C 63 %
347 28-03-2020 09:40:18 9.6 C 63 %
348 28-03-2020 09:50:18 9.6 C 63 %
349 28-03-2020 10:00:18 9.6 C 63 %
350 28-03-2020 10:10:18 9.6 C 63 %
Sensor: Nr:Datum:Temp:Feuchte:
G-T/H 351 28-03-2020 10:20:17 9.6 C 64 %
352 28-03-2020 10:30:17 9.6 C 64 %
353 28-03-2020 10:40:17 9.6 C 64 %
354 28-03-2020 10:50:18 9.6 C 64 %
355 28-03-2020 11:00:18 9.6 C 64 %
356 28-03-2020 11:10:18 9.6 C 64 %
357 28-03-2020 11:20:17 9.6 C 64 %
358 28-03-2020 11:30:17 9.6 C 64 %
359 28-03-2020 11:40:17 9.6 C 64 %
360 28-03-2020 11:50:18 9.6 C 64 %
361 28-03-2020 12:00:17 9.7 C 64 %
362 28-03-2020 12:10:17 9.8 C 64 %
363 28-03-2020 12:20:17 9.8 C 64 %
364 28-03-2020 12:30:17 9.8 C 64 %
365 28-03-2020 12:40:17 9.8 C 64 %
366 28-03-2020 12:50:18 9.8 C 64 %
367 28-03-2020 13:00:18 9.8 C 64 %
368 28-03-2020 13:10:18 9.9 C 64 %
369 28-03-2020 13:20:18 10.6 C 62 %
370 28-03-2020 13:30:17 11 C 59 %
371 28-03-2020 13:40:17 11.2 C 57 %
372 28-03-2020 13:50:18 11.4 C 56 %
373 28-03-2020 14:00:17 11.5 C 56 %
374 28-03-2020 14:10:17 11.7 C 55 %
375 28-03-2020 14:20:17 11.9 C 54 %
Sensor: Nr:Datum:Temp:Feuchte:
G-T/H 376 28-03-2020 14:30:17 11.9 C 53 %
377 28-03-2020 14:40:17 12.1 C 52 %
378 28-03-2020 14:50:17 12.2 C 52 %
379 28-03-2020 15:00:18 12.3 C 51 %
380 28-03-2020 15:10:18 12.4 C 49 %
381 28-03-2020 15:20:18 12.4 C 49 %
382 28-03-2020 15:30:18 11.9 C 50 %
383 28-03-2020 15:40:18 11.9 C 51 %
384 28-03-2020 15:50:18 12.1 C 50 %
385 28-03-2020 16:00:18 11.8 C 51 %
386 28-03-2020 16:10:18 11.6 C 52 %
387 28-03-2020 16:20:18 11.5 C 53 %
388 28-03-2020 16:30:18 11.4 C 54 %
389 28-03-2020 16:40:18 11.4 C 55 %
390 28-03-2020 16:50:18 11.3 C 55 %
391 28-03-2020 17:00:18 11.3 C 56 %
392 28-03-2020 17:10:18 11.3 C 56 %
393 28-03-2020 17:20:18 11.2 C 56 %
394 28-03-2020 17:30:18 11.2 C 57 %
395 28-03-2020 17:40:18 11.2 C 57 %
396 28-03-2020 17:50:17 11.2 C 57 %
397 28-03-2020 18:00:18 11.2 C 57 %
398 28-03-2020 18:10:18 11.2 C 57 %
399 28-03-2020 18:20:17 11.2 C 58 %
400 28-03-2020 18:30:17 11.1 C 58 %
Sensor: Nr:Datum:Temp:Feuchte:
G-T/H 401 28-03-2020 18:40:17 11.1 C 58 %
402 28-03-2020 18:50:18 11.1 C 58 %
403 28-03-2020 19:00:18 11.1 C 58 %
404 28-03-2020 19:10:18 11.1 C 58 %
405 28-03-2020 19:20:18 11.1 C 58 %
406 28-03-2020 19:30:18 11.1 C 58 %
407 28-03-2020 19:40:18 11.1 C 58 %
408 28-03-2020 19:50:17 11.1 C 59 %
409 28-03-2020 20:00:18 11.1 C 59 %
410 28-03-2020 20:10:18 11.1 C 59 %
411 28-03-2020 20:20:17 11.1 C 59 %
412 28-03-2020 20:30:18 11.1 C 59 %
413 28-03-2020 20:40:18 11 C 59 %
414 28-03-2020 20:50:17 11 C 59 %
415 28-03-2020 21:00:17 11.1 C 60 %
416 28-03-2020 21:10:17 11 C 60 %
417 28-03-2020 21:20:17 11 C 60 %
418 28-03-2020 21:30:17 11 C 60 %
419 28-03-2020 21:40:17 11 C 60 %
420 28-03-2020 21:50:17 11 C 60 %
421 28-03-2020 22:00:17 11 C 60 %
422 28-03-2020 22:10:17 11 C 60 %
423 28-03-2020 22:20:17 11 C 61 %
424 28-03-2020 22:30:17 11 C 61 %
425 28-03-2020 22:40:17 11 C 61 %
Sensor: Nr:Datum:Temp:Feuchte:
G-T/H 426 28-03-2020 22:50:17 11 C 61 %
427 28-03-2020 23:00:17 11 C 61 %
428 28-03-2020 23:10:17 11 C 61 %
429 28-03-2020 23:20:18 11 C 61 %
430 28-03-2020 23:30:18 10.9 C 62 %
431 28-03-2020 23:40:18 10.9 C 62 %
432 28-03-2020 23:50:17 10.9 C 62 %
433 29-03-2020 00:00:18 10.9 C 62 %
434 29-03-2020 00:10:18 10.9 C 62 %
435 29-03-2020 00:20:17 10.9 C 62 %
436 29-03-2020 00:30:17 10.9 C 62 %
437 29-03-2020 00:40:17 10.9 C 62 %
438 29-03-2020 00:50:18 10.9 C 62 %
439 29-03-2020 01:00:18 10.9 C 62 %
440 29-03-2020 01:10:18 10.9 C 62 %
441 29-03-2020 01:20:17 10.8 C 62 %
442 29-03-2020 01:30:17 10.8 C 62 %
443 29-03-2020 01:40:17 10.8 C 62 %
444 29-03-2020 01:50:17 10.8 C 62 %
445 29-03-2020 02:00:17 10.8 C 62 %
446 29-03-2020 02:10:17 10.8 C 62 %
447 29-03-2020 02:20:18 10.8 C 62 %
448 29-03-2020 02:30:18 10.8 C 62 %
449 29-03-2020 02:40:18 10.7 C 62 %
450 29-03-2020 02:50:18 10.7 C 62 %
Sensor: Nr:Datum:Temp:Feuchte:
G-T/H 451 29-03-2020 04:00:18 10.7 C 62 %
452 29-03-2020 04:10:18 10.7 C 62 %
453 29-03-2020 04:20:17 10.7 C 61 %
454 29-03-2020 04:30:17 10.6 C 61 %
455 29-03-2020 04:40:17 10.6 C 61 %
456 29-03-2020 04:50:18 10.6 C 61 %
457 29-03-2020 05:00:17 10.6 C 61 %
458 29-03-2020 05:10:17 10.5 C 60 %
459 29-03-2020 05:20:17 10.5 C 60 %
460 29-03-2020 05:30:17 10.5 C 60 %
461 29-03-2020 05:40:17 10.5 C 60 %
462 29-03-2020 05:50:18 10.5 C 60 %
463 29-03-2020 06:00:18 10.5 C 60 %
464 29-03-2020 06:10:18 10.5 C 60 %
465 29-03-2020 06:20:17 10.5 C 60 %
466 29-03-2020 06:30:18 10.4 C 60 %
467 29-03-2020 06:40:18 10.4 C 60 %
468 29-03-2020 06:50:17 10.4 C 60 %
469 29-03-2020 07:00:18 10.4 C 60 %
470 29-03-2020 07:10:18 10.4 C 60 %
471 29-03-2020 07:20:17 10.4 C 60 %
472 29-03-2020 07:30:17 10.4 C 60 %
473 29-03-2020 07:40:17 10.3 C 61 %
474 29-03-2020 07:50:17 10.4 C 61 %
475 29-03-2020 08:00:18 10.3 C 61 %
Sensor: Nr:Datum:Temp:Feuchte:
G-T/H 476 29-03-2020 08:10:18 10.3 C 61 %
477 29-03-2020 08:20:17 10.3 C 60 %
478 29-03-2020 08:30:17 10.2 C 60 %
479 29-03-2020 08:40:17 10.2 C 60 %
480 29-03-2020 08:50:17 10.2 C 60 %
481 29-03-2020 09:00:17 10.2 C 60 %
482 29-03-2020 09:10:17 10.2 C 60 %
483 29-03-2020 09:20:17 10.2 C 60 %
484 29-03-2020 09:30:17 10.2 C 60 %
485 29-03-2020 09:40:17 10.2 C 60 %
486 29-03-2020 09:50:17 10.2 C 60 %
487 29-03-2020 10:00:17 10.1 C 60 %